<?xml version="1.0" encoding="UTF-8" standalone="no" ?>
<gpx xmlns="http://www.topografix.com/GPX/1/1" xmlns:xsi="http://www.w3.org/2001/XMLSchema-instance" xsi:schemaLocation="http://www.topografix.com/GPX/1/1 http://www.topografix.com/GPX/1/1/gpx.xsd" version="1.1" creator="VisuGPX - https://www.visugpx.com">
  <metadata>
    <name>jpm63 gergovie 100305</name>
    <desc><![CDATA[tour de gergovie par jussat en passant derriere le plateau]]></desc>
  </metadata>
  <trk>
    <name><![CDATA[gergovie 100305]]></name>
    <trkseg>
      <trkpt lat="45.68673" lon="3.1625">
        <ele>429.540741</ele>
        <time>2010-03-06T09:02:59Z</time>
      </trkpt>
      <trkpt lat="45.68674" lon="3.16264">
        <ele>428.290527</ele>
        <time>2010-03-06T09:04:48Z</time>
      </trkpt>
      <trkpt lat="45.68673" lon="3.16277">
        <ele>427.177277</ele>
        <time>2010-03-06T09:05:02Z</time>
      </trkpt>
      <trkpt lat="45.68672" lon="3.16291">
        <ele>426.261261</ele>
        <time>2010-03-06T09:05:17Z</time>
      </trkpt>
      <trkpt lat="45.6868" lon="3.16297">
        <ele>424.984985</ele>
        <time>2010-03-06T09:05:39Z</time>
      </trkpt>
      <trkpt lat="45.6869" lon="3.16292">
        <ele>424.152496</ele>
        <time>2010-03-06T09:05:47Z</time>
      </trkpt>
      <trkpt lat="45.68698" lon="3.16286">
        <ele>423.579987</ele>
        <time>2010-03-06T09:05:54Z</time>
      </trkpt>
      <trkpt lat="45.68706" lon="3.1628">
        <ele>423.100006</ele>
        <time>2010-03-06T09:06:00Z</time>
      </trkpt>
      <trkpt lat="45.68714" lon="3.16274">
        <ele>422.612488</ele>
        <time>2010-03-06T09:06:07Z</time>
      </trkpt>
      <trkpt lat="45.68723" lon="3.16265">
        <ele>422.297516</ele>
        <time>2010-03-06T09:06:16Z</time>
      </trkpt>
      <trkpt lat="45.68731" lon="3.16257">
        <ele>421.98999</ele>
        <time>2010-03-06T09:06:24Z</time>
      </trkpt>
      <trkpt lat="45.68735" lon="3.16271">
        <ele>420.204987</ele>
        <time>2010-03-06T09:06:47Z</time>
      </trkpt>
      <trkpt lat="45.68733" lon="3.16284">
        <ele>419.192505</ele>
        <time>2010-03-06T09:06:56Z</time>
      </trkpt>
      <trkpt lat="45.6873" lon="3.16297">
        <ele>418.641235</ele>
        <time>2010-03-06T09:07:04Z</time>
      </trkpt>
      <trkpt lat="45.68726" lon="3.16309">
        <ele>418.547485</ele>
        <time>2010-03-06T09:07:13Z</time>
      </trkpt>
      <trkpt lat="45.68731" lon="3.16322">
        <ele>417.358765</ele>
        <time>2010-03-06T09:07:23Z</time>
      </trkpt>
      <trkpt lat="45.6874" lon="3.16326">
        <ele>416.079987</ele>
        <time>2010-03-06T09:07:31Z</time>
      </trkpt>
      <trkpt lat="45.6875" lon="3.16327">
        <ele>414.880005</ele>
        <time>2010-03-06T09:07:39Z</time>
      </trkpt>
      <trkpt lat="45.68759" lon="3.16329">
        <ele>413.751251</ele>
        <time>2010-03-06T09:07:48Z</time>
      </trkpt>
      <trkpt lat="45.68769" lon="3.16331">
        <ele>412.626251</ele>
        <time>2010-03-06T09:07:56Z</time>
      </trkpt>
      <trkpt lat="45.68778" lon="3.16335">
        <ele>411.415009</ele>
        <time>2010-03-06T09:08:05Z</time>
      </trkpt>
      <trkpt lat="45.68788" lon="3.16337">
        <ele>410.269318</ele>
        <time>2010-03-06T09:08:13Z</time>
      </trkpt>
      <trkpt lat="45.68798" lon="3.1634">
        <ele>409.200897</ele>
        <time>2010-03-06T09:08:22Z</time>
      </trkpt>
      <trkpt lat="45.68808" lon="3.16344">
        <ele>408.180023</ele>
        <time>2010-03-06T09:08:30Z</time>
      </trkpt>
      <trkpt lat="45.68816" lon="3.16347">
        <ele>407.240875</ele>
        <time>2010-03-06T09:08:37Z</time>
      </trkpt>
      <trkpt lat="45.68826" lon="3.16351">
        <ele>406.254395</ele>
        <time>2010-03-06T09:08:45Z</time>
      </trkpt>
      <trkpt lat="45.68835" lon="3.16353">
        <ele>405.695801</ele>
        <time>2010-03-06T09:08:52Z</time>
      </trkpt>
      <trkpt lat="45.68845" lon="3.16355">
        <ele>405.223022</ele>
        <time>2010-03-06T09:08:59Z</time>
      </trkpt>
      <trkpt lat="45.68854" lon="3.16355">
        <ele>404.809174</ele>
        <time>2010-03-06T09:09:06Z</time>
      </trkpt>
      <trkpt lat="45.68864" lon="3.16358">
        <ele>404.313751</ele>
        <time>2010-03-06T09:09:14Z</time>
      </trkpt>
      <trkpt lat="45.68874" lon="3.16361">
        <ele>403.768738</ele>
        <time>2010-03-06T09:09:23Z</time>
      </trkpt>
      <trkpt lat="45.68884" lon="3.16362">
        <ele>403.127502</ele>
        <time>2010-03-06T09:09:33Z</time>
      </trkpt>
      <trkpt lat="45.68888" lon="3.16349">
        <ele>403.117523</ele>
        <time>2010-03-06T09:09:42Z</time>
      </trkpt>
      <trkpt lat="45.68889" lon="3.16335">
        <ele>403.29538</ele>
        <time>2010-03-06T09:09:54Z</time>
      </trkpt>
      <trkpt lat="45.68893" lon="3.16323">
        <ele>403.40506</ele>
        <time>2010-03-06T09:10:02Z</time>
      </trkpt>
      <trkpt lat="45.68895" lon="3.1631">
        <ele>403.566681</ele>
        <time>2010-03-06T09:10:09Z</time>
      </trkpt>
      <trkpt lat="45.68899" lon="3.16297">
        <ele>403.714661</ele>
        <time>2010-03-06T09:10:17Z</time>
      </trkpt>
      <trkpt lat="45.68902" lon="3.16284">
        <ele>403.989532</ele>
        <time>2010-03-06T09:10:25Z</time>
      </trkpt>
      <trkpt lat="45.68905" lon="3.1627">
        <ele>404.384216</ele>
        <time>2010-03-06T09:10:34Z</time>
      </trkpt>
      <trkpt lat="45.68908" lon="3.16257">
        <ele>404.670166</ele>
        <time>2010-03-06T09:10:43Z</time>
      </trkpt>
      <trkpt lat="45.68916" lon="3.16249">
        <ele>404.464661</ele>
        <time>2010-03-06T09:10:54Z</time>
      </trkpt>
      <trkpt lat="45.68926" lon="3.16253">
        <ele>403.810638</ele>
        <time>2010-03-06T09:11:06Z</time>
      </trkpt>
      <trkpt lat="45.68935" lon="3.16256">
        <ele>403.183136</ele>
        <time>2010-03-06T09:11:13Z</time>
      </trkpt>
      <trkpt lat="45.68945" lon="3.1626">
        <ele>402.533081</ele>
        <time>2010-03-06T09:11:21Z</time>
      </trkpt>
      <trkpt lat="45.68954" lon="3.16264">
        <ele>401.892151</ele>
        <time>2010-03-06T09:11:28Z</time>
      </trkpt>
      <trkpt lat="45.68962" lon="3.16267">
        <ele>401.236481</ele>
        <time>2010-03-06T09:11:35Z</time>
      </trkpt>
      <trkpt lat="45.68971" lon="3.16271">
        <ele>400.354218</ele>
        <time>2010-03-06T09:11:42Z</time>
      </trkpt>
      <trkpt lat="45.68981" lon="3.16274">
        <ele>399.401581</ele>
        <time>2010-03-06T09:11:49Z</time>
      </trkpt>
      <trkpt lat="45.68991" lon="3.16276">
        <ele>398.426941</ele>
        <time>2010-03-06T09:11:57Z</time>
      </trkpt>
      <trkpt lat="45.69" lon="3.1628">
        <ele>397.499207</ele>
        <time>2010-03-06T09:12:04Z</time>
      </trkpt>
      <trkpt lat="45.6901" lon="3.16283">
        <ele>396.521484</ele>
        <time>2010-03-06T09:12:12Z</time>
      </trkpt>
      <trkpt lat="45.69019" lon="3.16287">
        <ele>395.646973</ele>
        <time>2010-03-06T09:12:21Z</time>
      </trkpt>
      <trkpt lat="45.69029" lon="3.1629">
        <ele>394.813019</ele>
        <time>2010-03-06T09:12:31Z</time>
      </trkpt>
      <trkpt lat="45.69038" lon="3.16293">
        <ele>394.02713</ele>
        <time>2010-03-06T09:12:38Z</time>
      </trkpt>
      <trkpt lat="45.69047" lon="3.16297">
        <ele>393.26001</ele>
        <time>2010-03-06T09:12:46Z</time>
      </trkpt>
      <trkpt lat="45.69056" lon="3.163">
        <ele>392.565277</ele>
        <time>2010-03-06T09:12:54Z</time>
      </trkpt>
      <trkpt lat="45.69066" lon="3.16304">
        <ele>391.862</ele>
        <time>2010-03-06T09:13:02Z</time>
      </trkpt>
      <trkpt lat="45.69075" lon="3.16308">
        <ele>391.2164</ele>
        <time>2010-03-06T09:13:09Z</time>
      </trkpt>
      <trkpt lat="45.69083" lon="3.16312">
        <ele>390.580902</ele>
        <time>2010-03-06T09:13:17Z</time>
      </trkpt>
      <trkpt lat="45.69093" lon="3.16314">
        <ele>389.936279</ele>
        <time>2010-03-06T09:13:26Z</time>
      </trkpt>
      <trkpt lat="45.691" lon="3.16305">
        <ele>389.653992</ele>
        <time>2010-03-06T09:13:33Z</time>
      </trkpt>
      <trkpt lat="45.69105" lon="3.16292">
        <ele>389.556244</ele>
        <time>2010-03-06T09:13:40Z</time>
      </trkpt>
      <trkpt lat="45.6911" lon="3.1628">
        <ele>389.423737</ele>
        <time>2010-03-06T09:13:49Z</time>
      </trkpt>
      <trkpt lat="45.69114" lon="3.16268">
        <ele>389.321259</ele>
        <time>2010-03-06T09:13:56Z</time>
      </trkpt>
      <trkpt lat="45.6912" lon="3.16257">
        <ele>389.11499</ele>
        <time>2010-03-06T09:14:03Z</time>
      </trkpt>
      <trkpt lat="45.69128" lon="3.1625">
        <ele>388.682495</ele>
        <time>2010-03-06T09:14:11Z</time>
      </trkpt>
      <trkpt lat="45.69137" lon="3.16246">
        <ele>388.131256</ele>
        <time>2010-03-06T09:14:19Z</time>
      </trkpt>
      <trkpt lat="45.69147" lon="3.16243">
        <ele>387.467285</ele>
        <time>2010-03-06T09:14:26Z</time>
      </trkpt>
      <trkpt lat="45.69156" lon="3.16238">
        <ele>386.771667</ele>
        <time>2010-03-06T09:14:33Z</time>
      </trkpt>
      <trkpt lat="45.69165" lon="3.16233">
        <ele>386.05484</ele>
        <time>2010-03-06T09:14:40Z</time>
      </trkpt>
      <trkpt lat="45.69173" lon="3.16228">
        <ele>385.356262</ele>
        <time>2010-03-06T09:14:47Z</time>
      </trkpt>
      <trkpt lat="45.69182" lon="3.16221">
        <ele>384.748749</ele>
        <time>2010-03-06T09:14:54Z</time>
      </trkpt>
      <trkpt lat="45.6919" lon="3.16212">
        <ele>384.188477</ele>
        <time>2010-03-06T09:15:02Z</time>
      </trkpt>
      <trkpt lat="45.69196" lon="3.16202">
        <ele>383.858734</ele>
        <time>2010-03-06T09:15:09Z</time>
      </trkpt>
      <trkpt lat="45.692" lon="3.16189">
        <ele>383.670715</ele>
        <time>2010-03-06T09:15:16Z</time>
      </trkpt>
      <trkpt lat="45.69204" lon="3.16176">
        <ele>383.551086</ele>
        <time>2010-03-06T09:15:23Z</time>
      </trkpt>
      <trkpt lat="45.69206" lon="3.16163">
        <ele>383.355774</ele>
        <time>2010-03-06T09:15:30Z</time>
      </trkpt>
      <trkpt lat="45.69208" lon="3.16149">
        <ele>383.082031</ele>
        <time>2010-03-06T09:15:37Z</time>
      </trkpt>
      <trkpt lat="45.6921" lon="3.16135">
        <ele>382.815704</ele>
        <time>2010-03-06T09:15:44Z</time>
      </trkpt>
      <trkpt lat="45.69211" lon="3.16122">
        <ele>382.623718</ele>
        <time>2010-03-06T09:15:51Z</time>
      </trkpt>
      <trkpt lat="45.69214" lon="3.16107">
        <ele>382.353363</ele>
        <time>2010-03-06T09:15:59Z</time>
      </trkpt>
      <trkpt lat="45.69215" lon="3.16093">
        <ele>382.068756</ele>
        <time>2010-03-06T09:16:06Z</time>
      </trkpt>
      <trkpt lat="45.69217" lon="3.16079">
        <ele>381.731262</ele>
        <time>2010-03-06T09:16:13Z</time>
      </trkpt>
      <trkpt lat="45.69219" lon="3.16065">
        <ele>381.401245</ele>
        <time>2010-03-06T09:16:20Z</time>
      </trkpt>
      <trkpt lat="45.69221" lon="3.16053">
        <ele>381.040009</ele>
        <time>2010-03-06T09:16:27Z</time>
      </trkpt>
      <trkpt lat="45.69225" lon="3.16039">
        <ele>380.588745</ele>
        <time>2010-03-06T09:16:34Z</time>
      </trkpt>
      <trkpt lat="45.69227" lon="3.16026">
        <ele>380.227509</ele>
        <time>2010-03-06T09:16:40Z</time>
      </trkpt>
      <trkpt lat="45.6923" lon="3.16012">
        <ele>379.837494</ele>
        <time>2010-03-06T09:16:47Z</time>
      </trkpt>
      <trkpt lat="45.69233" lon="3.15999">
        <ele>379.424988</ele>
        <time>2010-03-06T09:16:54Z</time>
      </trkpt>
      <trkpt lat="45.69236" lon="3.15985">
        <ele>379.012512</ele>
        <time>2010-03-06T09:17:01Z</time>
      </trkpt>
      <trkpt lat="45.69239" lon="3.15972">
        <ele>378.607208</ele>
        <time>2010-03-06T09:17:09Z</time>
      </trkpt>
      <trkpt lat="45.69245" lon="3.1596">
        <ele>378.101013</ele>
        <time>2010-03-06T09:17:16Z</time>
      </trkpt>
      <trkpt lat="45.69252" lon="3.1595">
        <ele>377.588226</ele>
        <time>2010-03-06T09:17:23Z</time>
      </trkpt>
      <trkpt lat="45.6926" lon="3.15942">
        <ele>377.098602</ele>
        <time>2010-03-06T09:17:29Z</time>
      </trkpt>
      <trkpt lat="45.69269" lon="3.15935">
        <ele>376.56189</ele>
        <time>2010-03-06T09:17:36Z</time>
      </trkpt>
      <trkpt lat="45.69278" lon="3.15929">
        <ele>376.1008</ele>
        <time>2010-03-06T09:17:43Z</time>
      </trkpt>
      <trkpt lat="45.69286" lon="3.15922">
        <ele>375.730011</ele>
        <time>2010-03-06T09:17:49Z</time>
      </trkpt>
      <trkpt lat="45.69295" lon="3.15914">
        <ele>375.339996</ele>
        <time>2010-03-06T09:17:56Z</time>
      </trkpt>
      <trkpt lat="45.69304" lon="3.15906">
        <ele>374.950012</ele>
        <time>2010-03-06T09:18:04Z</time>
      </trkpt>
      <trkpt lat="45.69312" lon="3.15899">
        <ele>374.565002</ele>
        <time>2010-03-06T09:18:13Z</time>
      </trkpt>
      <trkpt lat="45.69321" lon="3.15894">
        <ele>374.174988</ele>
        <time>2010-03-06T09:18:22Z</time>
      </trkpt>
      <trkpt lat="45.69329" lon="3.15888">
        <ele>373.848114</ele>
        <time>2010-03-06T09:18:29Z</time>
      </trkpt>
      <trkpt lat="45.69339" lon="3.15883">
        <ele>373.538696</ele>
        <time>2010-03-06T09:18:36Z</time>
      </trkpt>
      <trkpt lat="45.69348" lon="3.15877">
        <ele>373.286865</ele>
        <time>2010-03-06T09:18:43Z</time>
      </trkpt>
      <trkpt lat="45.69357" lon="3.15872">
        <ele>373.068695</ele>
        <time>2010-03-06T09:18:49Z</time>
      </trkpt>
      <trkpt lat="45.69365" lon="3.15865">
        <ele>372.927032</ele>
        <time>2010-03-06T09:18:56Z</time>
      </trkpt>
      <trkpt lat="45.69374" lon="3.15858">
        <ele>372.794922</ele>
        <time>2010-03-06T09:19:03Z</time>
      </trkpt>
      <trkpt lat="45.69383" lon="3.15854">
        <ele>372.653839</ele>
        <time>2010-03-06T09:19:10Z</time>
      </trkpt>
      <trkpt lat="45.69392" lon="3.1585">
        <ele>372.54126</ele>
        <time>2010-03-06T09:19:16Z</time>
      </trkpt>
      <trkpt lat="45.69402" lon="3.15849">
        <ele>372.334991</ele>
        <time>2010-03-06T09:19:24Z</time>
      </trkpt>
      <trkpt lat="45.69412" lon="3.15849">
        <ele>372.112488</ele>
        <time>2010-03-06T09:19:32Z</time>
      </trkpt>
      <trkpt lat="45.69421" lon="3.15851">
        <ele>371.862488</ele>
        <time>2010-03-06T09:19:39Z</time>
      </trkpt>
      <trkpt lat="45.6943" lon="3.15856">
        <ele>371.527496</ele>
        <time>2010-03-06T09:19:48Z</time>
      </trkpt>
      <trkpt lat="45.6944" lon="3.15855">
        <ele>371.350006</ele>
        <time>2010-03-06T09:20:01Z</time>
      </trkpt>
      <trkpt lat="45.69449" lon="3.15856">
        <ele>371.119995</ele>
        <time>2010-03-06T09:20:13Z</time>
      </trkpt>
      <trkpt lat="45.6946" lon="3.15854">
        <ele>370.942505</ele>
        <time>2010-03-06T09:20:23Z</time>
      </trkpt>
      <trkpt lat="45.69467" lon="3.15845">
        <ele>371.10376</ele>
        <time>2010-03-06T09:20:34Z</time>
      </trkpt>
      <trkpt lat="45.69476" lon="3.15849">
        <ele>371.049988</ele>
        <time>2010-03-06T09:20:59Z</time>
      </trkpt>
      <trkpt lat="45.69485" lon="3.1585">
        <ele>371.026245</ele>
        <time>2010-03-06T09:21:08Z</time>
      </trkpt>
      <trkpt lat="45.69494" lon="3.1585">
        <ele>371.040009</ele>
        <time>2010-03-06T09:21:16Z</time>
      </trkpt>
      <trkpt lat="45.69504" lon="3.15851">
        <ele>371.016235</ele>
        <time>2010-03-06T09:21:23Z</time>
      </trkpt>
      <trkpt lat="45.69514" lon="3.1585">
        <ele>370.842499</ele>
        <time>2010-03-06T09:21:32Z</time>
      </trkpt>
      <trkpt lat="45.69524" lon="3.15847">
        <ele>370.67749</ele>
        <time>2010-03-06T09:21:40Z</time>
      </trkpt>
      <trkpt lat="45.69533" lon="3.15843">
        <ele>370.524994</ele>
        <time>2010-03-06T09:21:48Z</time>
      </trkpt>
      <trkpt lat="45.69544" lon="3.15841">
        <ele>370.329987</ele>
        <time>2010-03-06T09:21:55Z</time>
      </trkpt>
      <trkpt lat="45.69553" lon="3.15836">
        <ele>370.389587</ele>
        <time>2010-03-06T09:22:02Z</time>
      </trkpt>
      <trkpt lat="45.69562" lon="3.15828">
        <ele>370.98465</ele>
        <time>2010-03-06T09:22:08Z</time>
      </trkpt>
      <trkpt lat="45.69571" lon="3.15822">
        <ele>371.595428</ele>
        <time>2010-03-06T09:22:12Z</time>
      </trkpt>
      <trkpt lat="45.69581" lon="3.15816">
        <ele>372.300049</ele>
        <time>2010-03-06T09:22:16Z</time>
      </trkpt>
      <trkpt lat="45.69589" lon="3.15824">
        <ele>372.541748</ele>
        <time>2010-03-06T09:22:20Z</time>
      </trkpt>
      <trkpt lat="45.69591" lon="3.15837">
        <ele>372.308563</ele>
        <time>2010-03-06T09:22:23Z</time>
      </trkpt>
      <trkpt lat="45.69596" lon="3.15852">
        <ele>372.07016</ele>
        <time>2010-03-06T09:22:27Z</time>
      </trkpt>
      <trkpt lat="45.696" lon="3.15867">
        <ele>371.84906</ele>
        <time>2010-03-06T09:22:31Z</time>
      </trkpt>
      <trkpt lat="45.69603" lon="3.1588">
        <ele>371.545135</ele>
        <time>2010-03-06T09:22:34Z</time>
      </trkpt>
      <trkpt lat="45.69607" lon="3.15895">
        <ele>371.168518</ele>
        <time>2010-03-06T09:22:38Z</time>
      </trkpt>
      <trkpt lat="45.69612" lon="3.15908">
        <ele>370.82489</ele>
        <time>2010-03-06T09:22:41Z</time>
      </trkpt>
      <trkpt lat="45.69619" lon="3.15922">
        <ele>370.475006</ele>
        <time>2010-03-06T09:22:45Z</time>
      </trkpt>
      <trkpt lat="45.69625" lon="3.15938">
        <ele>370.380005</ele>
        <time>2010-03-06T09:22:49Z</time>
      </trkpt>
      <trkpt lat="45.69629" lon="3.15954">
        <ele>370.216248</ele>
        <time>2010-03-06T09:22:53Z</time>
      </trkpt>
      <trkpt lat="45.6963" lon="3.15967">
        <ele>370.037506</ele>
        <time>2010-03-06T09:22:56Z</time>
      </trkpt>
      <trkpt lat="45.69635" lon="3.15979">
        <ele>369.953735</ele>
        <time>2010-03-06T09:23:00Z</time>
      </trkpt>
      <trkpt lat="45.69642" lon="3.15988">
        <ele>369.920013</ele>
        <time>2010-03-06T09:23:07Z</time>
      </trkpt>
      <trkpt lat="45.69648" lon="3.15998">
        <ele>369.767487</ele>
        <time>2010-03-06T09:23:14Z</time>
      </trkpt>
      <trkpt lat="45.69654" lon="3.16012">
        <ele>369.546265</ele>
        <time>2010-03-06T09:23:22Z</time>
      </trkpt>
      <trkpt lat="45.69659" lon="3.16024">
        <ele>369.36499</ele>
        <time>2010-03-06T09:23:28Z</time>
      </trkpt>
      <trkpt lat="45.69666" lon="3.16035">
        <ele>369.184998</ele>
        <time>2010-03-06T09:23:34Z</time>
      </trkpt>
      <trkpt lat="45.69675" lon="3.1604">
        <ele>369.116241</ele>
        <time>2010-03-06T09:23:41Z</time>
      </trkpt>
      <trkpt lat="45.69685" lon="3.1604">
        <ele>369.104767</ele>
        <time>2010-03-06T09:23:48Z</time>
      </trkpt>
      <trkpt lat="45.69694" lon="3.16038">
        <ele>368.893158</ele>
        <time>2010-03-06T09:23:54Z</time>
      </trkpt>
      <trkpt lat="45.69705" lon="3.16037">
        <ele>368.612274</ele>
        <time>2010-03-06T09:24:00Z</time>
      </trkpt>
      <trkpt lat="45.69715" lon="3.16037">
        <ele>368.35318</ele>
        <time>2010-03-06T09:24:04Z</time>
      </trkpt>
      <trkpt lat="45.69725" lon="3.16035">
        <ele>368.11087</ele>
        <time>2010-03-06T09:24:10Z</time>
      </trkpt>
      <trkpt lat="45.69735" lon="3.16035">
        <ele>367.869995</ele>
        <time>2010-03-06T09:24:16Z</time>
      </trkpt>
      <trkpt lat="45.69745" lon="3.16033">
        <ele>367.644989</ele>
        <time>2010-03-06T09:24:21Z</time>
      </trkpt>
      <trkpt lat="45.69754" lon="3.16032">
        <ele>367.434998</ele>
        <time>2010-03-06T09:24:28Z</time>
      </trkpt>
      <trkpt lat="45.69764" lon="3.16032">
        <ele>367.212494</ele>
        <time>2010-03-06T09:24:35Z</time>
      </trkpt>
      <trkpt lat="45.69774" lon="3.16027">
        <ele>367.002502</ele>
        <time>2010-03-06T09:24:39Z</time>
      </trkpt>
      <trkpt lat="45.69783" lon="3.16026">
        <ele>367</ele>
        <time>2010-03-06T09:24:44Z</time>
      </trkpt>
      <trkpt lat="45.69793" lon="3.16026">
        <ele>367</ele>
        <time>2010-03-06T09:24:51Z</time>
      </trkpt>
      <trkpt lat="45.69804" lon="3.16025">
        <ele>367</ele>
        <time>2010-03-06T09:24:59Z</time>
      </trkpt>
      <trkpt lat="45.69814" lon="3.16024">
        <ele>367</ele>
        <time>2010-03-06T09:25:05Z</time>
      </trkpt>
      <trkpt lat="45.69823" lon="3.16019">
        <ele>367.087494</ele>
        <time>2010-03-06T09:25:12Z</time>
      </trkpt>
      <trkpt lat="45.69832" lon="3.16017">
        <ele>367.297485</ele>
        <time>2010-03-06T09:25:19Z</time>
      </trkpt>
      <trkpt lat="45.69841" lon="3.16013">
        <ele>367.492493</ele>
        <time>2010-03-06T09:25:25Z</time>
      </trkpt>
      <trkpt lat="45.69851" lon="3.1601">
        <ele>367.714996</ele>
        <time>2010-03-06T09:25:31Z</time>
      </trkpt>
      <trkpt lat="45.69861" lon="3.16008">
        <ele>367.924988</ele>
        <time>2010-03-06T09:25:37Z</time>
      </trkpt>
      <trkpt lat="45.6987" lon="3.16004">
        <ele>368.393463</ele>
        <time>2010-03-06T09:25:43Z</time>
      </trkpt>
      <trkpt lat="45.6988" lon="3.16">
        <ele>369.102844</ele>
        <time>2010-03-06T09:25:50Z</time>
      </trkpt>
      <trkpt lat="45.69889" lon="3.15995">
        <ele>369.739227</ele>
        <time>2010-03-06T09:25:57Z</time>
      </trkpt>
      <trkpt lat="45.69898" lon="3.15991">
        <ele>370.30719</ele>
        <time>2010-03-06T09:26:04Z</time>
      </trkpt>
      <trkpt lat="45.69909" lon="3.15989">
        <ele>370.985779</ele>
        <time>2010-03-06T09:26:11Z</time>
      </trkpt>
      <trkpt lat="45.69919" lon="3.15986">
        <ele>371.814911</ele>
        <time>2010-03-06T09:26:18Z</time>
      </trkpt>
      <trkpt lat="45.69928" lon="3.15982">
        <ele>372.519897</ele>
        <time>2010-03-06T09:26:25Z</time>
      </trkpt>
      <trkpt lat="45.69938" lon="3.15979">
        <ele>373.298431</ele>
        <time>2010-03-06T09:26:34Z</time>
      </trkpt>
      <trkpt lat="45.69947" lon="3.15976">
        <ele>374.030731</ele>
        <time>2010-03-06T09:26:42Z</time>
      </trkpt>
      <trkpt lat="45.69956" lon="3.15972">
        <ele>374.631409</ele>
        <time>2010-03-06T09:26:50Z</time>
      </trkpt>
      <trkpt lat="45.69965" lon="3.15964">
        <ele>374.913605</ele>
        <time>2010-03-06T09:26:59Z</time>
      </trkpt>
      <trkpt lat="45.69974" lon="3.1596">
        <ele>375.251862</ele>
        <time>2010-03-06T09:27:06Z</time>
      </trkpt>
      <trkpt lat="45.69985" lon="3.15958">
        <ele>375.781464</ele>
        <time>2010-03-06T09:27:14Z</time>
      </trkpt>
      <trkpt lat="45.69995" lon="3.1596">
        <ele>376.424835</ele>
        <time>2010-03-06T09:27:21Z</time>
      </trkpt>
      <trkpt lat="45.70005" lon="3.15957">
        <ele>376.805847</ele>
        <time>2010-03-06T09:27:25Z</time>
      </trkpt>
      <trkpt lat="45.70016" lon="3.15953">
        <ele>377.024689</ele>
        <time>2010-03-06T09:27:29Z</time>
      </trkpt>
      <trkpt lat="45.70025" lon="3.15949">
        <ele>377.174988</ele>
        <time>2010-03-06T09:27:32Z</time>
      </trkpt>
      <trkpt lat="45.70035" lon="3.15947">
        <ele>377.411621</ele>
        <time>2010-03-06T09:27:35Z</time>
      </trkpt>
      <trkpt lat="45.70045" lon="3.15947">
        <ele>377.78125</ele>
        <time>2010-03-06T09:27:38Z</time>
      </trkpt>
      <trkpt lat="45.70054" lon="3.15947">
        <ele>378.197266</ele>
        <time>2010-03-06T09:27:41Z</time>
      </trkpt>
      <trkpt lat="45.70065" lon="3.15944">
        <ele>378.514557</ele>
        <time>2010-03-06T09:27:45Z</time>
      </trkpt>
      <trkpt lat="45.70075" lon="3.1594">
        <ele>378.69223</ele>
        <time>2010-03-06T09:27:51Z</time>
      </trkpt>
      <trkpt lat="45.70083" lon="3.15934">
        <ele>378.509705</ele>
        <time>2010-03-06T09:27:58Z</time>
      </trkpt>
      <trkpt lat="45.70091" lon="3.15925">
        <ele>377.920471</ele>
        <time>2010-03-06T09:28:05Z</time>
      </trkpt>
      <trkpt lat="45.70101" lon="3.15925">
        <ele>377.468292</ele>
        <time>2010-03-06T09:28:13Z</time>
      </trkpt>
      <trkpt lat="45.70109" lon="3.15914">
        <ele>376.847473</ele>
        <time>2010-03-06T09:28:18Z</time>
      </trkpt>
      <trkpt lat="45.70116" lon="3.15906">
        <ele>376.444855</ele>
        <time>2010-03-06T09:28:24Z</time>
      </trkpt>
      <trkpt lat="45.70126" lon="3.159">
        <ele>376.159729</ele>
        <time>2010-03-06T09:28:31Z</time>
      </trkpt>
      <trkpt lat="45.70135" lon="3.15891">
        <ele>376.001801</ele>
        <time>2010-03-06T09:28:38Z</time>
      </trkpt>
      <trkpt lat="45.70143" lon="3.15882">
        <ele>376</ele>
        <time>2010-03-06T09:28:45Z</time>
      </trkpt>
      <trkpt lat="45.7015" lon="3.15873">
        <ele>376</ele>
        <time>2010-03-06T09:28:52Z</time>
      </trkpt>
      <trkpt lat="45.70159" lon="3.15865">
        <ele>376</ele>
        <time>2010-03-06T09:28:59Z</time>
      </trkpt>
      <trkpt lat="45.70167" lon="3.1586">
        <ele>376.059998</ele>
        <time>2010-03-06T09:29:05Z</time>
      </trkpt>
      <trkpt lat="45.70177" lon="3.15857">
        <ele>376.17749</ele>
        <time>2010-03-06T09:29:12Z</time>
      </trkpt>
      <trkpt lat="45.70186" lon="3.15852">
        <ele>376.278961</ele>
        <time>2010-03-06T09:29:18Z</time>
      </trkpt>
      <trkpt lat="45.70195" lon="3.15849">
        <ele>376.291443</ele>
        <time>2010-03-06T09:29:24Z</time>
      </trkpt>
      <trkpt lat="45.70204" lon="3.15844">
        <ele>376.26825</ele>
        <time>2010-03-06T09:29:31Z</time>
      </trkpt>
      <trkpt lat="45.70215" lon="3.15838">
        <ele>376.185242</ele>
        <time>2010-03-06T09:29:38Z</time>
      </trkpt>
      <trkpt lat="45.70223" lon="3.15831">
        <ele>376.057922</ele>
        <time>2010-03-06T09:29:44Z</time>
      </trkpt>
      <trkpt lat="45.70231" lon="3.15823">
        <ele>375.875</ele>
        <time>2010-03-06T09:29:51Z</time>
      </trkpt>
      <trkpt lat="45.7024" lon="3.15817">
        <ele>375.667511</ele>
        <time>2010-03-06T09:29:58Z</time>
      </trkpt>
      <trkpt lat="45.7025" lon="3.15812">
        <ele>375.459991</ele>
        <time>2010-03-06T09:30:06Z</time>
      </trkpt>
      <trkpt lat="45.70259" lon="3.15808">
        <ele>375.25</ele>
        <time>2010-03-06T09:30:13Z</time>
      </trkpt>
      <trkpt lat="45.70268" lon="3.15805">
        <ele>375.054993</ele>
        <time>2010-03-06T09:30:19Z</time>
      </trkpt>
      <trkpt lat="45.70277" lon="3.15798">
        <ele>374.881256</ele>
        <time>2010-03-06T09:30:26Z</time>
      </trkpt>
      <trkpt lat="45.70279" lon="3.15784">
        <ele>375.05249</ele>
        <time>2010-03-06T09:30:34Z</time>
      </trkpt>
      <trkpt lat="45.70279" lon="3.1577">
        <ele>375.29126</ele>
        <time>2010-03-06T09:30:42Z</time>
      </trkpt>
      <trkpt lat="45.7028" lon="3.15755">
        <ele>375.488739</ele>
        <time>2010-03-06T09:30:50Z</time>
      </trkpt>
      <trkpt lat="45.70281" lon="3.15742">
        <ele>375.6875</ele>
        <time>2010-03-06T09:30:59Z</time>
      </trkpt>
      <trkpt lat="45.70277" lon="3.15729">
        <ele>375.954987</ele>
        <time>2010-03-06T09:31:05Z</time>
      </trkpt>
      <trkpt lat="45.70273" lon="3.15716">
        <ele>376.264984</ele>
        <time>2010-03-06T09:31:11Z</time>
      </trkpt>
      <trkpt lat="45.7027" lon="3.15702">
        <ele>376.546265</ele>
        <time>2010-03-06T09:31:17Z</time>
      </trkpt>
      <trkpt lat="45.70268" lon="3.15688">
        <ele>376.811249</ele>
        <time>2010-03-06T09:31:24Z</time>
      </trkpt>
      <trkpt lat="45.70263" lon="3.15674">
        <ele>377.13501</ele>
        <time>2010-03-06T09:31:29Z</time>
      </trkpt>
      <trkpt lat="45.70262" lon="3.15661">
        <ele>377.204987</ele>
        <time>2010-03-06T09:31:35Z</time>
      </trkpt>
      <trkpt lat="45.70263" lon="3.15647">
        <ele>377.190002</ele>
        <time>2010-03-06T09:31:42Z</time>
      </trkpt>
      <trkpt lat="45.70262" lon="3.15632">
        <ele>377.209991</ele>
        <time>2010-03-06T09:31:50Z</time>
      </trkpt>
      <trkpt lat="45.7026" lon="3.15618">
        <ele>377.267487</ele>
        <time>2010-03-06T09:31:58Z</time>
      </trkpt>
      <trkpt lat="45.70254" lon="3.15601">
        <ele>377.491241</ele>
        <time>2010-03-06T09:32:02Z</time>
      </trkpt>
      <trkpt lat="45.70249" lon="3.15587">
        <ele>377.8125</ele>
        <time>2010-03-06T09:32:06Z</time>
      </trkpt>
      <trkpt lat="45.70242" lon="3.15574">
        <ele>378.175018</ele>
        <time>2010-03-06T09:32:10Z</time>
      </trkpt>
      <trkpt lat="45.70235" lon="3.15561">
        <ele>378.54248</ele>
        <time>2010-03-06T09:32:14Z</time>
      </trkpt>
      <trkpt lat="45.70229" lon="3.15547">
        <ele>378.889984</ele>
        <time>2010-03-06T09:32:18Z</time>
      </trkpt>
      <trkpt lat="45.70225" lon="3.15531">
        <ele>379.041748</ele>
        <time>2010-03-06T09:32:22Z</time>
      </trkpt>
      <trkpt lat="45.70222" lon="3.15519">
        <ele>379.078552</ele>
        <time>2010-03-06T09:32:25Z</time>
      </trkpt>
      <trkpt lat="45.70218" lon="3.15503">
        <ele>379.087738</ele>
        <time>2010-03-06T09:32:28Z</time>
      </trkpt>
      <trkpt lat="45.70215" lon="3.15489">
        <ele>379.053101</ele>
        <time>2010-03-06T09:32:31Z</time>
      </trkpt>
      <trkpt lat="45.7021" lon="3.15478">
        <ele>379</ele>
        <time>2010-03-06T09:32:33Z</time>
      </trkpt>
      <trkpt lat="45.70206" lon="3.15462">
        <ele>379</ele>
        <time>2010-03-06T09:32:36Z</time>
      </trkpt>
      <trkpt lat="45.70204" lon="3.15448">
        <ele>379</ele>
        <time>2010-03-06T09:32:39Z</time>
      </trkpt>
      <trkpt lat="45.70203" lon="3.15434">
        <ele>379</ele>
        <time>2010-03-06T09:32:42Z</time>
      </trkpt>
      <trkpt lat="45.702" lon="3.15418">
        <ele>379</ele>
        <time>2010-03-06T09:32:45Z</time>
      </trkpt>
      <trkpt lat="45.70197" lon="3.15404">
        <ele>378.956879</ele>
        <time>2010-03-06T09:32:48Z</time>
      </trkpt>
      <trkpt lat="45.70194" lon="3.15391">
        <ele>378.922638</ele>
        <time>2010-03-06T09:32:51Z</time>
      </trkpt>
      <trkpt lat="45.70192" lon="3.15378">
        <ele>378.899628</ele>
        <time>2010-03-06T09:32:55Z</time>
      </trkpt>
      <trkpt lat="45.70192" lon="3.15363">
        <ele>378.85849</ele>
        <time>2010-03-06T09:32:59Z</time>
      </trkpt>
      <trkpt lat="45.70198" lon="3.15351">
        <ele>378.704163</ele>
        <time>2010-03-06T09:33:03Z</time>
      </trkpt>
      <trkpt lat="45.70204" lon="3.15339">
        <ele>378.539825</ele>
        <time>2010-03-06T09:33:06Z</time>
      </trkpt>
      <trkpt lat="45.70215" lon="3.15327">
        <ele>378.447632</ele>
        <time>2010-03-06T09:33:09Z</time>
      </trkpt>
      <trkpt lat="45.70225" lon="3.15317">
        <ele>378.50705</ele>
        <time>2010-03-06T09:33:11Z</time>
      </trkpt>
      <trkpt lat="45.70235" lon="3.15307">
        <ele>378.892517</ele>
        <time>2010-03-06T09:33:13Z</time>
      </trkpt>
      <trkpt lat="45.70246" lon="3.15297">
        <ele>379.504211</ele>
        <time>2010-03-06T09:33:15Z</time>
      </trkpt>
      <trkpt lat="45.70256" lon="3.15287">
        <ele>380.154114</ele>
        <time>2010-03-06T09:33:17Z</time>
      </trkpt>
      <trkpt lat="45.70264" lon="3.15278">
        <ele>380.971558</ele>
        <time>2010-03-06T09:33:19Z</time>
      </trkpt>
      <trkpt lat="45.70272" lon="3.15269">
        <ele>381.937805</ele>
        <time>2010-03-06T09:33:21Z</time>
      </trkpt>
      <trkpt lat="45.70281" lon="3.1526">
        <ele>383.42038</ele>
        <time>2010-03-06T09:33:23Z</time>
      </trkpt>
      <trkpt lat="45.70291" lon="3.1525">
        <ele>385.305634</ele>
        <time>2010-03-06T09:33:25Z</time>
      </trkpt>
      <trkpt lat="45.70299" lon="3.15241">
        <ele>386.877991</ele>
        <time>2010-03-06T09:33:27Z</time>
      </trkpt>
      <trkpt lat="45.70308" lon="3.1523">
        <ele>388.850769</ele>
        <time>2010-03-06T09:33:30Z</time>
      </trkpt>
      <trkpt lat="45.70318" lon="3.15223">
        <ele>390.745453</ele>
        <time>2010-03-06T09:33:34Z</time>
      </trkpt>
      <trkpt lat="45.70325" lon="3.15213">
        <ele>391.649994</ele>
        <time>2010-03-06T09:33:39Z</time>
      </trkpt>
      <trkpt lat="45.70335" lon="3.15205">
        <ele>392.570007</ele>
        <time>2010-03-06T09:33:44Z</time>
      </trkpt>
      <trkpt lat="45.70344" lon="3.15196">
        <ele>393.394989</ele>
        <time>2010-03-06T09:33:49Z</time>
      </trkpt>
      <trkpt lat="45.70352" lon="3.15188">
        <ele>394.190002</ele>
        <time>2010-03-06T09:33:53Z</time>
      </trkpt>
      <trkpt lat="45.70361" lon="3.15179">
        <ele>395.059998</ele>
        <time>2010-03-06T09:33:57Z</time>
      </trkpt>
      <trkpt lat="45.70368" lon="3.15171">
        <ele>395.630402</ele>
        <time>2010-03-06T09:34:01Z</time>
      </trkpt>
      <trkpt lat="45.70376" lon="3.15163">
        <ele>395.887329</ele>
        <time>2010-03-06T09:34:07Z</time>
      </trkpt>
      <trkpt lat="45.70383" lon="3.15154">
        <ele>396.076263</ele>
        <time>2010-03-06T09:34:15Z</time>
      </trkpt>
      <trkpt lat="45.70392" lon="3.15144">
        <ele>396.232513</ele>
        <time>2010-03-06T09:34:23Z</time>
      </trkpt>
      <trkpt lat="45.70401" lon="3.15141">
        <ele>396.29126</ele>
        <time>2010-03-06T09:34:30Z</time>
      </trkpt>
      <trkpt lat="45.70409" lon="3.15151">
        <ele>396.138763</ele>
        <time>2010-03-06T09:34:38Z</time>
      </trkpt>
      <trkpt lat="45.70417" lon="3.15159">
        <ele>395.856171</ele>
        <time>2010-03-06T09:34:45Z</time>
      </trkpt>
      <trkpt lat="45.70426" lon="3.15163">
        <ele>395.611145</ele>
        <time>2010-03-06T09:35:08Z</time>
      </trkpt>
      <trkpt lat="45.70424" lon="3.1515">
        <ele>395.815155</ele>
        <time>2010-03-06T09:35:38Z</time>
      </trkpt>
      <trkpt lat="45.70419" lon="3.15137">
        <ele>396.087769</ele>
        <time>2010-03-06T09:36:27Z</time>
      </trkpt>
      <trkpt lat="45.70417" lon="3.15123">
        <ele>396.362366</ele>
        <time>2010-03-06T09:36:36Z</time>
      </trkpt>
      <trkpt lat="45.70415" lon="3.15109">
        <ele>396.619904</ele>
        <time>2010-03-06T09:36:46Z</time>
      </trkpt>
      <trkpt lat="45.70418" lon="3.15096">
        <ele>396.674744</ele>
        <time>2010-03-06T09:37:01Z</time>
      </trkpt>
      <trkpt lat="45.70416" lon="3.15082">
        <ele>397.200928</ele>
        <time>2010-03-06T09:37:09Z</time>
      </trkpt>
      <trkpt lat="45.70413" lon="3.15068">
        <ele>397.764587</ele>
        <time>2010-03-06T09:37:18Z</time>
      </trkpt>
      <trkpt lat="45.70412" lon="3.15054">
        <ele>398.282257</ele>
        <time>2010-03-06T09:37:27Z</time>
      </trkpt>
      <trkpt lat="45.7041" lon="3.15039">
        <ele>398.747498</ele>
        <time>2010-03-06T09:37:36Z</time>
      </trkpt>
      <trkpt lat="45.70407" lon="3.15027">
        <ele>399.200226</ele>
        <time>2010-03-06T09:37:44Z</time>
      </trkpt>
      <trkpt lat="45.70406" lon="3.15012">
        <ele>399.846008</ele>
        <time>2010-03-06T09:37:53Z</time>
      </trkpt>
      <trkpt lat="45.70404" lon="3.14999">
        <ele>400.428131</ele>
        <time>2010-03-06T09:38:01Z</time>
      </trkpt>
      <trkpt lat="45.70401" lon="3.14985">
        <ele>400.966614</ele>
        <time>2010-03-06T09:38:09Z</time>
      </trkpt>
      <trkpt lat="45.70398" lon="3.14972">
        <ele>401.494293</ele>
        <time>2010-03-06T09:38:17Z</time>
      </trkpt>
      <trkpt lat="45.70395" lon="3.14958">
        <ele>401.929413</ele>
        <time>2010-03-06T09:38:25Z</time>
      </trkpt>
      <trkpt lat="45.70391" lon="3.14945">
        <ele>402.373108</ele>
        <time>2010-03-06T09:38:33Z</time>
      </trkpt>
      <trkpt lat="45.70386" lon="3.14931">
        <ele>402.839325</ele>
        <time>2010-03-06T09:38:42Z</time>
      </trkpt>
      <trkpt lat="45.70381" lon="3.1492">
        <ele>403.273041</ele>
        <time>2010-03-06T09:38:50Z</time>
      </trkpt>
      <trkpt lat="45.70375" lon="3.1491">
        <ele>403.665131</ele>
        <time>2010-03-06T09:38:57Z</time>
      </trkpt>
      <trkpt lat="45.70368" lon="3.149">
        <ele>404.100403</ele>
        <time>2010-03-06T09:39:05Z</time>
      </trkpt>
      <trkpt lat="45.70361" lon="3.14891">
        <ele>404.517487</ele>
        <time>2010-03-06T09:39:12Z</time>
      </trkpt>
      <trkpt lat="45.70353" lon="3.14884">
        <ele>404.84375</ele>
        <time>2010-03-06T09:39:20Z</time>
      </trkpt>
      <trkpt lat="45.70344" lon="3.14878">
        <ele>405.132507</ele>
        <time>2010-03-06T09:39:28Z</time>
      </trkpt>
      <trkpt lat="45.70334" lon="3.14873">
        <ele>405.334991</ele>
        <time>2010-03-06T09:39:36Z</time>
      </trkpt>
      <trkpt lat="45.70325" lon="3.14866">
        <ele>405.665009</ele>
        <time>2010-03-06T09:39:45Z</time>
      </trkpt>
      <trkpt lat="45.70321" lon="3.14853">
        <ele>406.184998</ele>
        <time>2010-03-06T09:39:53Z</time>
      </trkpt>
      <trkpt lat="45.70317" lon="3.14841">
        <ele>406.598755</ele>
        <time>2010-03-06T09:40:01Z</time>
      </trkpt>
      <trkpt lat="45.7032" lon="3.14828">
        <ele>407.152496</ele>
        <time>2010-03-06T09:40:39Z</time>
      </trkpt>
      <trkpt lat="45.7033" lon="3.14831">
        <ele>407.218719</ele>
        <time>2010-03-06T09:41:22Z</time>
      </trkpt>
      <trkpt lat="45.7034" lon="3.14833">
        <ele>407.17868</ele>
        <time>2010-03-06T09:41:30Z</time>
      </trkpt>
      <trkpt lat="45.70349" lon="3.14835">
        <ele>407.094086</ele>
        <time>2010-03-06T09:41:38Z</time>
      </trkpt>
      <trkpt lat="45.70359" lon="3.14837">
        <ele>407.031708</ele>
        <time>2010-03-06T09:41:47Z</time>
      </trkpt>
      <trkpt lat="45.70369" lon="3.14836">
        <ele>407.038757</ele>
        <time>2010-03-06T09:41:56Z</time>
      </trkpt>
      <trkpt lat="45.70379" lon="3.14835">
        <ele>406.875</ele>
        <time>2010-03-06T09:42:04Z</time>
      </trkpt>
      <trkpt lat="45.70388" lon="3.14833">
        <ele>406.798767</ele>
        <time>2010-03-06T09:42:23Z</time>
      </trkpt>
      <trkpt lat="45.70398" lon="3.14829">
        <ele>406.765015</ele>
        <time>2010-03-06T09:42:32Z</time>
      </trkpt>
      <trkpt lat="45.70407" lon="3.14824">
        <ele>406.828735</ele>
        <time>2010-03-06T09:42:40Z</time>
      </trkpt>
      <trkpt lat="45.70415" lon="3.14816">
        <ele>406.898438</ele>
        <time>2010-03-06T09:42:49Z</time>
      </trkpt>
      <trkpt lat="45.70425" lon="3.14815">
        <ele>406.28125</ele>
        <time>2010-03-06T09:42:57Z</time>
      </trkpt>
      <trkpt lat="45.70434" lon="3.1482">
        <ele>405.541473</ele>
        <time>2010-03-06T09:43:04Z</time>
      </trkpt>
      <trkpt lat="45.70441" lon="3.14828">
        <ele>404.914795</ele>
        <time>2010-03-06T09:43:11Z</time>
      </trkpt>
      <trkpt lat="45.7045" lon="3.14832">
        <ele>404.392792</ele>
        <time>2010-03-06T09:43:18Z</time>
      </trkpt>
      <trkpt lat="45.7046" lon="3.14832">
        <ele>403.725006</ele>
        <time>2010-03-06T09:43:27Z</time>
      </trkpt>
      <trkpt lat="45.70469" lon="3.1483">
        <ele>402.674988</ele>
        <time>2010-03-06T09:43:37Z</time>
      </trkpt>
      <trkpt lat="45.70479" lon="3.14828">
        <ele>401.637512</ele>
        <time>2010-03-06T09:43:48Z</time>
      </trkpt>
      <trkpt lat="45.70488" lon="3.14827">
        <ele>400.575012</ele>
        <time>2010-03-06T09:43:59Z</time>
      </trkpt>
      <trkpt lat="45.70498" lon="3.14826">
        <ele>399.537506</ele>
        <time>2010-03-06T09:44:08Z</time>
      </trkpt>
      <trkpt lat="45.70507" lon="3.14825">
        <ele>398.393768</ele>
        <time>2010-03-06T09:44:16Z</time>
      </trkpt>
      <trkpt lat="45.70517" lon="3.14824">
        <ele>397.118927</ele>
        <time>2010-03-06T09:44:23Z</time>
      </trkpt>
      <trkpt lat="45.70527" lon="3.14822">
        <ele>395.928864</ele>
        <time>2010-03-06T09:44:31Z</time>
      </trkpt>
      <trkpt lat="45.70536" lon="3.14823">
        <ele>394.720551</ele>
        <time>2010-03-06T09:44:41Z</time>
      </trkpt>
      <trkpt lat="45.70546" lon="3.14825">
        <ele>393.493164</ele>
        <time>2010-03-06T09:44:51Z</time>
      </trkpt>
      <trkpt lat="45.70555" lon="3.14826">
        <ele>392.459534</ele>
        <time>2010-03-06T09:44:59Z</time>
      </trkpt>
      <trkpt lat="45.70564" lon="3.14833">
        <ele>391.336273</ele>
        <time>2010-03-06T09:45:09Z</time>
      </trkpt>
      <trkpt lat="45.70574" lon="3.14834">
        <ele>390.312622</ele>
        <time>2010-03-06T09:45:16Z</time>
      </trkpt>
      <trkpt lat="45.70583" lon="3.14837">
        <ele>389.174683</ele>
        <time>2010-03-06T09:45:22Z</time>
      </trkpt>
      <trkpt lat="45.70596" lon="3.14842">
        <ele>387.676239</ele>
        <time>2010-03-06T09:45:25Z</time>
      </trkpt>
      <trkpt lat="45.70606" lon="3.14844">
        <ele>386.746246</ele>
        <time>2010-03-06T09:45:27Z</time>
      </trkpt>
      <trkpt lat="45.70616" lon="3.14847">
        <ele>385.806244</ele>
        <time>2010-03-06T09:45:29Z</time>
      </trkpt>
      <trkpt lat="45.70629" lon="3.14851">
        <ele>384.632507</ele>
        <time>2010-03-06T09:45:31Z</time>
      </trkpt>
      <trkpt lat="45.70641" lon="3.14852">
        <ele>383.738129</ele>
        <time>2010-03-06T09:45:33Z</time>
      </trkpt>
      <trkpt lat="45.70653" lon="3.14855">
        <ele>383.300873</ele>
        <time>2010-03-06T09:45:35Z</time>
      </trkpt>
      <trkpt lat="45.70665" lon="3.14859">
        <ele>382.808807</ele>
        <time>2010-03-06T09:45:37Z</time>
      </trkpt>
      <trkpt lat="45.70678" lon="3.14861">
        <ele>382.277496</ele>
        <time>2010-03-06T09:45:39Z</time>
      </trkpt>
      <trkpt lat="45.70689" lon="3.14865">
        <ele>381.80249</ele>
        <time>2010-03-06T09:45:41Z</time>
      </trkpt>
      <trkpt lat="45.70701" lon="3.14867">
        <ele>381.462494</ele>
        <time>2010-03-06T09:45:43Z</time>
      </trkpt>
      <trkpt lat="45.70712" lon="3.14869">
        <ele>381.089996</ele>
        <time>2010-03-06T09:45:45Z</time>
      </trkpt>
      <trkpt lat="45.70725" lon="3.1487">
        <ele>380.778748</ele>
        <time>2010-03-06T09:45:47Z</time>
      </trkpt>
      <trkpt lat="45.70738" lon="3.1487">
        <ele>380.51001</ele>
        <time>2010-03-06T09:45:49Z</time>
      </trkpt>
      <trkpt lat="45.7075" lon="3.1487">
        <ele>380.237488</ele>
        <time>2010-03-06T09:45:51Z</time>
      </trkpt>
      <trkpt lat="45.70761" lon="3.14869">
        <ele>380.033752</ele>
        <time>2010-03-06T09:45:53Z</time>
      </trkpt>
      <trkpt lat="45.70773" lon="3.14869">
        <ele>379.848755</ele>
        <time>2010-03-06T09:45:55Z</time>
      </trkpt>
      <trkpt lat="45.70784" lon="3.14868">
        <ele>379.897491</ele>
        <time>2010-03-06T09:45:57Z</time>
      </trkpt>
      <trkpt lat="45.70794" lon="3.14868">
        <ele>379.904999</ele>
        <time>2010-03-06T09:45:59Z</time>
      </trkpt>
      <trkpt lat="45.70807" lon="3.14868">
        <ele>379.912506</ele>
        <time>2010-03-06T09:46:01Z</time>
      </trkpt>
      <trkpt lat="45.70818" lon="3.14868">
        <ele>379.928101</ele>
        <time>2010-03-06T09:46:03Z</time>
      </trkpt>
      <trkpt lat="45.70831" lon="3.14868">
        <ele>380.043457</ele>
        <time>2010-03-06T09:46:05Z</time>
      </trkpt>
      <trkpt lat="45.70844" lon="3.14868">
        <ele>380.149231</ele>
        <time>2010-03-06T09:46:07Z</time>
      </trkpt>
      <trkpt lat="45.70857" lon="3.14868">
        <ele>380.25885</ele>
        <time>2010-03-06T09:46:09Z</time>
      </trkpt>
      <trkpt lat="45.7087" lon="3.14868">
        <ele>380.415924</ele>
        <time>2010-03-06T09:46:11Z</time>
      </trkpt>
      <trkpt lat="45.70882" lon="3.14867">
        <ele>380.638428</ele>
        <time>2010-03-06T09:46:13Z</time>
      </trkpt>
      <trkpt lat="45.70894" lon="3.14867">
        <ele>380.822449</ele>
        <time>2010-03-06T09:46:15Z</time>
      </trkpt>
      <trkpt lat="45.70906" lon="3.14867">
        <ele>381.011505</ele>
        <time>2010-03-06T09:46:17Z</time>
      </trkpt>
      <trkpt lat="45.70918" lon="3.14868">
        <ele>381.065979</ele>
        <time>2010-03-06T09:46:19Z</time>
      </trkpt>
      <trkpt lat="45.7093" lon="3.14868">
        <ele>381.164795</ele>
        <time>2010-03-06T09:46:21Z</time>
      </trkpt>
      <trkpt lat="45.70941" lon="3.14869">
        <ele>381.220947</ele>
        <time>2010-03-06T09:46:23Z</time>
      </trkpt>
      <trkpt lat="45.7095" lon="3.14869">
        <ele>381.271606</ele>
        <time>2010-03-06T09:46:25Z</time>
      </trkpt>
      <trkpt lat="45.7096" lon="3.14871">
        <ele>381.167267</ele>
        <time>2010-03-06T09:46:27Z</time>
      </trkpt>
      <trkpt lat="45.70972" lon="3.14875">
        <ele>380.931183</ele>
        <time>2010-03-06T09:46:30Z</time>
      </trkpt>
      <trkpt lat="45.70983" lon="3.14878">
        <ele>380.718872</ele>
        <time>2010-03-06T09:46:33Z</time>
      </trkpt>
      <trkpt lat="45.70992" lon="3.14881">
        <ele>380.463013</ele>
        <time>2010-03-06T09:46:37Z</time>
      </trkpt>
      <trkpt lat="45.71003" lon="3.14885">
        <ele>380.111237</ele>
        <time>2010-03-06T09:46:42Z</time>
      </trkpt>
      <trkpt lat="45.7101" lon="3.14875">
        <ele>380.42749</ele>
        <time>2010-03-06T09:46:51Z</time>
      </trkpt>
      <trkpt lat="45.71011" lon="3.1486">
        <ele>381.127502</ele>
        <time>2010-03-06T09:46:57Z</time>
      </trkpt>
      <trkpt lat="45.71013" lon="3.14847">
        <ele>381.662659</ele>
        <time>2010-03-06T09:47:01Z</time>
      </trkpt>
      <trkpt lat="45.71017" lon="3.14831">
        <ele>382.193207</ele>
        <time>2010-03-06T09:47:06Z</time>
      </trkpt>
      <trkpt lat="45.7102" lon="3.14811">
        <ele>382.917664</ele>
        <time>2010-03-06T09:47:09Z</time>
      </trkpt>
      <trkpt lat="45.71023" lon="3.14795">
        <ele>383.542847</ele>
        <time>2010-03-06T09:47:11Z</time>
      </trkpt>
      <trkpt lat="45.71026" lon="3.14777">
        <ele>384.100006</ele>
        <time>2010-03-06T09:47:13Z</time>
      </trkpt>
      <trkpt lat="45.7103" lon="3.14758">
        <ele>384.394989</ele>
        <time>2010-03-06T09:47:15Z</time>
      </trkpt>
      <trkpt lat="45.71032" lon="3.1474">
        <ele>384.676239</ele>
        <time>2010-03-06T09:47:17Z</time>
      </trkpt>
      <trkpt lat="45.71035" lon="3.14722">
        <ele>384.956238</ele>
        <time>2010-03-06T09:47:19Z</time>
      </trkpt>
      <trkpt lat="45.7104" lon="3.14703">
        <ele>385.502502</ele>
        <time>2010-03-06T09:47:21Z</time>
      </trkpt>
      <trkpt lat="45.71043" lon="3.14684">
        <ele>386.092499</ele>
        <time>2010-03-06T09:47:23Z</time>
      </trkpt>
      <trkpt lat="45.71045" lon="3.14666">
        <ele>386.685547</ele>
        <time>2010-03-06T09:47:25Z</time>
      </trkpt>
      <trkpt lat="45.71048" lon="3.14648">
        <ele>387.376068</ele>
        <time>2010-03-06T09:47:27Z</time>
      </trkpt>
      <trkpt lat="45.71052" lon="3.14629">
        <ele>388.153168</ele>
        <time>2010-03-06T09:47:29Z</time>
      </trkpt>
      <trkpt lat="45.71055" lon="3.14612">
        <ele>388.929504</ele>
        <time>2010-03-06T09:47:31Z</time>
      </trkpt>
      <trkpt lat="45.71057" lon="3.14595">
        <ele>389.706238</ele>
        <time>2010-03-06T09:47:33Z</time>
      </trkpt>
      <trkpt lat="45.7106" lon="3.14579">
        <ele>390.717957</ele>
        <time>2010-03-06T09:47:35Z</time>
      </trkpt>
      <trkpt lat="45.71063" lon="3.14563">
        <ele>391.743347</ele>
        <time>2010-03-06T09:47:37Z</time>
      </trkpt>
      <trkpt lat="45.71066" lon="3.14546">
        <ele>392.902649</ele>
        <time>2010-03-06T09:47:39Z</time>
      </trkpt>
      <trkpt lat="45.71069" lon="3.14529">
        <ele>394.052734</ele>
        <time>2010-03-06T09:47:41Z</time>
      </trkpt>
      <trkpt lat="45.71071" lon="3.14512">
        <ele>395.029755</ele>
        <time>2010-03-06T09:47:43Z</time>
      </trkpt>
      <trkpt lat="45.71074" lon="3.14497">
        <ele>395.901123</ele>
        <time>2010-03-06T09:47:45Z</time>
      </trkpt>
      <trkpt lat="45.71077" lon="3.14481">
        <ele>396.72644</ele>
        <time>2010-03-06T09:47:47Z</time>
      </trkpt>
      <trkpt lat="45.7108" lon="3.14465">
        <ele>397.478607</ele>
        <time>2010-03-06T09:47:49Z</time>
      </trkpt>
      <trkpt lat="45.71082" lon="3.14451">
        <ele>398.042511</ele>
        <time>2010-03-06T09:47:51Z</time>
      </trkpt>
      <trkpt lat="45.71085" lon="3.14436">
        <ele>398.630005</ele>
        <time>2010-03-06T09:47:53Z</time>
      </trkpt>
      <trkpt lat="45.71089" lon="3.14423">
        <ele>399.190002</ele>
        <time>2010-03-06T09:47:55Z</time>
      </trkpt>
      <trkpt lat="45.71094" lon="3.14411">
        <ele>399.7258</ele>
        <time>2010-03-06T09:47:57Z</time>
      </trkpt>
      <trkpt lat="45.71099" lon="3.14398">
        <ele>400.200012</ele>
        <time>2010-03-06T09:47:59Z</time>
      </trkpt>
      <trkpt lat="45.71106" lon="3.14383">
        <ele>400.350006</ele>
        <time>2010-03-06T09:48:01Z</time>
      </trkpt>
      <trkpt lat="45.71115" lon="3.14369">
        <ele>400.529999</ele>
        <time>2010-03-06T09:48:03Z</time>
      </trkpt>
      <trkpt lat="45.71123" lon="3.14355">
        <ele>400.709991</ele>
        <time>2010-03-06T09:48:05Z</time>
      </trkpt>
      <trkpt lat="45.71131" lon="3.14341">
        <ele>400.892487</ele>
        <time>2010-03-06T09:48:07Z</time>
      </trkpt>
      <trkpt lat="45.71138" lon="3.14329">
        <ele>401.299988</ele>
        <time>2010-03-06T09:48:09Z</time>
      </trkpt>
      <trkpt lat="45.71146" lon="3.14316">
        <ele>402.054993</ele>
        <time>2010-03-06T09:48:11Z</time>
      </trkpt>
      <trkpt lat="45.71154" lon="3.14303">
        <ele>402.782501</ele>
        <time>2010-03-06T09:48:13Z</time>
      </trkpt>
      <trkpt lat="45.7116" lon="3.14292">
        <ele>403.420013</ele>
        <time>2010-03-06T09:48:15Z</time>
      </trkpt>
      <trkpt lat="45.71166" lon="3.1428">
        <ele>404.067505</ele>
        <time>2010-03-06T09:48:17Z</time>
      </trkpt>
      <trkpt lat="45.71172" lon="3.14268">
        <ele>404.75058</ele>
        <time>2010-03-06T09:48:19Z</time>
      </trkpt>
      <trkpt lat="45.71179" lon="3.14256">
        <ele>405.419434</ele>
        <time>2010-03-06T09:48:21Z</time>
      </trkpt>
      <trkpt lat="45.71184" lon="3.14244">
        <ele>405.929993</ele>
        <time>2010-03-06T09:48:23Z</time>
      </trkpt>
      <trkpt lat="45.71191" lon="3.14233">
        <ele>406.434998</ele>
        <time>2010-03-06T09:48:25Z</time>
      </trkpt>
      <trkpt lat="45.71196" lon="3.14222">
        <ele>406.894989</ele>
        <time>2010-03-06T09:48:27Z</time>
      </trkpt>
      <trkpt lat="45.71202" lon="3.14211">
        <ele>407.360016</ele>
        <time>2010-03-06T09:48:29Z</time>
      </trkpt>
      <trkpt lat="45.71208" lon="3.14199">
        <ele>407.867493</ele>
        <time>2010-03-06T09:48:31Z</time>
      </trkpt>
      <trkpt lat="45.71213" lon="3.14188">
        <ele>408.337494</ele>
        <time>2010-03-06T09:48:33Z</time>
      </trkpt>
      <trkpt lat="45.7122" lon="3.14175">
        <ele>408.872498</ele>
        <time>2010-03-06T09:48:36Z</time>
      </trkpt>
      <trkpt lat="45.71227" lon="3.14162">
        <ele>409.44751</ele>
        <time>2010-03-06T09:48:40Z</time>
      </trkpt>
      <trkpt lat="45.71232" lon="3.14151">
        <ele>410.013733</ele>
        <time>2010-03-06T09:48:45Z</time>
      </trkpt>
      <trkpt lat="45.7124" lon="3.1414">
        <ele>410.757507</ele>
        <time>2010-03-06T09:48:53Z</time>
      </trkpt>
      <trkpt lat="45.71249" lon="3.14136">
        <ele>411.328766</ele>
        <time>2010-03-06T09:49:01Z</time>
      </trkpt>
      <trkpt lat="45.71257" lon="3.14128">
        <ele>412.101257</ele>
        <time>2010-03-06T09:49:09Z</time>
      </trkpt>
      <trkpt lat="45.71267" lon="3.14123">
        <ele>412.774994</ele>
        <time>2010-03-06T09:49:17Z</time>
      </trkpt>
      <trkpt lat="45.71276" lon="3.14117">
        <ele>413.464996</ele>
        <time>2010-03-06T09:49:25Z</time>
      </trkpt>
      <trkpt lat="45.71284" lon="3.14112">
        <ele>414.07251</ele>
        <time>2010-03-06T09:49:32Z</time>
      </trkpt>
      <trkpt lat="45.71293" lon="3.14106">
        <ele>414.732513</ele>
        <time>2010-03-06T09:49:38Z</time>
      </trkpt>
      <trkpt lat="45.71301" lon="3.14099">
        <ele>415.438751</ele>
        <time>2010-03-06T09:49:47Z</time>
      </trkpt>
      <trkpt lat="45.7131" lon="3.14092">
        <ele>416.128754</ele>
        <time>2010-03-06T09:49:55Z</time>
      </trkpt>
      <trkpt lat="45.71318" lon="3.14086">
        <ele>416.809998</ele>
        <time>2010-03-06T09:50:02Z</time>
      </trkpt>
      <trkpt lat="45.71326" lon="3.14078">
        <ele>417.489838</ele>
        <time>2010-03-06T09:50:10Z</time>
      </trkpt>
      <trkpt lat="45.71334" lon="3.1407">
        <ele>418.131378</ele>
        <time>2010-03-06T09:50:19Z</time>
      </trkpt>
      <trkpt lat="45.71341" lon="3.14061">
        <ele>418.852692</ele>
        <time>2010-03-06T09:50:27Z</time>
      </trkpt>
      <trkpt lat="45.71349" lon="3.14052">
        <ele>419.61853</ele>
        <time>2010-03-06T09:50:34Z</time>
      </trkpt>
      <trkpt lat="45.71357" lon="3.14043">
        <ele>420.466919</ele>
        <time>2010-03-06T09:50:42Z</time>
      </trkpt>
      <trkpt lat="45.71364" lon="3.14034">
        <ele>421.304291</ele>
        <time>2010-03-06T09:50:52Z</time>
      </trkpt>
      <trkpt lat="45.71372" lon="3.14026">
        <ele>422.39032</ele>
        <time>2010-03-06T09:50:59Z</time>
      </trkpt>
      <trkpt lat="45.7138" lon="3.1402">
        <ele>423.435486</ele>
        <time>2010-03-06T09:51:09Z</time>
      </trkpt>
      <trkpt lat="45.7139" lon="3.14013">
        <ele>424.575012</ele>
        <time>2010-03-06T09:51:17Z</time>
      </trkpt>
      <trkpt lat="45.71398" lon="3.14005">
        <ele>425.737488</ele>
        <time>2010-03-06T09:51:26Z</time>
      </trkpt>
      <trkpt lat="45.71406" lon="3.13995">
        <ele>426.876251</ele>
        <time>2010-03-06T09:51:34Z</time>
      </trkpt>
      <trkpt lat="45.71413" lon="3.13986">
        <ele>427.850006</ele>
        <time>2010-03-06T09:51:42Z</time>
      </trkpt>
      <trkpt lat="45.7142" lon="3.13977">
        <ele>428.84317</ele>
        <time>2010-03-06T09:51:55Z</time>
      </trkpt>
      <trkpt lat="45.71429" lon="3.1397">
        <ele>430.001678</ele>
        <time>2010-03-06T09:52:11Z</time>
      </trkpt>
      <trkpt lat="45.71436" lon="3.13961">
        <ele>431.08493</ele>
        <time>2010-03-06T09:52:18Z</time>
      </trkpt>
      <trkpt lat="45.71443" lon="3.13952">
        <ele>432.186249</ele>
        <time>2010-03-06T09:52:26Z</time>
      </trkpt>
      <trkpt lat="45.71451" lon="3.13942">
        <ele>433.321259</ele>
        <time>2010-03-06T09:52:35Z</time>
      </trkpt>
      <trkpt lat="45.71459" lon="3.13934">
        <ele>434.265076</ele>
        <time>2010-03-06T09:52:44Z</time>
      </trkpt>
      <trkpt lat="45.71466" lon="3.13926">
        <ele>435.157562</ele>
        <time>2010-03-06T09:52:53Z</time>
      </trkpt>
      <trkpt lat="45.71473" lon="3.13916">
        <ele>436.198486</ele>
        <time>2010-03-06T09:53:01Z</time>
      </trkpt>
      <trkpt lat="45.71481" lon="3.13907">
        <ele>437.377899</ele>
        <time>2010-03-06T09:53:11Z</time>
      </trkpt>
      <trkpt lat="45.71489" lon="3.13899">
        <ele>438.544312</ele>
        <time>2010-03-06T09:53:18Z</time>
      </trkpt>
      <trkpt lat="45.71497" lon="3.13889">
        <ele>439.9888</ele>
        <time>2010-03-06T09:53:24Z</time>
      </trkpt>
      <trkpt lat="45.71505" lon="3.13881">
        <ele>441.235992</ele>
        <time>2010-03-06T09:53:28Z</time>
      </trkpt>
      <trkpt lat="45.71515" lon="3.13878">
        <ele>442.214966</ele>
        <time>2010-03-06T09:53:32Z</time>
      </trkpt>
      <trkpt lat="45.71523" lon="3.13886">
        <ele>442.109253</ele>
        <time>2010-03-06T09:53:40Z</time>
      </trkpt>
      <trkpt lat="45.71528" lon="3.13897">
        <ele>441.498749</ele>
        <time>2010-03-06T09:53:50Z</time>
      </trkpt>
      <trkpt lat="45.71536" lon="3.13906">
        <ele>441.307495</ele>
        <time>2010-03-06T09:54:00Z</time>
      </trkpt>
      <trkpt lat="45.71545" lon="3.13903">
        <ele>442.2341</ele>
        <time>2010-03-06T09:54:09Z</time>
      </trkpt>
      <trkpt lat="45.71554" lon="3.13901">
        <ele>442.978638</ele>
        <time>2010-03-06T09:54:18Z</time>
      </trkpt>
      <trkpt lat="45.71566" lon="3.13901">
        <ele>443.714844</ele>
        <time>2010-03-06T09:54:28Z</time>
      </trkpt>
      <trkpt lat="45.71575" lon="3.13897">
        <ele>444.600006</ele>
        <time>2010-03-06T09:54:34Z</time>
      </trkpt>
      <trkpt lat="45.71583" lon="3.13893">
        <ele>445.595764</ele>
        <time>2010-03-06T09:54:48Z</time>
      </trkpt>
      <trkpt lat="45.71593" lon="3.13891">
        <ele>446.632996</ele>
        <time>2010-03-06T09:54:54Z</time>
      </trkpt>
      <trkpt lat="45.71602" lon="3.13897">
        <ele>446.98999</ele>
        <time>2010-03-06T09:55:02Z</time>
      </trkpt>
      <trkpt lat="45.71612" lon="3.13902">
        <ele>447.709991</ele>
        <time>2010-03-06T09:55:10Z</time>
      </trkpt>
      <trkpt lat="45.71621" lon="3.13906">
        <ele>448.424988</ele>
        <time>2010-03-06T09:55:18Z</time>
      </trkpt>
      <trkpt lat="45.71632" lon="3.13904">
        <ele>449.804993</ele>
        <time>2010-03-06T09:55:27Z</time>
      </trkpt>
      <trkpt lat="45.71641" lon="3.13899">
        <ele>450.929871</ele>
        <time>2010-03-06T09:55:34Z</time>
      </trkpt>
      <trkpt lat="45.7165" lon="3.13894">
        <ele>452.053589</ele>
        <time>2010-03-06T09:55:42Z</time>
      </trkpt>
      <trkpt lat="45.71659" lon="3.13885">
        <ele>453.016296</ele>
        <time>2010-03-06T09:55:49Z</time>
      </trkpt>
      <trkpt lat="45.71667" lon="3.13879">
        <ele>453.854553</ele>
        <time>2010-03-06T09:55:52Z</time>
      </trkpt>
      <trkpt lat="45.71677" lon="3.13876">
        <ele>454.708801</ele>
        <time>2010-03-06T09:55:56Z</time>
      </trkpt>
      <trkpt lat="45.71687" lon="3.13875">
        <ele>455.65799</ele>
        <time>2010-03-06T09:56:00Z</time>
      </trkpt>
      <trkpt lat="45.71697" lon="3.13878">
        <ele>456.601074</ele>
        <time>2010-03-06T09:56:04Z</time>
      </trkpt>
      <trkpt lat="45.71709" lon="3.13881">
        <ele>457.520203</ele>
        <time>2010-03-06T09:56:08Z</time>
      </trkpt>
      <trkpt lat="45.71719" lon="3.13883">
        <ele>458.447113</ele>
        <time>2010-03-06T09:56:12Z</time>
      </trkpt>
      <trkpt lat="45.7173" lon="3.13888">
        <ele>459.243744</ele>
        <time>2010-03-06T09:56:16Z</time>
      </trkpt>
      <trkpt lat="45.71741" lon="3.13889">
        <ele>460.299988</ele>
        <time>2010-03-06T09:56:21Z</time>
      </trkpt>
      <trkpt lat="45.71751" lon="3.13892">
        <ele>461.293762</ele>
        <time>2010-03-06T09:56:26Z</time>
      </trkpt>
      <trkpt lat="45.71762" lon="3.13894">
        <ele>462.350006</ele>
        <time>2010-03-06T09:56:31Z</time>
      </trkpt>
      <trkpt lat="45.71773" lon="3.13897">
        <ele>463.340271</ele>
        <time>2010-03-06T09:56:36Z</time>
      </trkpt>
      <trkpt lat="45.71784" lon="3.13897">
        <ele>464.533112</ele>
        <time>2010-03-06T09:56:40Z</time>
      </trkpt>
      <trkpt lat="45.71795" lon="3.13902">
        <ele>465.348969</ele>
        <time>2010-03-06T09:56:45Z</time>
      </trkpt>
      <trkpt lat="45.71805" lon="3.13906">
        <ele>466.047821</ele>
        <time>2010-03-06T09:56:50Z</time>
      </trkpt>
      <trkpt lat="45.71815" lon="3.13911">
        <ele>466.70108</ele>
        <time>2010-03-06T09:56:55Z</time>
      </trkpt>
      <trkpt lat="45.71825" lon="3.13916">
        <ele>467.032654</ele>
        <time>2010-03-06T09:57:00Z</time>
      </trkpt>
      <trkpt lat="45.71836" lon="3.13916">
        <ele>467.923767</ele>
        <time>2010-03-06T09:57:04Z</time>
      </trkpt>
      <trkpt lat="45.71847" lon="3.13915">
        <ele>469.065247</ele>
        <time>2010-03-06T09:57:08Z</time>
      </trkpt>
      <trkpt lat="45.71858" lon="3.13914">
        <ele>470.108246</ele>
        <time>2010-03-06T09:57:13Z</time>
      </trkpt>
      <trkpt lat="45.71869" lon="3.13908">
        <ele>471.117188</ele>
        <time>2010-03-06T09:57:17Z</time>
      </trkpt>
      <trkpt lat="45.71879" lon="3.13905">
        <ele>471.924561</ele>
        <time>2010-03-06T09:57:21Z</time>
      </trkpt>
      <trkpt lat="45.71888" lon="3.139">
        <ele>472.890625</ele>
        <time>2010-03-06T09:57:25Z</time>
      </trkpt>
      <trkpt lat="45.71897" lon="3.13895">
        <ele>474.058929</ele>
        <time>2010-03-06T09:57:29Z</time>
      </trkpt>
      <trkpt lat="45.71905" lon="3.13888">
        <ele>475.3125</ele>
        <time>2010-03-06T09:57:34Z</time>
      </trkpt>
      <trkpt lat="45.71915" lon="3.13882">
        <ele>475.880005</ele>
        <time>2010-03-06T09:57:39Z</time>
      </trkpt>
      <trkpt lat="45.71925" lon="3.13875">
        <ele>476.559998</ele>
        <time>2010-03-06T09:57:43Z</time>
      </trkpt>
      <trkpt lat="45.71936" lon="3.13867">
        <ele>477.377502</ele>
        <time>2010-03-06T09:57:48Z</time>
      </trkpt>
      <trkpt lat="45.71945" lon="3.13861">
        <ele>477.987488</ele>
        <time>2010-03-06T09:57:52Z</time>
      </trkpt>
      <trkpt lat="45.71955" lon="3.13855">
        <ele>478.316864</ele>
        <time>2010-03-06T09:57:56Z</time>
      </trkpt>
      <trkpt lat="45.71964" lon="3.13849">
        <ele>478.730621</ele>
        <time>2010-03-06T09:58:00Z</time>
      </trkpt>
      <trkpt lat="45.71972" lon="3.13843">
        <ele>479.181671</ele>
        <time>2010-03-06T09:58:04Z</time>
      </trkpt>
      <trkpt lat="45.71982" lon="3.13835">
        <ele>479.774506</ele>
        <time>2010-03-06T09:58:08Z</time>
      </trkpt>
      <trkpt lat="45.71989" lon="3.13825">
        <ele>480.862488</ele>
        <time>2010-03-06T09:58:13Z</time>
      </trkpt>
      <trkpt lat="45.71997" lon="3.13818">
        <ele>481.212341</ele>
        <time>2010-03-06T09:58:20Z</time>
      </trkpt>
      <trkpt lat="45.72007" lon="3.13814">
        <ele>481.178802</ele>
        <time>2010-03-06T09:58:29Z</time>
      </trkpt>
      <trkpt lat="45.72016" lon="3.13809">
        <ele>481.220459</ele>
        <time>2010-03-06T09:58:36Z</time>
      </trkpt>
      <trkpt lat="45.72025" lon="3.13805">
        <ele>481.268219</ele>
        <time>2010-03-06T09:58:44Z</time>
      </trkpt>
      <trkpt lat="45.72033" lon="3.138">
        <ele>481.366364</ele>
        <time>2010-03-06T09:58:53Z</time>
      </trkpt>
      <trkpt lat="45.72042" lon="3.13795">
        <ele>481.539551</ele>
        <time>2010-03-06T09:59:02Z</time>
      </trkpt>
      <trkpt lat="45.72052" lon="3.1379">
        <ele>481.492523</ele>
        <time>2010-03-06T09:59:10Z</time>
      </trkpt>
      <trkpt lat="45.72061" lon="3.13785">
        <ele>481.366486</ele>
        <time>2010-03-06T09:59:18Z</time>
      </trkpt>
      <trkpt lat="45.7207" lon="3.13779">
        <ele>481.76416</ele>
        <time>2010-03-06T09:59:25Z</time>
      </trkpt>
      <trkpt lat="45.72079" lon="3.13774">
        <ele>481.832092</ele>
        <time>2010-03-06T09:59:35Z</time>
      </trkpt>
      <trkpt lat="45.72088" lon="3.1377">
        <ele>481.61731</ele>
        <time>2010-03-06T09:59:43Z</time>
      </trkpt>
      <trkpt lat="45.72096" lon="3.13764">
        <ele>481.117462</ele>
        <time>2010-03-06T09:59:52Z</time>
      </trkpt>
      <trkpt lat="45.72104" lon="3.13756">
        <ele>480.845306</ele>
        <time>2010-03-06T10:00:02Z</time>
      </trkpt>
      <trkpt lat="45.72113" lon="3.13748">
        <ele>480.795776</ele>
        <time>2010-03-06T10:00:08Z</time>
      </trkpt>
      <trkpt lat="45.72122" lon="3.13743">
        <ele>480.18808</ele>
        <time>2010-03-06T10:00:17Z</time>
      </trkpt>
      <trkpt lat="45.72129" lon="3.13733">
        <ele>480.818207</ele>
        <time>2010-03-06T10:00:26Z</time>
      </trkpt>
      <trkpt lat="45.72137" lon="3.13723">
        <ele>480.807404</ele>
        <time>2010-03-06T10:00:34Z</time>
      </trkpt>
      <trkpt lat="45.72142" lon="3.13711">
        <ele>481.812836</ele>
        <time>2010-03-06T10:00:41Z</time>
      </trkpt>
      <trkpt lat="45.72145" lon="3.13696">
        <ele>484.217041</ele>
        <time>2010-03-06T10:00:51Z</time>
      </trkpt>
      <trkpt lat="45.72152" lon="3.13686">
        <ele>484.954407</ele>
        <time>2010-03-06T10:01:00Z</time>
      </trkpt>
      <trkpt lat="45.72162" lon="3.13685">
        <ele>483.348206</ele>
        <time>2010-03-06T10:01:08Z</time>
      </trkpt>
      <trkpt lat="45.72172" lon="3.13681">
        <ele>482.482483</ele>
        <time>2010-03-06T10:01:15Z</time>
      </trkpt>
      <trkpt lat="45.7218" lon="3.13673">
        <ele>483.148529</ele>
        <time>2010-03-06T10:01:23Z</time>
      </trkpt>
      <trkpt lat="45.72188" lon="3.13663">
        <ele>484.41922</ele>
        <time>2010-03-06T10:01:29Z</time>
      </trkpt>
      <trkpt lat="45.72197" lon="3.13658">
        <ele>484.566589</ele>
        <time>2010-03-06T10:01:34Z</time>
      </trkpt>
      <trkpt lat="45.72207" lon="3.13649">
        <ele>485.691376</ele>
        <time>2010-03-06T10:01:40Z</time>
      </trkpt>
      <trkpt lat="45.72218" lon="3.13646">
        <ele>485.069305</ele>
        <time>2010-03-06T10:01:44Z</time>
      </trkpt>
      <trkpt lat="45.72229" lon="3.13642">
        <ele>485.035156</ele>
        <time>2010-03-06T10:01:48Z</time>
      </trkpt>
      <trkpt lat="45.72238" lon="3.13639">
        <ele>485.108765</ele>
        <time>2010-03-06T10:01:51Z</time>
      </trkpt>
      <trkpt lat="45.72248" lon="3.13635">
        <ele>485.076538</ele>
        <time>2010-03-06T10:01:54Z</time>
      </trkpt>
      <trkpt lat="45.72257" lon="3.13632">
        <ele>484.968536</ele>
        <time>2010-03-06T10:01:57Z</time>
      </trkpt>
      <trkpt lat="45.72266" lon="3.13628">
        <ele>484.627197</ele>
        <time>2010-03-06T10:02:01Z</time>
      </trkpt>
      <trkpt lat="45.72276" lon="3.13623">
        <ele>483.115021</ele>
        <time>2010-03-06T10:02:06Z</time>
      </trkpt>
      <trkpt lat="45.72286" lon="3.1362">
        <ele>481.504333</ele>
        <time>2010-03-06T10:02:11Z</time>
      </trkpt>
      <trkpt lat="45.72294" lon="3.13609">
        <ele>480.875885</ele>
        <time>2010-03-06T10:02:16Z</time>
      </trkpt>
      <trkpt lat="45.72302" lon="3.136">
        <ele>480.178284</ele>
        <time>2010-03-06T10:02:20Z</time>
      </trkpt>
      <trkpt lat="45.7231" lon="3.13591">
        <ele>479.32074</ele>
        <time>2010-03-06T10:02:24Z</time>
      </trkpt>
      <trkpt lat="45.72318" lon="3.13581">
        <ele>478.709991</ele>
        <time>2010-03-06T10:02:28Z</time>
      </trkpt>
      <trkpt lat="45.72325" lon="3.13571">
        <ele>478.154999</ele>
        <time>2010-03-06T10:02:32Z</time>
      </trkpt>
      <trkpt lat="45.72332" lon="3.13562">
        <ele>477.637512</ele>
        <time>2010-03-06T10:02:34Z</time>
      </trkpt>
      <trkpt lat="45.72339" lon="3.13552">
        <ele>477.269989</ele>
        <time>2010-03-06T10:02:37Z</time>
      </trkpt>
      <trkpt lat="45.72343" lon="3.13539">
        <ele>477.734985</ele>
        <time>2010-03-06T10:02:41Z</time>
      </trkpt>
      <trkpt lat="45.72349" lon="3.13526">
        <ele>477.795013</ele>
        <time>2010-03-06T10:02:44Z</time>
      </trkpt>
      <trkpt lat="45.72355" lon="3.13512">
        <ele>478.163544</ele>
        <time>2010-03-06T10:02:48Z</time>
      </trkpt>
      <trkpt lat="45.72365" lon="3.1351">
        <ele>477.135284</ele>
        <time>2010-03-06T10:02:53Z</time>
      </trkpt>
      <trkpt lat="45.72376" lon="3.13508">
        <ele>476.098206</ele>
        <time>2010-03-06T10:02:57Z</time>
      </trkpt>
      <trkpt lat="45.72385" lon="3.13503">
        <ele>475.484436</ele>
        <time>2010-03-06T10:03:01Z</time>
      </trkpt>
      <trkpt lat="45.72394" lon="3.13492">
        <ele>475.745361</ele>
        <time>2010-03-06T10:03:05Z</time>
      </trkpt>
      <trkpt lat="45.72402" lon="3.13482">
        <ele>476.193298</ele>
        <time>2010-03-06T10:03:08Z</time>
      </trkpt>
      <trkpt lat="45.72411" lon="3.13469">
        <ele>476.491669</ele>
        <time>2010-03-06T10:03:11Z</time>
      </trkpt>
      <trkpt lat="45.72418" lon="3.13458">
        <ele>476.766235</ele>
        <time>2010-03-06T10:03:14Z</time>
      </trkpt>
      <trkpt lat="45.72423" lon="3.13447">
        <ele>477.062408</ele>
        <time>2010-03-06T10:03:17Z</time>
      </trkpt>
      <trkpt lat="45.7243" lon="3.13436">
        <ele>477.281677</ele>
        <time>2010-03-06T10:03:20Z</time>
      </trkpt>
      <trkpt lat="45.72436" lon="3.13424">
        <ele>477.470703</ele>
        <time>2010-03-06T10:03:23Z</time>
      </trkpt>
      <trkpt lat="45.72442" lon="3.13411">
        <ele>477.826355</ele>
        <time>2010-03-06T10:03:27Z</time>
      </trkpt>
      <trkpt lat="45.72449" lon="3.13401">
        <ele>477.734406</ele>
        <time>2010-03-06T10:03:30Z</time>
      </trkpt>
      <trkpt lat="45.72456" lon="3.13388">
        <ele>477.871124</ele>
        <time>2010-03-06T10:03:34Z</time>
      </trkpt>
      <trkpt lat="45.72462" lon="3.13376">
        <ele>478.335693</ele>
        <time>2010-03-06T10:03:38Z</time>
      </trkpt>
      <trkpt lat="45.72466" lon="3.13364">
        <ele>479.487671</ele>
        <time>2010-03-06T10:03:41Z</time>
      </trkpt>
      <trkpt lat="45.72472" lon="3.13353">
        <ele>479.745087</ele>
        <time>2010-03-06T10:03:44Z</time>
      </trkpt>
      <trkpt lat="45.72478" lon="3.13341">
        <ele>480.305176</ele>
        <time>2010-03-06T10:03:48Z</time>
      </trkpt>
      <trkpt lat="45.72485" lon="3.13332">
        <ele>480.007233</ele>
        <time>2010-03-06T10:03:52Z</time>
      </trkpt>
      <trkpt lat="45.72495" lon="3.13326">
        <ele>478.978546</ele>
        <time>2010-03-06T10:03:57Z</time>
      </trkpt>
      <trkpt lat="45.72506" lon="3.13322">
        <ele>478.053528</ele>
        <time>2010-03-06T10:04:00Z</time>
      </trkpt>
      <trkpt lat="45.72517" lon="3.13315">
        <ele>477.496582</ele>
        <time>2010-03-06T10:04:03Z</time>
      </trkpt>
      <trkpt lat="45.7253" lon="3.13307">
        <ele>477.11438</ele>
        <time>2010-03-06T10:04:06Z</time>
      </trkpt>
      <trkpt lat="45.72538" lon="3.133">
        <ele>477.283905</ele>
        <time>2010-03-06T10:04:09Z</time>
      </trkpt>
      <trkpt lat="45.72549" lon="3.13295">
        <ele>477.243408</ele>
        <time>2010-03-06T10:04:14Z</time>
      </trkpt>
      <trkpt lat="45.72556" lon="3.13287">
        <ele>477.960236</ele>
        <time>2010-03-06T10:04:17Z</time>
      </trkpt>
      <trkpt lat="45.72564" lon="3.1328">
        <ele>478.252167</ele>
        <time>2010-03-06T10:04:20Z</time>
      </trkpt>
      <trkpt lat="45.72573" lon="3.13273">
        <ele>478.613342</ele>
        <time>2010-03-06T10:04:23Z</time>
      </trkpt>
      <trkpt lat="45.72583" lon="3.13265">
        <ele>479.008698</ele>
        <time>2010-03-06T10:04:26Z</time>
      </trkpt>
      <trkpt lat="45.72591" lon="3.13259">
        <ele>479.458649</ele>
        <time>2010-03-06T10:04:29Z</time>
      </trkpt>
      <trkpt lat="45.72601" lon="3.13254">
        <ele>479.378357</ele>
        <time>2010-03-06T10:04:32Z</time>
      </trkpt>
      <trkpt lat="45.7261" lon="3.13249">
        <ele>479.560181</ele>
        <time>2010-03-06T10:04:35Z</time>
      </trkpt>
      <trkpt lat="45.72618" lon="3.13241">
        <ele>480.160706</ele>
        <time>2010-03-06T10:04:38Z</time>
      </trkpt>
      <trkpt lat="45.72627" lon="3.13232">
        <ele>480.905792</ele>
        <time>2010-03-06T10:04:42Z</time>
      </trkpt>
      <trkpt lat="45.72636" lon="3.13222">
        <ele>481.731628</ele>
        <time>2010-03-06T10:04:45Z</time>
      </trkpt>
      <trkpt lat="45.72644" lon="3.13213">
        <ele>482.56073</ele>
        <time>2010-03-06T10:04:48Z</time>
      </trkpt>
      <trkpt lat="45.72652" lon="3.13205">
        <ele>483.278961</ele>
        <time>2010-03-06T10:04:51Z</time>
      </trkpt>
      <trkpt lat="45.72663" lon="3.13194">
        <ele>484.175201</ele>
        <time>2010-03-06T10:04:54Z</time>
      </trkpt>
      <trkpt lat="45.72671" lon="3.13182">
        <ele>485.255249</ele>
        <time>2010-03-06T10:04:58Z</time>
      </trkpt>
      <trkpt lat="45.72677" lon="3.13171">
        <ele>486.524841</ele>
        <time>2010-03-06T10:05:02Z</time>
      </trkpt>
      <trkpt lat="45.72685" lon="3.13163">
        <ele>486.972534</ele>
        <time>2010-03-06T10:05:06Z</time>
      </trkpt>
      <trkpt lat="45.72695" lon="3.13152">
        <ele>487.636963</ele>
        <time>2010-03-06T10:05:11Z</time>
      </trkpt>
      <trkpt lat="45.72703" lon="3.13142">
        <ele>488.164307</ele>
        <time>2010-03-06T10:05:15Z</time>
      </trkpt>
      <trkpt lat="45.7271" lon="3.13131">
        <ele>489.591339</ele>
        <time>2010-03-06T10:05:19Z</time>
      </trkpt>
      <trkpt lat="45.72718" lon="3.13119">
        <ele>491.722839</ele>
        <time>2010-03-06T10:05:24Z</time>
      </trkpt>
      <trkpt lat="45.72725" lon="3.1311">
        <ele>493.544678</ele>
        <time>2010-03-06T10:05:28Z</time>
      </trkpt>
      <trkpt lat="45.72734" lon="3.13102">
        <ele>495.064606</ele>
        <time>2010-03-06T10:05:32Z</time>
      </trkpt>
      <trkpt lat="45.72743" lon="3.13093">
        <ele>496.437286</ele>
        <time>2010-03-06T10:05:36Z</time>
      </trkpt>
      <trkpt lat="45.72753" lon="3.13084">
        <ele>497.783356</ele>
        <time>2010-03-06T10:05:40Z</time>
      </trkpt>
      <trkpt lat="45.72762" lon="3.13076">
        <ele>498.990326</ele>
        <time>2010-03-06T10:05:44Z</time>
      </trkpt>
      <trkpt lat="45.72772" lon="3.13068">
        <ele>500.985748</ele>
        <time>2010-03-06T10:05:48Z</time>
      </trkpt>
      <trkpt lat="45.72781" lon="3.13061">
        <ele>503.03302</ele>
        <time>2010-03-06T10:05:52Z</time>
      </trkpt>
      <trkpt lat="45.72791" lon="3.13055">
        <ele>504.688995</ele>
        <time>2010-03-06T10:05:57Z</time>
      </trkpt>
      <trkpt lat="45.728" lon="3.13049">
        <ele>505.987793</ele>
        <time>2010-03-06T10:06:01Z</time>
      </trkpt>
      <trkpt lat="45.72808" lon="3.13042">
        <ele>507.09726</ele>
        <time>2010-03-06T10:06:05Z</time>
      </trkpt>
      <trkpt lat="45.72819" lon="3.13033">
        <ele>508.925568</ele>
        <time>2010-03-06T10:06:09Z</time>
      </trkpt>
      <trkpt lat="45.72828" lon="3.13027">
        <ele>510.278229</ele>
        <time>2010-03-06T10:06:13Z</time>
      </trkpt>
      <trkpt lat="45.72836" lon="3.13021">
        <ele>511.362823</ele>
        <time>2010-03-06T10:06:23Z</time>
      </trkpt>
      <trkpt lat="45.72845" lon="3.13011">
        <ele>512.568787</ele>
        <time>2010-03-06T10:06:35Z</time>
      </trkpt>
      <trkpt lat="45.72853" lon="3.13002">
        <ele>512.804871</ele>
        <time>2010-03-06T10:06:40Z</time>
      </trkpt>
      <trkpt lat="45.7286" lon="3.12992">
        <ele>512.51178</ele>
        <time>2010-03-06T10:06:45Z</time>
      </trkpt>
      <trkpt lat="45.72867" lon="3.12983">
        <ele>511.942261</ele>
        <time>2010-03-06T10:06:52Z</time>
      </trkpt>
      <trkpt lat="45.72873" lon="3.12972">
        <ele>511.159546</ele>
        <time>2010-03-06T10:07:03Z</time>
      </trkpt>
      <trkpt lat="45.72882" lon="3.12961">
        <ele>509.849884</ele>
        <time>2010-03-06T10:07:12Z</time>
      </trkpt>
      <trkpt lat="45.7289" lon="3.12953">
        <ele>508.504242</ele>
        <time>2010-03-06T10:07:19Z</time>
      </trkpt>
      <trkpt lat="45.72899" lon="3.12945">
        <ele>507.127319</ele>
        <time>2010-03-06T10:07:27Z</time>
      </trkpt>
      <trkpt lat="45.72907" lon="3.12936">
        <ele>506.091553</ele>
        <time>2010-03-06T10:07:37Z</time>
      </trkpt>
      <trkpt lat="45.72913" lon="3.12926">
        <ele>505.127502</ele>
        <time>2010-03-06T10:07:47Z</time>
      </trkpt>
      <trkpt lat="45.7292" lon="3.12917">
        <ele>503.985474</ele>
        <time>2010-03-06T10:07:54Z</time>
      </trkpt>
      <trkpt lat="45.72926" lon="3.12908">
        <ele>502.851837</ele>
        <time>2010-03-06T10:08:00Z</time>
      </trkpt>
      <trkpt lat="45.72933" lon="3.12894">
        <ele>501.434937</ele>
        <time>2010-03-06T10:08:10Z</time>
      </trkpt>
      <trkpt lat="45.72939" lon="3.12882">
        <ele>500.278992</ele>
        <time>2010-03-06T10:08:16Z</time>
      </trkpt>
      <trkpt lat="45.72942" lon="3.1287">
        <ele>499.951477</ele>
        <time>2010-03-06T10:08:23Z</time>
      </trkpt>
      <trkpt lat="45.72948" lon="3.12859">
        <ele>499.308563</ele>
        <time>2010-03-06T10:08:28Z</time>
      </trkpt>
      <trkpt lat="45.72951" lon="3.12846">
        <ele>499.402466</ele>
        <time>2010-03-06T10:08:34Z</time>
      </trkpt>
      <trkpt lat="45.72957" lon="3.12835">
        <ele>499.564148</ele>
        <time>2010-03-06T10:08:43Z</time>
      </trkpt>
      <trkpt lat="45.72963" lon="3.12825">
        <ele>499.835541</ele>
        <time>2010-03-06T10:08:52Z</time>
      </trkpt>
      <trkpt lat="45.7297" lon="3.12815">
        <ele>500.453583</ele>
        <time>2010-03-06T10:09:00Z</time>
      </trkpt>
      <trkpt lat="45.72973" lon="3.12802">
        <ele>501.559998</ele>
        <time>2010-03-06T10:09:06Z</time>
      </trkpt>
      <trkpt lat="45.72977" lon="3.12789">
        <ele>502.662384</ele>
        <time>2010-03-06T10:09:12Z</time>
      </trkpt>
      <trkpt lat="45.72978" lon="3.12775">
        <ele>503.90918</ele>
        <time>2010-03-06T10:09:20Z</time>
      </trkpt>
      <trkpt lat="45.72981" lon="3.12761">
        <ele>505.152069</ele>
        <time>2010-03-06T10:09:27Z</time>
      </trkpt>
      <trkpt lat="45.72984" lon="3.12749">
        <ele>506.232483</ele>
        <time>2010-03-06T10:09:35Z</time>
      </trkpt>
      <trkpt lat="45.72988" lon="3.12737">
        <ele>507.337585</ele>
        <time>2010-03-06T10:09:43Z</time>
      </trkpt>
      <trkpt lat="45.72992" lon="3.12723">
        <ele>508.616241</ele>
        <time>2010-03-06T10:09:53Z</time>
      </trkpt>
      <trkpt lat="45.72994" lon="3.1271">
        <ele>509.712494</ele>
        <time>2010-03-06T10:10:02Z</time>
      </trkpt>
      <trkpt lat="45.72998" lon="3.12697">
        <ele>510.782501</ele>
        <time>2010-03-06T10:10:10Z</time>
      </trkpt>
      <trkpt lat="45.73001" lon="3.12685">
        <ele>511.445007</ele>
        <time>2010-03-06T10:10:18Z</time>
      </trkpt>
      <trkpt lat="45.73005" lon="3.12673">
        <ele>511.910004</ele>
        <time>2010-03-06T10:10:26Z</time>
      </trkpt>
      <trkpt lat="45.73011" lon="3.12661">
        <ele>512.402527</ele>
        <time>2010-03-06T10:10:34Z</time>
      </trkpt>
      <trkpt lat="45.73018" lon="3.12652">
        <ele>512.835022</ele>
        <time>2010-03-06T10:10:43Z</time>
      </trkpt>
      <trkpt lat="45.73026" lon="3.12643">
        <ele>513.282471</ele>
        <time>2010-03-06T10:10:50Z</time>
      </trkpt>
      <trkpt lat="45.73034" lon="3.12633">
        <ele>513.817505</ele>
        <time>2010-03-06T10:11:03Z</time>
      </trkpt>
      <trkpt lat="45.73043" lon="3.12625">
        <ele>513.876038</ele>
        <time>2010-03-06T10:11:10Z</time>
      </trkpt>
      <trkpt lat="45.7305" lon="3.12617">
        <ele>513.758179</ele>
        <time>2010-03-06T10:11:19Z</time>
      </trkpt>
      <trkpt lat="45.73054" lon="3.12606">
        <ele>513.847168</ele>
        <time>2010-03-06T10:11:27Z</time>
      </trkpt>
      <trkpt lat="45.73054" lon="3.12592">
        <ele>514.192871</ele>
        <time>2010-03-06T10:11:35Z</time>
      </trkpt>
      <trkpt lat="45.73048" lon="3.12583">
        <ele>514.839478</ele>
        <time>2010-03-06T10:11:44Z</time>
      </trkpt>
      <trkpt lat="45.73038" lon="3.12581">
        <ele>515.461914</ele>
        <time>2010-03-06T10:11:51Z</time>
      </trkpt>
      <trkpt lat="45.73029" lon="3.12581">
        <ele>515.30249</ele>
        <time>2010-03-06T10:11:59Z</time>
      </trkpt>
      <trkpt lat="45.73019" lon="3.12581">
        <ele>515.090027</ele>
        <time>2010-03-06T10:12:08Z</time>
      </trkpt>
      <trkpt lat="45.7301" lon="3.12583">
        <ele>514.789978</ele>
        <time>2010-03-06T10:12:16Z</time>
      </trkpt>
      <trkpt lat="45.73" lon="3.12584">
        <ele>514.549988</ele>
        <time>2010-03-06T10:12:23Z</time>
      </trkpt>
      <trkpt lat="45.7299" lon="3.12587">
        <ele>514.143616</ele>
        <time>2010-03-06T10:12:30Z</time>
      </trkpt>
      <trkpt lat="45.72981" lon="3.12587">
        <ele>513.568665</ele>
        <time>2010-03-06T10:12:37Z</time>
      </trkpt>
      <trkpt lat="45.7297" lon="3.12587">
        <ele>512.916931</ele>
        <time>2010-03-06T10:12:43Z</time>
      </trkpt>
      <trkpt lat="45.72961" lon="3.12586">
        <ele>512.395813</ele>
        <time>2010-03-06T10:12:48Z</time>
      </trkpt>
      <trkpt lat="45.72951" lon="3.12585">
        <ele>511.866913</ele>
        <time>2010-03-06T10:12:55Z</time>
      </trkpt>
      <trkpt lat="45.72942" lon="3.12587">
        <ele>512.662537</ele>
        <time>2010-03-06T10:13:02Z</time>
      </trkpt>
      <trkpt lat="45.72932" lon="3.12589">
        <ele>514.474792</ele>
        <time>2010-03-06T10:13:12Z</time>
      </trkpt>
      <trkpt lat="45.72922" lon="3.1259">
        <ele>516.123413</ele>
        <time>2010-03-06T10:13:20Z</time>
      </trkpt>
      <trkpt lat="45.72917" lon="3.12578">
        <ele>518.021667</ele>
        <time>2010-03-06T10:13:33Z</time>
      </trkpt>
      <trkpt lat="45.72912" lon="3.12566">
        <ele>519.898865</ele>
        <time>2010-03-06T10:13:41Z</time>
      </trkpt>
      <trkpt lat="45.72908" lon="3.12552">
        <ele>521.656372</ele>
        <time>2010-03-06T10:13:48Z</time>
      </trkpt>
      <trkpt lat="45.72907" lon="3.12537">
        <ele>523.018433</ele>
        <time>2010-03-06T10:13:56Z</time>
      </trkpt>
      <trkpt lat="45.72903" lon="3.12524">
        <ele>524.389099</ele>
        <time>2010-03-06T10:14:05Z</time>
      </trkpt>
      <trkpt lat="45.72907" lon="3.1251">
        <ele>524.697083</ele>
        <time>2010-03-06T10:14:14Z</time>
      </trkpt>
      <trkpt lat="45.72907" lon="3.12497">
        <ele>525.708496</ele>
        <time>2010-03-06T10:14:21Z</time>
      </trkpt>
      <trkpt lat="45.72904" lon="3.12484">
        <ele>527.039551</ele>
        <time>2010-03-06T10:14:32Z</time>
      </trkpt>
      <trkpt lat="45.72899" lon="3.12472">
        <ele>529.656372</ele>
        <time>2010-03-06T10:14:48Z</time>
      </trkpt>
      <trkpt lat="45.7289" lon="3.12466">
        <ele>533.10614</ele>
        <time>2010-03-06T10:14:55Z</time>
      </trkpt>
      <trkpt lat="45.72882" lon="3.12458">
        <ele>536.376099</ele>
        <time>2010-03-06T10:15:06Z</time>
      </trkpt>
      <trkpt lat="45.72871" lon="3.12456">
        <ele>540.083984</ele>
        <time>2010-03-06T10:15:16Z</time>
      </trkpt>
      <trkpt lat="45.72867" lon="3.12443">
        <ele>542.08197</ele>
        <time>2010-03-06T10:15:24Z</time>
      </trkpt>
      <trkpt lat="45.72865" lon="3.12428">
        <ele>543.556641</ele>
        <time>2010-03-06T10:15:34Z</time>
      </trkpt>
      <trkpt lat="45.72864" lon="3.12414">
        <ele>544.840942</ele>
        <time>2010-03-06T10:15:43Z</time>
      </trkpt>
      <trkpt lat="45.72857" lon="3.12405">
        <ele>548.289429</ele>
        <time>2010-03-06T10:16:03Z</time>
      </trkpt>
      <trkpt lat="45.72854" lon="3.12393">
        <ele>550.506714</ele>
        <time>2010-03-06T10:16:20Z</time>
      </trkpt>
      <trkpt lat="45.72856" lon="3.12406">
        <ele>548.841309</ele>
        <time>2010-03-06T10:16:33Z</time>
      </trkpt>
      <trkpt lat="45.72859" lon="3.12394">
        <ele>548.024658</ele>
        <time>2010-03-06T10:16:55Z</time>
      </trkpt>
      <trkpt lat="45.72863" lon="3.12381">
        <ele>548.111511</ele>
        <time>2010-03-06T10:17:00Z</time>
      </trkpt>
      <trkpt lat="45.72861" lon="3.12367">
        <ele>549.872498</ele>
        <time>2010-03-06T10:17:09Z</time>
      </trkpt>
      <trkpt lat="45.72853" lon="3.12358">
        <ele>554.186157</ele>
        <time>2010-03-06T10:17:16Z</time>
      </trkpt>
      <trkpt lat="45.72843" lon="3.12351">
        <ele>558.875122</ele>
        <time>2010-03-06T10:17:24Z</time>
      </trkpt>
      <trkpt lat="45.72836" lon="3.1236">
        <ele>561.351807</ele>
        <time>2010-03-06T10:17:38Z</time>
      </trkpt>
      <trkpt lat="45.7283" lon="3.12371">
        <ele>563.339905</ele>
        <time>2010-03-06T10:18:05Z</time>
      </trkpt>
      <trkpt lat="45.72842" lon="3.12369">
        <ele>557.925659</ele>
        <time>2010-03-06T10:18:19Z</time>
      </trkpt>
      <trkpt lat="45.72852" lon="3.12368">
        <ele>553.611877</ele>
        <time>2010-03-06T10:18:22Z</time>
      </trkpt>
      <trkpt lat="45.72861" lon="3.12364">
        <ele>549.932495</ele>
        <time>2010-03-06T10:18:26Z</time>
      </trkpt>
      <trkpt lat="45.72873" lon="3.12362">
        <ele>546.862488</ele>
        <time>2010-03-06T10:18:34Z</time>
      </trkpt>
      <trkpt lat="45.72881" lon="3.12368">
        <ele>543.799988</ele>
        <time>2010-03-06T10:18:39Z</time>
      </trkpt>
      <trkpt lat="45.72887" lon="3.12378">
        <ele>541.195374</ele>
        <time>2010-03-06T10:18:49Z</time>
      </trkpt>
      <trkpt lat="45.7288" lon="3.1239">
        <ele>542.200256</ele>
        <time>2010-03-06T10:18:57Z</time>
      </trkpt>
      <trkpt lat="45.72871" lon="3.124">
        <ele>544.141235</ele>
        <time>2010-03-06T10:19:01Z</time>
      </trkpt>
      <trkpt lat="45.72863" lon="3.1241">
        <ele>545.778687</ele>
        <time>2010-03-06T10:19:05Z</time>
      </trkpt>
      <trkpt lat="45.72854" lon="3.12422">
        <ele>548.638611</ele>
        <time>2010-03-06T10:19:10Z</time>
      </trkpt>
      <trkpt lat="45.72846" lon="3.12432">
        <ele>552.157166</ele>
        <time>2010-03-06T10:19:13Z</time>
      </trkpt>
      <trkpt lat="45.72841" lon="3.12444">
        <ele>554.03125</ele>
        <time>2010-03-06T10:19:20Z</time>
      </trkpt>
      <trkpt lat="45.72846" lon="3.12456">
        <ele>551.231934</ele>
        <time>2010-03-06T10:19:27Z</time>
      </trkpt>
      <trkpt lat="45.72856" lon="3.12461">
        <ele>545.387695</ele>
        <time>2010-03-06T10:19:31Z</time>
      </trkpt>
      <trkpt lat="45.72863" lon="3.1247">
        <ele>542.224915</ele>
        <time>2010-03-06T10:19:38Z</time>
      </trkpt>
      <trkpt lat="45.72868" lon="3.12482">
        <ele>540.222412</ele>
        <time>2010-03-06T10:19:45Z</time>
      </trkpt>
      <trkpt lat="45.72863" lon="3.12493">
        <ele>541.595459</ele>
        <time>2010-03-06T10:19:50Z</time>
      </trkpt>
      <trkpt lat="45.72863" lon="3.12508">
        <ele>541.190674</ele>
        <time>2010-03-06T10:19:59Z</time>
      </trkpt>
      <trkpt lat="45.72869" lon="3.12518">
        <ele>538.487122</ele>
        <time>2010-03-06T10:20:06Z</time>
      </trkpt>
      <trkpt lat="45.72869" lon="3.12532">
        <ele>537.780396</ele>
        <time>2010-03-06T10:20:14Z</time>
      </trkpt>
      <trkpt lat="45.72865" lon="3.12546">
        <ele>539.264404</ele>
        <time>2010-03-06T10:20:23Z</time>
      </trkpt>
      <trkpt lat="45.72864" lon="3.1256">
        <ele>539.15564</ele>
        <time>2010-03-06T10:20:29Z</time>
      </trkpt>
      <trkpt lat="45.72857" lon="3.1257">
        <ele>542.062805</ele>
        <time>2010-03-06T10:20:32Z</time>
      </trkpt>
      <trkpt lat="45.72864" lon="3.12579">
        <ele>538.462097</ele>
        <time>2010-03-06T10:20:39Z</time>
      </trkpt>
      <trkpt lat="45.72866" lon="3.12592">
        <ele>536.885742</ele>
        <time>2010-03-06T10:20:45Z</time>
      </trkpt>
      <trkpt lat="45.72867" lon="3.12606">
        <ele>535.549133</ele>
        <time>2010-03-06T10:20:52Z</time>
      </trkpt>
      <trkpt lat="45.7287" lon="3.12619">
        <ele>533.253845</ele>
        <time>2010-03-06T10:20:59Z</time>
      </trkpt>
      <trkpt lat="45.72876" lon="3.1263">
        <ele>529.907227</ele>
        <time>2010-03-06T10:21:07Z</time>
      </trkpt>
      <trkpt lat="45.72875" lon="3.12645">
        <ele>529.803955</ele>
        <time>2010-03-06T10:21:15Z</time>
      </trkpt>
      <trkpt lat="45.72871" lon="3.12659">
        <ele>530.566406</ele>
        <time>2010-03-06T10:21:23Z</time>
      </trkpt>
      <trkpt lat="45.72872" lon="3.12673">
        <ele>529.558044</ele>
        <time>2010-03-06T10:21:31Z</time>
      </trkpt>
      <trkpt lat="45.72866" lon="3.12685">
        <ele>531.032043</ele>
        <time>2010-03-06T10:21:36Z</time>
      </trkpt>
      <trkpt lat="45.72863" lon="3.12697">
        <ele>531.397827</ele>
        <time>2010-03-06T10:21:44Z</time>
      </trkpt>
      <trkpt lat="45.72856" lon="3.12707">
        <ele>532.664795</ele>
        <time>2010-03-06T10:21:51Z</time>
      </trkpt>
      <trkpt lat="45.72851" lon="3.1272">
        <ele>532.914063</ele>
        <time>2010-03-06T10:22:00Z</time>
      </trkpt>
      <trkpt lat="45.72845" lon="3.12731">
        <ele>533.51532</ele>
        <time>2010-03-06T10:22:08Z</time>
      </trkpt>
      <trkpt lat="45.7284" lon="3.12743">
        <ele>533.675659</ele>
        <time>2010-03-06T10:22:14Z</time>
      </trkpt>
      <trkpt lat="45.72834" lon="3.12753">
        <ele>534.286743</ele>
        <time>2010-03-06T10:22:21Z</time>
      </trkpt>
      <trkpt lat="45.72827" lon="3.12762">
        <ele>535.02002</ele>
        <time>2010-03-06T10:22:27Z</time>
      </trkpt>
      <trkpt lat="45.72819" lon="3.12769">
        <ele>536.269958</ele>
        <time>2010-03-06T10:22:34Z</time>
      </trkpt>
      <trkpt lat="45.7281" lon="3.12777">
        <ele>537.487061</ele>
        <time>2010-03-06T10:22:44Z</time>
      </trkpt>
      <trkpt lat="45.72802" lon="3.12787">
        <ele>538.754333</ele>
        <time>2010-03-06T10:22:50Z</time>
      </trkpt>
      <trkpt lat="45.72797" lon="3.12802">
        <ele>538.507813</ele>
        <time>2010-03-06T10:22:54Z</time>
      </trkpt>
      <trkpt lat="45.72791" lon="3.12814">
        <ele>538.461304</ele>
        <time>2010-03-06T10:22:58Z</time>
      </trkpt>
      <trkpt lat="45.72783" lon="3.12828">
        <ele>538.406006</ele>
        <time>2010-03-06T10:23:04Z</time>
      </trkpt>
      <trkpt lat="45.72772" lon="3.12837">
        <ele>539.874329</ele>
        <time>2010-03-06T10:23:07Z</time>
      </trkpt>
      <trkpt lat="45.72765" lon="3.12846">
        <ele>540.019104</ele>
        <time>2010-03-06T10:23:11Z</time>
      </trkpt>
      <trkpt lat="45.72757" lon="3.12855">
        <ele>539.797485</ele>
        <time>2010-03-06T10:23:15Z</time>
      </trkpt>
      <trkpt lat="45.72749" lon="3.12863">
        <ele>539.987793</ele>
        <time>2010-03-06T10:23:18Z</time>
      </trkpt>
      <trkpt lat="45.72741" lon="3.1287">
        <ele>540.027893</ele>
        <time>2010-03-06T10:23:21Z</time>
      </trkpt>
      <trkpt lat="45.7273" lon="3.12874">
        <ele>541.017151</ele>
        <time>2010-03-06T10:23:25Z</time>
      </trkpt>
      <trkpt lat="45.72718" lon="3.12879">
        <ele>542.206421</ele>
        <time>2010-03-06T10:23:29Z</time>
      </trkpt>
      <trkpt lat="45.72708" lon="3.12887">
        <ele>542.352661</ele>
        <time>2010-03-06T10:23:33Z</time>
      </trkpt>
      <trkpt lat="45.72698" lon="3.1289">
        <ele>543.553833</ele>
        <time>2010-03-06T10:23:37Z</time>
      </trkpt>
      <trkpt lat="45.7269" lon="3.12896">
        <ele>543.725037</ele>
        <time>2010-03-06T10:23:40Z</time>
      </trkpt>
      <trkpt lat="45.72678" lon="3.12892">
        <ele>546.759155</ele>
        <time>2010-03-06T10:23:45Z</time>
      </trkpt>
      <trkpt lat="45.72667" lon="3.12892">
        <ele>548.659973</ele>
        <time>2010-03-06T10:23:50Z</time>
      </trkpt>
      <trkpt lat="45.72657" lon="3.12894">
        <ele>549.960022</ele>
        <time>2010-03-06T10:23:54Z</time>
      </trkpt>
      <trkpt lat="45.72646" lon="3.12892">
        <ele>552.399963</ele>
        <time>2010-03-06T10:23:59Z</time>
      </trkpt>
      <trkpt lat="45.72637" lon="3.12896">
        <ele>553.02002</ele>
        <time>2010-03-06T10:24:03Z</time>
      </trkpt>
      <trkpt lat="45.72626" lon="3.12896">
        <ele>554.957275</ele>
        <time>2010-03-06T10:24:07Z</time>
      </trkpt>
      <trkpt lat="45.72616" lon="3.12898">
        <ele>556.437012</ele>
        <time>2010-03-06T10:24:11Z</time>
      </trkpt>
      <trkpt lat="45.72605" lon="3.12902">
        <ele>557.307922</ele>
        <time>2010-03-06T10:24:15Z</time>
      </trkpt>
      <trkpt lat="45.72594" lon="3.12902">
        <ele>559.428711</ele>
        <time>2010-03-06T10:24:20Z</time>
      </trkpt>
      <trkpt lat="45.72583" lon="3.12903">
        <ele>561.354736</ele>
        <time>2010-03-06T10:24:24Z</time>
      </trkpt>
      <trkpt lat="45.72572" lon="3.12907">
        <ele>562.520874</ele>
        <time>2010-03-06T10:24:28Z</time>
      </trkpt>
      <trkpt lat="45.72563" lon="3.12912">
        <ele>562.775024</ele>
        <time>2010-03-06T10:24:33Z</time>
      </trkpt>
      <trkpt lat="45.72554" lon="3.12918">
        <ele>562.818848</ele>
        <time>2010-03-06T10:24:37Z</time>
      </trkpt>
      <trkpt lat="45.72545" lon="3.12925">
        <ele>562.542725</ele>
        <time>2010-03-06T10:24:41Z</time>
      </trkpt>
      <trkpt lat="45.72535" lon="3.12927">
        <ele>564.088745</ele>
        <time>2010-03-06T10:24:46Z</time>
      </trkpt>
      <trkpt lat="45.72524" lon="3.12932">
        <ele>565.355469</ele>
        <time>2010-03-06T10:24:54Z</time>
      </trkpt>
      <trkpt lat="45.72517" lon="3.12942">
        <ele>563.982117</ele>
        <time>2010-03-06T10:25:02Z</time>
      </trkpt>
      <trkpt lat="45.72508" lon="3.12949">
        <ele>564.042358</ele>
        <time>2010-03-06T10:25:07Z</time>
      </trkpt>
      <trkpt lat="45.725" lon="3.12958">
        <ele>563.3349</ele>
        <time>2010-03-06T10:25:11Z</time>
      </trkpt>
      <trkpt lat="45.72491" lon="3.12969">
        <ele>562.4151</ele>
        <time>2010-03-06T10:25:16Z</time>
      </trkpt>
      <trkpt lat="45.7248" lon="3.12975">
        <ele>563.342041</ele>
        <time>2010-03-06T10:25:21Z</time>
      </trkpt>
      <trkpt lat="45.7247" lon="3.12978">
        <ele>564.786316</ele>
        <time>2010-03-06T10:25:25Z</time>
      </trkpt>
      <trkpt lat="45.72461" lon="3.12987">
        <ele>564.102905</ele>
        <time>2010-03-06T10:25:29Z</time>
      </trkpt>
      <trkpt lat="45.72452" lon="3.12995">
        <ele>563.652344</ele>
        <time>2010-03-06T10:25:33Z</time>
      </trkpt>
      <trkpt lat="45.72441" lon="3.12997">
        <ele>565.620972</ele>
        <time>2010-03-06T10:25:37Z</time>
      </trkpt>
      <trkpt lat="45.7243" lon="3.13">
        <ele>567.661743</ele>
        <time>2010-03-06T10:25:42Z</time>
      </trkpt>
      <trkpt lat="45.72419" lon="3.13005">
        <ele>568.965393</ele>
        <time>2010-03-06T10:25:46Z</time>
      </trkpt>
      <trkpt lat="45.7241" lon="3.1301">
        <ele>570.009705</ele>
        <time>2010-03-06T10:25:49Z</time>
      </trkpt>
      <trkpt lat="45.72401" lon="3.13017">
        <ele>569.94751</ele>
        <time>2010-03-06T10:25:52Z</time>
      </trkpt>
      <trkpt lat="45.72389" lon="3.1302">
        <ele>571.252502</ele>
        <time>2010-03-06T10:25:58Z</time>
      </trkpt>
      <trkpt lat="45.72379" lon="3.13018">
        <ele>573.828735</ele>
        <time>2010-03-06T10:26:02Z</time>
      </trkpt>
      <trkpt lat="45.72368" lon="3.13023">
        <ele>574.267517</ele>
        <time>2010-03-06T10:26:06Z</time>
      </trkpt>
      <trkpt lat="45.72357" lon="3.13023">
        <ele>576.56189</ele>
        <time>2010-03-06T10:26:10Z</time>
      </trkpt>
      <trkpt lat="45.72347" lon="3.13018">
        <ele>579.753418</ele>
        <time>2010-03-06T10:26:14Z</time>
      </trkpt>
      <trkpt lat="45.72337" lon="3.13021">
        <ele>580.531433</ele>
        <time>2010-03-06T10:26:19Z</time>
      </trkpt>
      <trkpt lat="45.72328" lon="3.13025">
        <ele>580.601135</ele>
        <time>2010-03-06T10:26:22Z</time>
      </trkpt>
      <trkpt lat="45.7232" lon="3.13034">
        <ele>579.264465</ele>
        <time>2010-03-06T10:26:29Z</time>
      </trkpt>
      <trkpt lat="45.72312" lon="3.13047">
        <ele>576.80127</ele>
        <time>2010-03-06T10:26:33Z</time>
      </trkpt>
      <trkpt lat="45.72303" lon="3.13058">
        <ele>575.231262</ele>
        <time>2010-03-06T10:26:37Z</time>
      </trkpt>
      <trkpt lat="45.72294" lon="3.13066">
        <ele>574.368713</ele>
        <time>2010-03-06T10:26:41Z</time>
      </trkpt>
      <trkpt lat="45.72285" lon="3.13069">
        <ele>574.869812</ele>
        <time>2010-03-06T10:26:45Z</time>
      </trkpt>
      <trkpt lat="45.72274" lon="3.13076">
        <ele>574.829468</ele>
        <time>2010-03-06T10:26:49Z</time>
      </trkpt>
      <trkpt lat="45.72264" lon="3.13084">
        <ele>574.726929</ele>
        <time>2010-03-06T10:26:53Z</time>
      </trkpt>
      <trkpt lat="45.72254" lon="3.1309">
        <ele>575.687988</ele>
        <time>2010-03-06T10:26:57Z</time>
      </trkpt>
      <trkpt lat="45.72244" lon="3.13093">
        <ele>577.136108</ele>
        <time>2010-03-06T10:27:01Z</time>
      </trkpt>
      <trkpt lat="45.72233" lon="3.13097">
        <ele>578.792419</ele>
        <time>2010-03-06T10:27:06Z</time>
      </trkpt>
      <trkpt lat="45.72223" lon="3.131">
        <ele>580.48877</ele>
        <time>2010-03-06T10:27:13Z</time>
      </trkpt>
      <trkpt lat="45.72216" lon="3.13109">
        <ele>579.4375</ele>
        <time>2010-03-06T10:27:21Z</time>
      </trkpt>
      <trkpt lat="45.72207" lon="3.13111">
        <ele>580.251282</ele>
        <time>2010-03-06T10:27:29Z</time>
      </trkpt>
      <trkpt lat="45.72196" lon="3.13115">
        <ele>581.032471</ele>
        <time>2010-03-06T10:27:37Z</time>
      </trkpt>
      <trkpt lat="45.72187" lon="3.13111">
        <ele>583.308777</ele>
        <time>2010-03-06T10:27:46Z</time>
      </trkpt>
      <trkpt lat="45.72178" lon="3.13108">
        <ele>585.279358</ele>
        <time>2010-03-06T10:27:54Z</time>
      </trkpt>
      <trkpt lat="45.72169" lon="3.13102">
        <ele>586.495728</ele>
        <time>2010-03-06T10:28:03Z</time>
      </trkpt>
      <trkpt lat="45.7216" lon="3.13099">
        <ele>587.321472</ele>
        <time>2010-03-06T10:28:13Z</time>
      </trkpt>
      <trkpt lat="45.72151" lon="3.13093">
        <ele>588.658875</ele>
        <time>2010-03-06T10:28:22Z</time>
      </trkpt>
      <trkpt lat="45.72142" lon="3.13087">
        <ele>590.290527</ele>
        <time>2010-03-06T10:28:29Z</time>
      </trkpt>
      <trkpt lat="45.7215" lon="3.13078">
        <ele>592.540344</ele>
        <time>2010-03-06T10:28:56Z</time>
      </trkpt>
      <trkpt lat="45.72159" lon="3.13077">
        <ele>592.669128</ele>
        <time>2010-03-06T10:29:05Z</time>
      </trkpt>
      <trkpt lat="45.72169" lon="3.13074">
        <ele>593.405579</ele>
        <time>2010-03-06T10:29:17Z</time>
      </trkpt>
      <trkpt lat="45.72178" lon="3.13071">
        <ele>593.921448</ele>
        <time>2010-03-06T10:29:26Z</time>
      </trkpt>
      <trkpt lat="45.72187" lon="3.13067">
        <ele>593.825012</ele>
        <time>2010-03-06T10:29:36Z</time>
      </trkpt>
      <trkpt lat="45.72196" lon="3.13065">
        <ele>592.932495</ele>
        <time>2010-03-06T10:29:45Z</time>
      </trkpt>
      <trkpt lat="45.72205" lon="3.13058">
        <ele>593.467468</ele>
        <time>2010-03-06T10:29:53Z</time>
      </trkpt>
      <trkpt lat="45.72214" lon="3.13051">
        <ele>594.287476</ele>
        <time>2010-03-06T10:30:02Z</time>
      </trkpt>
      <trkpt lat="45.72223" lon="3.13044">
        <ele>595.08374</ele>
        <time>2010-03-06T10:30:11Z</time>
      </trkpt>
      <trkpt lat="45.72232" lon="3.13038">
        <ele>595.018738</ele>
        <time>2010-03-06T10:30:20Z</time>
      </trkpt>
      <trkpt lat="45.72241" lon="3.13031">
        <ele>594.993713</ele>
        <time>2010-03-06T10:30:28Z</time>
      </trkpt>
      <trkpt lat="45.72249" lon="3.13024">
        <ele>595.330017</ele>
        <time>2010-03-06T10:30:36Z</time>
      </trkpt>
      <trkpt lat="45.72256" lon="3.13014">
        <ele>597.036255</ele>
        <time>2010-03-06T10:30:46Z</time>
      </trkpt>
      <trkpt lat="45.72265" lon="3.13007">
        <ele>596.836243</ele>
        <time>2010-03-06T10:30:59Z</time>
      </trkpt>
      <trkpt lat="45.72273" lon="3.12999">
        <ele>597.851257</ele>
        <time>2010-03-06T10:31:07Z</time>
      </trkpt>
      <trkpt lat="45.7228" lon="3.12989">
        <ele>599.932495</ele>
        <time>2010-03-06T10:31:17Z</time>
      </trkpt>
      <trkpt lat="45.72286" lon="3.12978">
        <ele>602.356262</ele>
        <time>2010-03-06T10:31:27Z</time>
      </trkpt>
      <trkpt lat="45.72294" lon="3.1297">
        <ele>603.66748</ele>
        <time>2010-03-06T10:31:35Z</time>
      </trkpt>
      <trkpt lat="45.72302" lon="3.12963">
        <ele>604.662476</ele>
        <time>2010-03-06T10:31:43Z</time>
      </trkpt>
      <trkpt lat="45.7231" lon="3.12956">
        <ele>605.591248</ele>
        <time>2010-03-06T10:31:52Z</time>
      </trkpt>
      <trkpt lat="45.72319" lon="3.1295">
        <ele>606.278931</ele>
        <time>2010-03-06T10:32:01Z</time>
      </trkpt>
      <trkpt lat="45.72328" lon="3.12943">
        <ele>607.206482</ele>
        <time>2010-03-06T10:32:11Z</time>
      </trkpt>
      <trkpt lat="45.72337" lon="3.12941">
        <ele>606.875122</ele>
        <time>2010-03-06T10:32:20Z</time>
      </trkpt>
      <trkpt lat="45.72346" lon="3.12937">
        <ele>606.912537</ele>
        <time>2010-03-06T10:32:29Z</time>
      </trkpt>
      <trkpt lat="45.72355" lon="3.12934">
        <ele>606.59668</ele>
        <time>2010-03-06T10:32:38Z</time>
      </trkpt>
      <trkpt lat="45.72365" lon="3.12932">
        <ele>605.934021</ele>
        <time>2010-03-06T10:32:47Z</time>
      </trkpt>
      <trkpt lat="45.72373" lon="3.12925">
        <ele>606.332642</ele>
        <time>2010-03-06T10:32:57Z</time>
      </trkpt>
      <trkpt lat="45.72381" lon="3.12918">
        <ele>606.888</ele>
        <time>2010-03-06T10:33:05Z</time>
      </trkpt>
      <trkpt lat="45.72389" lon="3.12911">
        <ele>607.360535</ele>
        <time>2010-03-06T10:33:14Z</time>
      </trkpt>
      <trkpt lat="45.72398" lon="3.12905">
        <ele>607.48468</ele>
        <time>2010-03-06T10:33:23Z</time>
      </trkpt>
      <trkpt lat="45.72407" lon="3.12899">
        <ele>607.207642</ele>
        <time>2010-03-06T10:33:31Z</time>
      </trkpt>
      <trkpt lat="45.72416" lon="3.12891">
        <ele>606.897583</ele>
        <time>2010-03-06T10:33:40Z</time>
      </trkpt>
      <trkpt lat="45.72423" lon="3.12881">
        <ele>607.641479</ele>
        <time>2010-03-06T10:33:50Z</time>
      </trkpt>
      <trkpt lat="45.72429" lon="3.12871">
        <ele>608.795837</ele>
        <time>2010-03-06T10:33:59Z</time>
      </trkpt>
      <trkpt lat="45.72431" lon="3.12857">
        <ele>611.349487</ele>
        <time>2010-03-06T10:34:11Z</time>
      </trkpt>
      <trkpt lat="45.72433" lon="3.12845">
        <ele>613.624939</ele>
        <time>2010-03-06T10:34:20Z</time>
      </trkpt>
      <trkpt lat="45.72436" lon="3.12832">
        <ele>615.926453</ele>
        <time>2010-03-06T10:34:29Z</time>
      </trkpt>
      <trkpt lat="45.72444" lon="3.12822">
        <ele>616.531372</ele>
        <time>2010-03-06T10:34:39Z</time>
      </trkpt>
      <trkpt lat="45.72452" lon="3.12815">
        <ele>616.395813</ele>
        <time>2010-03-06T10:34:47Z</time>
      </trkpt>
      <trkpt lat="45.7246" lon="3.12805">
        <ele>617.165894</ele>
        <time>2010-03-06T10:34:55Z</time>
      </trkpt>
      <trkpt lat="45.7247" lon="3.128">
        <ele>616.563538</ele>
        <time>2010-03-06T10:35:01Z</time>
      </trkpt>
      <trkpt lat="45.72479" lon="3.12793">
        <ele>616.395752</ele>
        <time>2010-03-06T10:35:07Z</time>
      </trkpt>
      <trkpt lat="45.72488" lon="3.12786">
        <ele>616.717102</ele>
        <time>2010-03-06T10:35:14Z</time>
      </trkpt>
      <trkpt lat="45.72496" lon="3.12778">
        <ele>617.605713</ele>
        <time>2010-03-06T10:35:23Z</time>
      </trkpt>
      <trkpt lat="45.72503" lon="3.12767">
        <ele>619.304016</ele>
        <time>2010-03-06T10:35:32Z</time>
      </trkpt>
      <trkpt lat="45.72512" lon="3.12757">
        <ele>620.89032</ele>
        <time>2010-03-06T10:35:40Z</time>
      </trkpt>
      <trkpt lat="45.7252" lon="3.12748">
        <ele>622.391479</ele>
        <time>2010-03-06T10:35:49Z</time>
      </trkpt>
      <trkpt lat="45.72528" lon="3.12741">
        <ele>622.614502</ele>
        <time>2010-03-06T10:35:58Z</time>
      </trkpt>
      <trkpt lat="45.72539" lon="3.1274">
        <ele>621.542908</ele>
        <time>2010-03-06T10:36:06Z</time>
      </trkpt>
      <trkpt lat="45.72548" lon="3.12738">
        <ele>620.663269</ele>
        <time>2010-03-06T10:36:25Z</time>
      </trkpt>
      <trkpt lat="45.72539" lon="3.1274">
        <ele>621.542908</ele>
        <time>2010-03-06T10:42:02Z</time>
      </trkpt>
      <trkpt lat="45.72535" lon="3.12728">
        <ele>624.538696</ele>
        <time>2010-03-06T10:42:19Z</time>
      </trkpt>
      <trkpt lat="45.72542" lon="3.12715">
        <ele>626.684021</ele>
        <time>2010-03-06T10:42:25Z</time>
      </trkpt>
      <trkpt lat="45.72549" lon="3.12702">
        <ele>628.836121</ele>
        <time>2010-03-06T10:42:30Z</time>
      </trkpt>
      <trkpt lat="45.72557" lon="3.1269">
        <ele>630.771301</ele>
        <time>2010-03-06T10:42:34Z</time>
      </trkpt>
      <trkpt lat="45.72563" lon="3.12677">
        <ele>631.983032</ele>
        <time>2010-03-06T10:42:38Z</time>
      </trkpt>
      <trkpt lat="45.7257" lon="3.12662">
        <ele>632.666687</ele>
        <time>2010-03-06T10:42:42Z</time>
      </trkpt>
      <trkpt lat="45.72574" lon="3.12647">
        <ele>633.670349</ele>
        <time>2010-03-06T10:42:46Z</time>
      </trkpt>
      <trkpt lat="45.72579" lon="3.12633">
        <ele>634.655579</ele>
        <time>2010-03-06T10:42:50Z</time>
      </trkpt>
      <trkpt lat="45.72584" lon="3.12621">
        <ele>635.213501</ele>
        <time>2010-03-06T10:42:54Z</time>
      </trkpt>
      <trkpt lat="45.7259" lon="3.12607">
        <ele>634.669983</ele>
        <time>2010-03-06T10:42:58Z</time>
      </trkpt>
      <trkpt lat="45.72593" lon="3.12594">
        <ele>634.265015</ele>
        <time>2010-03-06T10:43:02Z</time>
      </trkpt>
      <trkpt lat="45.72595" lon="3.12579">
        <ele>634.039978</ele>
        <time>2010-03-06T10:43:06Z</time>
      </trkpt>
      <trkpt lat="45.726" lon="3.12565">
        <ele>633.455017</ele>
        <time>2010-03-06T10:43:10Z</time>
      </trkpt>
      <trkpt lat="45.72604" lon="3.12554">
        <ele>632.648743</ele>
        <time>2010-03-06T10:43:14Z</time>
      </trkpt>
      <trkpt lat="45.72609" lon="3.12539">
        <ele>631.30249</ele>
        <time>2010-03-06T10:43:18Z</time>
      </trkpt>
      <trkpt lat="45.72613" lon="3.12526">
        <ele>630.098755</ele>
        <time>2010-03-06T10:43:22Z</time>
      </trkpt>
      <trkpt lat="45.72614" lon="3.12512">
        <ele>629.408752</ele>
        <time>2010-03-06T10:43:26Z</time>
      </trkpt>
      <trkpt lat="45.7261" lon="3.12501">
        <ele>629.464966</ele>
        <time>2010-03-06T10:43:29Z</time>
      </trkpt>
      <trkpt lat="45.72604" lon="3.1249">
        <ele>629.595032</ele>
        <time>2010-03-06T10:43:32Z</time>
      </trkpt>
      <trkpt lat="45.72598" lon="3.12476">
        <ele>629.391235</ele>
        <time>2010-03-06T10:43:36Z</time>
      </trkpt>
      <trkpt lat="45.72591" lon="3.12463">
        <ele>629.202515</ele>
        <time>2010-03-06T10:43:40Z</time>
      </trkpt>
      <trkpt lat="45.72587" lon="3.12448">
        <ele>628.740662</ele>
        <time>2010-03-06T10:43:44Z</time>
      </trkpt>
      <trkpt lat="45.72585" lon="3.12432">
        <ele>627.867188</ele>
        <time>2010-03-06T10:43:48Z</time>
      </trkpt>
      <trkpt lat="45.72585" lon="3.12418">
        <ele>627.177368</ele>
        <time>2010-03-06T10:43:51Z</time>
      </trkpt>
      <trkpt lat="45.72586" lon="3.12404">
        <ele>626.431519</ele>
        <time>2010-03-06T10:43:54Z</time>
      </trkpt>
      <trkpt lat="45.72586" lon="3.12388">
        <ele>625.777832</ele>
        <time>2010-03-06T10:43:58Z</time>
      </trkpt>
      <trkpt lat="45.72586" lon="3.12373">
        <ele>625.004456</ele>
        <time>2010-03-06T10:44:02Z</time>
      </trkpt>
      <trkpt lat="45.72585" lon="3.1236">
        <ele>625.216919</ele>
        <time>2010-03-06T10:44:05Z</time>
      </trkpt>
      <trkpt lat="45.72583" lon="3.12345">
        <ele>626.384033</ele>
        <time>2010-03-06T10:44:09Z</time>
      </trkpt>
      <trkpt lat="45.72581" lon="3.12331">
        <ele>627.388184</ele>
        <time>2010-03-06T10:44:13Z</time>
      </trkpt>
      <trkpt lat="45.72581" lon="3.12317">
        <ele>627.950012</ele>
        <time>2010-03-06T10:44:16Z</time>
      </trkpt>
      <trkpt lat="45.72581" lon="3.12304">
        <ele>628.398254</ele>
        <time>2010-03-06T10:44:19Z</time>
      </trkpt>
      <trkpt lat="45.7258" lon="3.12289">
        <ele>627.916382</ele>
        <time>2010-03-06T10:44:22Z</time>
      </trkpt>
      <trkpt lat="45.72579" lon="3.12275">
        <ele>627.144226</ele>
        <time>2010-03-06T10:44:26Z</time>
      </trkpt>
      <trkpt lat="45.72578" lon="3.12257">
        <ele>626.1875</ele>
        <time>2010-03-06T10:44:29Z</time>
      </trkpt>
      <trkpt lat="45.72576" lon="3.12242">
        <ele>625.576233</ele>
        <time>2010-03-06T10:44:31Z</time>
      </trkpt>
      <trkpt lat="45.72574" lon="3.12227">
        <ele>625.094055</ele>
        <time>2010-03-06T10:44:33Z</time>
      </trkpt>
      <trkpt lat="45.72573" lon="3.12213">
        <ele>624.678711</ele>
        <time>2010-03-06T10:44:35Z</time>
      </trkpt>
      <trkpt lat="45.72569" lon="3.12198">
        <ele>624.746765</ele>
        <time>2010-03-06T10:44:37Z</time>
      </trkpt>
      <trkpt lat="45.72565" lon="3.12184">
        <ele>624.685913</ele>
        <time>2010-03-06T10:44:39Z</time>
      </trkpt>
      <trkpt lat="45.7256" lon="3.12169">
        <ele>624.647705</ele>
        <time>2010-03-06T10:44:41Z</time>
      </trkpt>
      <trkpt lat="45.72554" lon="3.12152">
        <ele>624.665894</ele>
        <time>2010-03-06T10:44:43Z</time>
      </trkpt>
      <trkpt lat="45.72551" lon="3.12139">
        <ele>624.401001</ele>
        <time>2010-03-06T10:44:45Z</time>
      </trkpt>
      <trkpt lat="45.72549" lon="3.12119">
        <ele>623.39917</ele>
        <time>2010-03-06T10:44:48Z</time>
      </trkpt>
      <trkpt lat="45.72548" lon="3.12104">
        <ele>622.589355</ele>
        <time>2010-03-06T10:44:50Z</time>
      </trkpt>
      <trkpt lat="45.72543" lon="3.12086">
        <ele>622.971313</ele>
        <time>2010-03-06T10:44:52Z</time>
      </trkpt>
      <trkpt lat="45.72539" lon="3.1207">
        <ele>623.665649</ele>
        <time>2010-03-06T10:44:54Z</time>
      </trkpt>
      <trkpt lat="45.72536" lon="3.12056">
        <ele>624.180359</ele>
        <time>2010-03-06T10:44:56Z</time>
      </trkpt>
      <trkpt lat="45.72537" lon="3.12042">
        <ele>623.402405</ele>
        <time>2010-03-06T10:44:58Z</time>
      </trkpt>
      <trkpt lat="45.72534" lon="3.12029">
        <ele>625.350403</ele>
        <time>2010-03-06T10:45:00Z</time>
      </trkpt>
      <trkpt lat="45.7253" lon="3.12017">
        <ele>627.692261</ele>
        <time>2010-03-06T10:45:03Z</time>
      </trkpt>
      <trkpt lat="45.72525" lon="3.12005">
        <ele>629.741394</ele>
        <time>2010-03-06T10:45:07Z</time>
      </trkpt>
      <trkpt lat="45.72518" lon="3.11997">
        <ele>632.189514</ele>
        <time>2010-03-06T10:45:11Z</time>
      </trkpt>
      <trkpt lat="45.7251" lon="3.11988">
        <ele>634.222351</ele>
        <time>2010-03-06T10:45:16Z</time>
      </trkpt>
      <trkpt lat="45.72503" lon="3.11977">
        <ele>635.729797</ele>
        <time>2010-03-06T10:45:20Z</time>
      </trkpt>
      <trkpt lat="45.72497" lon="3.11967">
        <ele>637.272217</ele>
        <time>2010-03-06T10:45:25Z</time>
      </trkpt>
      <trkpt lat="45.72501" lon="3.11954">
        <ele>636.201721</ele>
        <time>2010-03-06T10:45:33Z</time>
      </trkpt>
      <trkpt lat="45.72492" lon="3.1195">
        <ele>638.241089</ele>
        <time>2010-03-06T10:45:49Z</time>
      </trkpt>
      <trkpt lat="45.7249" lon="3.11936">
        <ele>638.369019</ele>
        <time>2010-03-06T10:45:57Z</time>
      </trkpt>
      <trkpt lat="45.72485" lon="3.11925">
        <ele>639.020081</ele>
        <time>2010-03-06T10:46:06Z</time>
      </trkpt>
      <trkpt lat="45.7248" lon="3.11913">
        <ele>639.5</ele>
        <time>2010-03-06T10:46:11Z</time>
      </trkpt>
      <trkpt lat="45.72476" lon="3.11901">
        <ele>640.159485</ele>
        <time>2010-03-06T10:46:15Z</time>
      </trkpt>
      <trkpt lat="45.72471" lon="3.1189">
        <ele>640.746521</ele>
        <time>2010-03-06T10:46:18Z</time>
      </trkpt>
      <trkpt lat="45.72466" lon="3.11878">
        <ele>641.334351</ele>
        <time>2010-03-06T10:46:21Z</time>
      </trkpt>
      <trkpt lat="45.72461" lon="3.11867">
        <ele>641.950317</ele>
        <time>2010-03-06T10:46:25Z</time>
      </trkpt>
      <trkpt lat="45.72456" lon="3.11854">
        <ele>642.673462</ele>
        <time>2010-03-06T10:46:29Z</time>
      </trkpt>
      <trkpt lat="45.72449" lon="3.11839">
        <ele>644.499512</ele>
        <time>2010-03-06T10:46:33Z</time>
      </trkpt>
      <trkpt lat="45.72442" lon="3.1183">
        <ele>646.272522</ele>
        <time>2010-03-06T10:46:37Z</time>
      </trkpt>
      <trkpt lat="45.72442" lon="3.11815">
        <ele>646.689575</ele>
        <time>2010-03-06T10:46:40Z</time>
      </trkpt>
      <trkpt lat="45.72445" lon="3.11803">
        <ele>646.312866</ele>
        <time>2010-03-06T10:46:42Z</time>
      </trkpt>
      <trkpt lat="45.72449" lon="3.11788">
        <ele>646.14856</ele>
        <time>2010-03-06T10:46:44Z</time>
      </trkpt>
      <trkpt lat="45.72453" lon="3.11769">
        <ele>645.718262</ele>
        <time>2010-03-06T10:46:47Z</time>
      </trkpt>
      <trkpt lat="45.72451" lon="3.1175">
        <ele>645.924377</ele>
        <time>2010-03-06T10:46:49Z</time>
      </trkpt>
      <trkpt lat="45.7245" lon="3.11729">
        <ele>645.959534</ele>
        <time>2010-03-06T10:46:51Z</time>
      </trkpt>
      <trkpt lat="45.7245" lon="3.1171">
        <ele>645.772522</ele>
        <time>2010-03-06T10:46:53Z</time>
      </trkpt>
      <trkpt lat="45.72449" lon="3.11689">
        <ele>645.602478</ele>
        <time>2010-03-06T10:46:56Z</time>
      </trkpt>
      <trkpt lat="45.72444" lon="3.11673">
        <ele>645.92627</ele>
        <time>2010-03-06T10:46:58Z</time>
      </trkpt>
      <trkpt lat="45.72439" lon="3.11662">
        <ele>646.382507</ele>
        <time>2010-03-06T10:47:00Z</time>
      </trkpt>
      <trkpt lat="45.72432" lon="3.11652">
        <ele>647.025024</ele>
        <time>2010-03-06T10:47:02Z</time>
      </trkpt>
      <trkpt lat="45.72425" lon="3.11641">
        <ele>647.799988</ele>
        <time>2010-03-06T10:47:04Z</time>
      </trkpt>
      <trkpt lat="45.72418" lon="3.1163">
        <ele>648.587524</ele>
        <time>2010-03-06T10:47:06Z</time>
      </trkpt>
      <trkpt lat="45.72412" lon="3.11618">
        <ele>649.27655</ele>
        <time>2010-03-06T10:47:08Z</time>
      </trkpt>
      <trkpt lat="45.72407" lon="3.11604">
        <ele>649.752991</ele>
        <time>2010-03-06T10:47:10Z</time>
      </trkpt>
      <trkpt lat="45.72406" lon="3.11585">
        <ele>649.862488</ele>
        <time>2010-03-06T10:47:13Z</time>
      </trkpt>
      <trkpt lat="45.72406" lon="3.11569">
        <ele>650.172485</ele>
        <time>2010-03-06T10:47:15Z</time>
      </trkpt>
      <trkpt lat="45.72404" lon="3.11553">
        <ele>650.60376</ele>
        <time>2010-03-06T10:47:17Z</time>
      </trkpt>
      <trkpt lat="45.72403" lon="3.11537">
        <ele>650.936279</ele>
        <time>2010-03-06T10:47:19Z</time>
      </trkpt>
      <trkpt lat="45.72402" lon="3.1152">
        <ele>651.481201</ele>
        <time>2010-03-06T10:47:21Z</time>
      </trkpt>
      <trkpt lat="45.72401" lon="3.11502">
        <ele>652.267212</ele>
        <time>2010-03-06T10:47:23Z</time>
      </trkpt>
      <trkpt lat="45.724" lon="3.11485">
        <ele>652.954102</ele>
        <time>2010-03-06T10:47:25Z</time>
      </trkpt>
      <trkpt lat="45.724" lon="3.11468">
        <ele>653.661377</ele>
        <time>2010-03-06T10:47:27Z</time>
      </trkpt>
      <trkpt lat="45.72398" lon="3.1145">
        <ele>654.491577</ele>
        <time>2010-03-06T10:47:29Z</time>
      </trkpt>
      <trkpt lat="45.72397" lon="3.11434">
        <ele>655.294922</ele>
        <time>2010-03-06T10:47:31Z</time>
      </trkpt>
      <trkpt lat="45.72396" lon="3.1142">
        <ele>655.933228</ele>
        <time>2010-03-06T10:47:33Z</time>
      </trkpt>
      <trkpt lat="45.72394" lon="3.11406">
        <ele>656.742004</ele>
        <time>2010-03-06T10:47:35Z</time>
      </trkpt>
      <trkpt lat="45.72391" lon="3.11391">
        <ele>657.548401</ele>
        <time>2010-03-06T10:47:37Z</time>
      </trkpt>
      <trkpt lat="45.72386" lon="3.11373">
        <ele>658.354431</ele>
        <time>2010-03-06T10:47:40Z</time>
      </trkpt>
      <trkpt lat="45.72384" lon="3.11359">
        <ele>658.768372</ele>
        <time>2010-03-06T10:47:43Z</time>
      </trkpt>
      <trkpt lat="45.72381" lon="3.11346">
        <ele>659.028198</ele>
        <time>2010-03-06T10:47:46Z</time>
      </trkpt>
      <trkpt lat="45.72379" lon="3.1133">
        <ele>659.65979</ele>
        <time>2010-03-06T10:47:50Z</time>
      </trkpt>
      <trkpt lat="45.72379" lon="3.11317">
        <ele>660.981262</ele>
        <time>2010-03-06T10:47:53Z</time>
      </trkpt>
      <trkpt lat="45.72381" lon="3.11301">
        <ele>662.46051</ele>
        <time>2010-03-06T10:47:57Z</time>
      </trkpt>
      <trkpt lat="45.72384" lon="3.11288">
        <ele>663.643188</ele>
        <time>2010-03-06T10:48:00Z</time>
      </trkpt>
      <trkpt lat="45.72387" lon="3.11275">
        <ele>664.626587</ele>
        <time>2010-03-06T10:48:03Z</time>
      </trkpt>
      <trkpt lat="45.72388" lon="3.11262">
        <ele>665.308594</ele>
        <time>2010-03-06T10:48:06Z</time>
      </trkpt>
      <trkpt lat="45.72389" lon="3.11248">
        <ele>665.817078</ele>
        <time>2010-03-06T10:48:09Z</time>
      </trkpt>
      <trkpt lat="45.72389" lon="3.11235">
        <ele>666.378296</ele>
        <time>2010-03-06T10:48:12Z</time>
      </trkpt>
      <trkpt lat="45.72381" lon="3.11224">
        <ele>667.449829</ele>
        <time>2010-03-06T10:48:16Z</time>
      </trkpt>
      <trkpt lat="45.72371" lon="3.11223">
        <ele>668.308533</ele>
        <time>2010-03-06T10:48:20Z</time>
      </trkpt>
      <trkpt lat="45.72362" lon="3.1122">
        <ele>669.13324</ele>
        <time>2010-03-06T10:48:24Z</time>
      </trkpt>
      <trkpt lat="45.72353" lon="3.11215">
        <ele>670.148071</ele>
        <time>2010-03-06T10:48:28Z</time>
      </trkpt>
      <trkpt lat="45.72343" lon="3.1121">
        <ele>671.353638</ele>
        <time>2010-03-06T10:48:32Z</time>
      </trkpt>
      <trkpt lat="45.72333" lon="3.11203">
        <ele>672.671326</ele>
        <time>2010-03-06T10:48:36Z</time>
      </trkpt>
      <trkpt lat="45.72323" lon="3.11196">
        <ele>674.072998</ele>
        <time>2010-03-06T10:48:40Z</time>
      </trkpt>
      <trkpt lat="45.72313" lon="3.11192">
        <ele>675.341003</ele>
        <time>2010-03-06T10:48:44Z</time>
      </trkpt>
      <trkpt lat="45.72304" lon="3.11185">
        <ele>676.943726</ele>
        <time>2010-03-06T10:48:48Z</time>
      </trkpt>
      <trkpt lat="45.72294" lon="3.11176">
        <ele>678.766785</ele>
        <time>2010-03-06T10:48:52Z</time>
      </trkpt>
      <trkpt lat="45.72286" lon="3.11169">
        <ele>680.502502</ele>
        <time>2010-03-06T10:48:56Z</time>
      </trkpt>
      <trkpt lat="45.72278" lon="3.11163">
        <ele>682.176819</ele>
        <time>2010-03-06T10:49:01Z</time>
      </trkpt>
      <trkpt lat="45.7227" lon="3.11155">
        <ele>683.973816</ele>
        <time>2010-03-06T10:49:09Z</time>
      </trkpt>
      <trkpt lat="45.72262" lon="3.11148">
        <ele>685.64447</ele>
        <time>2010-03-06T10:49:18Z</time>
      </trkpt>
      <trkpt lat="45.72253" lon="3.11141">
        <ele>687.250427</ele>
        <time>2010-03-06T10:49:27Z</time>
      </trkpt>
      <trkpt lat="45.72245" lon="3.11133">
        <ele>688.151245</ele>
        <time>2010-03-06T10:49:37Z</time>
      </trkpt>
      <trkpt lat="45.72236" lon="3.11126">
        <ele>689.037292</ele>
        <time>2010-03-06T10:49:46Z</time>
      </trkpt>
      <trkpt lat="45.72228" lon="3.1112">
        <ele>689.992615</ele>
        <time>2010-03-06T10:49:55Z</time>
      </trkpt>
      <trkpt lat="45.72218" lon="3.11114">
        <ele>691.166504</ele>
        <time>2010-03-06T10:50:05Z</time>
      </trkpt>
      <trkpt lat="45.7221" lon="3.11108">
        <ele>692.249084</ele>
        <time>2010-03-06T10:50:13Z</time>
      </trkpt>
      <trkpt lat="45.72202" lon="3.111">
        <ele>693.41803</ele>
        <time>2010-03-06T10:50:22Z</time>
      </trkpt>
      <trkpt lat="45.72195" lon="3.11091">
        <ele>694.513184</ele>
        <time>2010-03-06T10:50:32Z</time>
      </trkpt>
      <trkpt lat="45.72187" lon="3.11082">
        <ele>696.659241</ele>
        <time>2010-03-06T10:50:42Z</time>
      </trkpt>
      <trkpt lat="45.7218" lon="3.11074">
        <ele>698.914368</ele>
        <time>2010-03-06T10:50:50Z</time>
      </trkpt>
      <trkpt lat="45.72172" lon="3.11065">
        <ele>701.074036</ele>
        <time>2010-03-06T10:51:01Z</time>
      </trkpt>
      <trkpt lat="45.72165" lon="3.11056">
        <ele>702.748779</ele>
        <time>2010-03-06T10:51:10Z</time>
      </trkpt>
      <trkpt lat="45.72157" lon="3.11048">
        <ele>704.656128</ele>
        <time>2010-03-06T10:51:19Z</time>
      </trkpt>
      <trkpt lat="45.72149" lon="3.11039">
        <ele>706.238831</ele>
        <time>2010-03-06T10:51:29Z</time>
      </trkpt>
      <trkpt lat="45.72142" lon="3.1103">
        <ele>707.623352</ele>
        <time>2010-03-06T10:51:38Z</time>
      </trkpt>
      <trkpt lat="45.72136" lon="3.11019">
        <ele>708.677795</ele>
        <time>2010-03-06T10:51:45Z</time>
      </trkpt>
      <trkpt lat="45.7213" lon="3.11008">
        <ele>709.485168</ele>
        <time>2010-03-06T10:51:53Z</time>
      </trkpt>
      <trkpt lat="45.72122" lon="3.10998">
        <ele>710.928528</ele>
        <time>2010-03-06T10:52:00Z</time>
      </trkpt>
      <trkpt lat="45.72114" lon="3.10986">
        <ele>711.934937</ele>
        <time>2010-03-06T10:52:04Z</time>
      </trkpt>
      <trkpt lat="45.72106" lon="3.10977">
        <ele>713.006348</ele>
        <time>2010-03-06T10:52:07Z</time>
      </trkpt>
      <trkpt lat="45.72098" lon="3.10964">
        <ele>713.458801</ele>
        <time>2010-03-06T10:52:11Z</time>
      </trkpt>
      <trkpt lat="45.72089" lon="3.10953">
        <ele>713.938538</ele>
        <time>2010-03-06T10:52:14Z</time>
      </trkpt>
      <trkpt lat="45.72082" lon="3.10939">
        <ele>713.822571</ele>
        <time>2010-03-06T10:52:17Z</time>
      </trkpt>
      <trkpt lat="45.72073" lon="3.10932">
        <ele>714.535095</ele>
        <time>2010-03-06T10:52:20Z</time>
      </trkpt>
      <trkpt lat="45.72062" lon="3.10922">
        <ele>715.198608</ele>
        <time>2010-03-06T10:52:23Z</time>
      </trkpt>
      <trkpt lat="45.72052" lon="3.10915">
        <ele>715.639221</ele>
        <time>2010-03-06T10:52:25Z</time>
      </trkpt>
      <trkpt lat="45.72043" lon="3.10908">
        <ele>715.786499</ele>
        <time>2010-03-06T10:52:27Z</time>
      </trkpt>
      <trkpt lat="45.72033" lon="3.10899">
        <ele>715.669678</ele>
        <time>2010-03-06T10:52:29Z</time>
      </trkpt>
      <trkpt lat="45.72023" lon="3.1089">
        <ele>715.522217</ele>
        <time>2010-03-06T10:52:31Z</time>
      </trkpt>
      <trkpt lat="45.72012" lon="3.10879">
        <ele>715.098633</ele>
        <time>2010-03-06T10:52:33Z</time>
      </trkpt>
      <trkpt lat="45.72002" lon="3.10869">
        <ele>714.302246</ele>
        <time>2010-03-06T10:52:35Z</time>
      </trkpt>
      <trkpt lat="45.71992" lon="3.10858">
        <ele>713.390259</ele>
        <time>2010-03-06T10:52:37Z</time>
      </trkpt>
      <trkpt lat="45.71982" lon="3.10849">
        <ele>712.905518</ele>
        <time>2010-03-06T10:52:39Z</time>
      </trkpt>
      <trkpt lat="45.71972" lon="3.1084">
        <ele>712.482605</ele>
        <time>2010-03-06T10:52:41Z</time>
      </trkpt>
      <trkpt lat="45.7196" lon="3.10832">
        <ele>712.557739</ele>
        <time>2010-03-06T10:52:43Z</time>
      </trkpt>
      <trkpt lat="45.71948" lon="3.10824">
        <ele>712.355896</ele>
        <time>2010-03-06T10:52:45Z</time>
      </trkpt>
      <trkpt lat="45.7194" lon="3.10818">
        <ele>712.075012</ele>
        <time>2010-03-06T10:52:47Z</time>
      </trkpt>
      <trkpt lat="45.71925" lon="3.10815">
        <ele>713.1427</ele>
        <time>2010-03-06T10:52:49Z</time>
      </trkpt>
      <trkpt lat="45.71912" lon="3.1081">
        <ele>713.117493</ele>
        <time>2010-03-06T10:52:51Z</time>
      </trkpt>
      <trkpt lat="45.719" lon="3.10807">
        <ele>713.67749</ele>
        <time>2010-03-06T10:52:53Z</time>
      </trkpt>
      <trkpt lat="45.71889" lon="3.10804">
        <ele>713.952515</ele>
        <time>2010-03-06T10:52:55Z</time>
      </trkpt>
      <trkpt lat="45.71875" lon="3.10798">
        <ele>713.880005</ele>
        <time>2010-03-06T10:52:57Z</time>
      </trkpt>
      <trkpt lat="45.71862" lon="3.10791">
        <ele>713.224976</ele>
        <time>2010-03-06T10:52:59Z</time>
      </trkpt>
      <trkpt lat="45.7185" lon="3.10783">
        <ele>712.367493</ele>
        <time>2010-03-06T10:53:01Z</time>
      </trkpt>
      <trkpt lat="45.7184" lon="3.10775">
        <ele>711.265015</ele>
        <time>2010-03-06T10:53:03Z</time>
      </trkpt>
      <trkpt lat="45.71829" lon="3.10769">
        <ele>711.226196</ele>
        <time>2010-03-06T10:53:05Z</time>
      </trkpt>
      <trkpt lat="45.71816" lon="3.1076">
        <ele>711.187439</ele>
        <time>2010-03-06T10:53:07Z</time>
      </trkpt>
      <trkpt lat="45.71804" lon="3.10749">
        <ele>710.200378</ele>
        <time>2010-03-06T10:53:09Z</time>
      </trkpt>
      <trkpt lat="45.71796" lon="3.10741">
        <ele>709.809509</ele>
        <time>2010-03-06T10:53:11Z</time>
      </trkpt>
      <trkpt lat="45.71788" lon="3.10734">
        <ele>709.863342</ele>
        <time>2010-03-06T10:53:13Z</time>
      </trkpt>
      <trkpt lat="45.71778" lon="3.10726">
        <ele>710.663635</ele>
        <time>2010-03-06T10:53:16Z</time>
      </trkpt>
      <trkpt lat="45.71768" lon="3.10719">
        <ele>711.101746</ele>
        <time>2010-03-06T10:53:19Z</time>
      </trkpt>
      <trkpt lat="45.71758" lon="3.10714">
        <ele>711.564148</ele>
        <time>2010-03-06T10:53:22Z</time>
      </trkpt>
      <trkpt lat="45.7175" lon="3.10708">
        <ele>711.414551</ele>
        <time>2010-03-06T10:53:26Z</time>
      </trkpt>
      <trkpt lat="45.7174" lon="3.10703">
        <ele>710.856567</ele>
        <time>2010-03-06T10:53:36Z</time>
      </trkpt>
      <trkpt lat="45.71731" lon="3.10696">
        <ele>709.35144</ele>
        <time>2010-03-06T10:53:43Z</time>
      </trkpt>
      <trkpt lat="45.71724" lon="3.10686">
        <ele>707.53479</ele>
        <time>2010-03-06T10:53:51Z</time>
      </trkpt>
      <trkpt lat="45.71721" lon="3.10673">
        <ele>705.051697</ele>
        <time>2010-03-06T10:53:59Z</time>
      </trkpt>
      <trkpt lat="45.71717" lon="3.1066">
        <ele>702.411133</ele>
        <time>2010-03-06T10:54:08Z</time>
      </trkpt>
      <trkpt lat="45.71714" lon="3.10647">
        <ele>700.094971</ele>
        <time>2010-03-06T10:54:16Z</time>
      </trkpt>
      <trkpt lat="45.71711" lon="3.10634">
        <ele>697.630859</ele>
        <time>2010-03-06T10:54:24Z</time>
      </trkpt>
      <trkpt lat="45.71707" lon="3.10622">
        <ele>695.879822</ele>
        <time>2010-03-06T10:54:31Z</time>
      </trkpt>
      <trkpt lat="45.71697" lon="3.10622">
        <ele>696.609985</ele>
        <time>2010-03-06T10:54:38Z</time>
      </trkpt>
      <trkpt lat="45.71688" lon="3.10628">
        <ele>697.56781</ele>
        <time>2010-03-06T10:54:45Z</time>
      </trkpt>
      <trkpt lat="45.71678" lon="3.10635">
        <ele>698.203918</ele>
        <time>2010-03-06T10:54:52Z</time>
      </trkpt>
      <trkpt lat="45.7167" lon="3.10642">
        <ele>698.653503</ele>
        <time>2010-03-06T10:54:59Z</time>
      </trkpt>
      <trkpt lat="45.71661" lon="3.10649">
        <ele>698.798157</ele>
        <time>2010-03-06T10:55:05Z</time>
      </trkpt>
      <trkpt lat="45.71653" lon="3.10658">
        <ele>698.52417</ele>
        <time>2010-03-06T10:55:12Z</time>
      </trkpt>
      <trkpt lat="45.71646" lon="3.10668">
        <ele>697.877014</ele>
        <time>2010-03-06T10:55:19Z</time>
      </trkpt>
      <trkpt lat="45.71639" lon="3.10679">
        <ele>697.358032</ele>
        <time>2010-03-06T10:55:26Z</time>
      </trkpt>
      <trkpt lat="45.71636" lon="3.10666">
        <ele>695.929871</ele>
        <time>2010-03-06T10:55:39Z</time>
      </trkpt>
      <trkpt lat="45.71637" lon="3.10653">
        <ele>695.361633</ele>
        <time>2010-03-06T10:55:46Z</time>
      </trkpt>
      <trkpt lat="45.71639" lon="3.1064">
        <ele>695.002075</ele>
        <time>2010-03-06T10:55:53Z</time>
      </trkpt>
      <trkpt lat="45.71643" lon="3.10628">
        <ele>694.778381</ele>
        <time>2010-03-06T10:56:54Z</time>
      </trkpt>
      <trkpt lat="45.71641" lon="3.10614">
        <ele>693.72644</ele>
        <time>2010-03-06T10:58:03Z</time>
      </trkpt>
      <trkpt lat="45.71639" lon="3.10597">
        <ele>692.713562</ele>
        <time>2010-03-06T10:58:08Z</time>
      </trkpt>
      <trkpt lat="45.71636" lon="3.10584">
        <ele>691.853455</ele>
        <time>2010-03-06T10:58:10Z</time>
      </trkpt>
      <trkpt lat="45.71632" lon="3.1057">
        <ele>690.943359</ele>
        <time>2010-03-06T10:58:12Z</time>
      </trkpt>
      <trkpt lat="45.71626" lon="3.10555">
        <ele>689.915649</ele>
        <time>2010-03-06T10:58:14Z</time>
      </trkpt>
      <trkpt lat="45.71619" lon="3.10539">
        <ele>690.261292</ele>
        <time>2010-03-06T10:58:16Z</time>
      </trkpt>
      <trkpt lat="45.7161" lon="3.10524">
        <ele>690.612671</ele>
        <time>2010-03-06T10:58:18Z</time>
      </trkpt>
      <trkpt lat="45.71604" lon="3.10509">
        <ele>691.0625</ele>
        <time>2010-03-06T10:58:20Z</time>
      </trkpt>
      <trkpt lat="45.71599" lon="3.10493">
        <ele>692.090637</ele>
        <time>2010-03-06T10:58:22Z</time>
      </trkpt>
      <trkpt lat="45.71595" lon="3.10475">
        <ele>693.473755</ele>
        <time>2010-03-06T10:58:24Z</time>
      </trkpt>
      <trkpt lat="45.71592" lon="3.10456">
        <ele>694.895386</ele>
        <time>2010-03-06T10:58:26Z</time>
      </trkpt>
      <trkpt lat="45.71588" lon="3.10436">
        <ele>696.389648</ele>
        <time>2010-03-06T10:58:28Z</time>
      </trkpt>
      <trkpt lat="45.71586" lon="3.1042">
        <ele>697.274231</ele>
        <time>2010-03-06T10:58:30Z</time>
      </trkpt>
      <trkpt lat="45.71583" lon="3.10407">
        <ele>697.350281</ele>
        <time>2010-03-06T10:58:32Z</time>
      </trkpt>
      <trkpt lat="45.71571" lon="3.10402">
        <ele>696.826477</ele>
        <time>2010-03-06T10:58:35Z</time>
      </trkpt>
      <trkpt lat="45.71558" lon="3.10413">
        <ele>695.732971</ele>
        <time>2010-03-06T10:58:37Z</time>
      </trkpt>
      <trkpt lat="45.71546" lon="3.10421">
        <ele>694.690002</ele>
        <time>2010-03-06T10:58:39Z</time>
      </trkpt>
      <trkpt lat="45.71536" lon="3.10426">
        <ele>693.662537</ele>
        <time>2010-03-06T10:58:41Z</time>
      </trkpt>
      <trkpt lat="45.71528" lon="3.10433">
        <ele>692.534851</ele>
        <time>2010-03-06T10:58:43Z</time>
      </trkpt>
      <trkpt lat="45.71519" lon="3.1044">
        <ele>691.507507</ele>
        <time>2010-03-06T10:58:46Z</time>
      </trkpt>
      <trkpt lat="45.71509" lon="3.10448">
        <ele>690.734985</ele>
        <time>2010-03-06T10:58:49Z</time>
      </trkpt>
      <trkpt lat="45.715" lon="3.10456">
        <ele>689.969971</ele>
        <time>2010-03-06T10:58:52Z</time>
      </trkpt>
      <trkpt lat="45.7149" lon="3.10463">
        <ele>689.287476</ele>
        <time>2010-03-06T10:58:56Z</time>
      </trkpt>
      <trkpt lat="45.71481" lon="3.1047">
        <ele>688.60498</ele>
        <time>2010-03-06T10:58:59Z</time>
      </trkpt>
      <trkpt lat="45.71469" lon="3.10474">
        <ele>688.734009</ele>
        <time>2010-03-06T10:59:03Z</time>
      </trkpt>
      <trkpt lat="45.71462" lon="3.10465">
        <ele>689.779907</ele>
        <time>2010-03-06T10:59:06Z</time>
      </trkpt>
      <trkpt lat="45.71456" lon="3.1045">
        <ele>691.108154</ele>
        <time>2010-03-06T10:59:10Z</time>
      </trkpt>
      <trkpt lat="45.71451" lon="3.10435">
        <ele>692.192078</ele>
        <time>2010-03-06T10:59:14Z</time>
      </trkpt>
      <trkpt lat="45.71447" lon="3.10422">
        <ele>693.026062</ele>
        <time>2010-03-06T10:59:17Z</time>
      </trkpt>
      <trkpt lat="45.71442" lon="3.10408">
        <ele>693.308777</ele>
        <time>2010-03-06T10:59:21Z</time>
      </trkpt>
      <trkpt lat="45.71437" lon="3.10396">
        <ele>693.481567</ele>
        <time>2010-03-06T10:59:30Z</time>
      </trkpt>
      <trkpt lat="45.71432" lon="3.10383">
        <ele>693.542725</ele>
        <time>2010-03-06T10:59:36Z</time>
      </trkpt>
      <trkpt lat="45.71427" lon="3.1037">
        <ele>693.293701</ele>
        <time>2010-03-06T10:59:42Z</time>
      </trkpt>
      <trkpt lat="45.71422" lon="3.10356">
        <ele>693.062378</ele>
        <time>2010-03-06T10:59:50Z</time>
      </trkpt>
      <trkpt lat="45.71418" lon="3.10345">
        <ele>693.149292</ele>
        <time>2010-03-06T10:59:57Z</time>
      </trkpt>
      <trkpt lat="45.71413" lon="3.10332">
        <ele>693.161987</ele>
        <time>2010-03-06T11:00:04Z</time>
      </trkpt>
      <trkpt lat="45.71408" lon="3.1032">
        <ele>693.162109</ele>
        <time>2010-03-06T11:00:11Z</time>
      </trkpt>
      <trkpt lat="45.71403" lon="3.10309">
        <ele>693.063477</ele>
        <time>2010-03-06T11:00:18Z</time>
      </trkpt>
      <trkpt lat="45.71398" lon="3.10296">
        <ele>692.942322</ele>
        <time>2010-03-06T11:00:25Z</time>
      </trkpt>
      <trkpt lat="45.71394" lon="3.10283">
        <ele>693.024414</ele>
        <time>2010-03-06T11:00:33Z</time>
      </trkpt>
      <trkpt lat="45.71389" lon="3.10271">
        <ele>693.028625</ele>
        <time>2010-03-06T11:00:39Z</time>
      </trkpt>
      <trkpt lat="45.71385" lon="3.10259">
        <ele>693.117493</ele>
        <time>2010-03-06T11:00:44Z</time>
      </trkpt>
      <trkpt lat="45.71381" lon="3.10245">
        <ele>693.353149</ele>
        <time>2010-03-06T11:00:52Z</time>
      </trkpt>
      <trkpt lat="45.71376" lon="3.10233">
        <ele>693.368286</ele>
        <time>2010-03-06T11:00:55Z</time>
      </trkpt>
      <trkpt lat="45.71373" lon="3.10219">
        <ele>693.58374</ele>
        <time>2010-03-06T11:00:59Z</time>
      </trkpt>
      <trkpt lat="45.71368" lon="3.10206">
        <ele>693.606262</ele>
        <time>2010-03-06T11:01:03Z</time>
      </trkpt>
      <trkpt lat="45.71364" lon="3.10194">
        <ele>693.75</ele>
        <time>2010-03-06T11:01:07Z</time>
      </trkpt>
      <trkpt lat="45.71359" lon="3.10177">
        <ele>693.982483</ele>
        <time>2010-03-06T11:01:11Z</time>
      </trkpt>
      <trkpt lat="45.71356" lon="3.10163">
        <ele>694.213257</ele>
        <time>2010-03-06T11:01:15Z</time>
      </trkpt>
      <trkpt lat="45.71352" lon="3.10148">
        <ele>694.252197</ele>
        <time>2010-03-06T11:01:19Z</time>
      </trkpt>
      <trkpt lat="45.71349" lon="3.10135">
        <ele>694.229248</ele>
        <time>2010-03-06T11:01:22Z</time>
      </trkpt>
      <trkpt lat="45.71346" lon="3.10122">
        <ele>694.396667</ele>
        <time>2010-03-06T11:01:25Z</time>
      </trkpt>
      <trkpt lat="45.71342" lon="3.10108">
        <ele>694.657166</ele>
        <time>2010-03-06T11:01:28Z</time>
      </trkpt>
      <trkpt lat="45.71335" lon="3.10099">
        <ele>694.835571</ele>
        <time>2010-03-06T11:01:31Z</time>
      </trkpt>
      <trkpt lat="45.71327" lon="3.10095">
        <ele>694.944641</ele>
        <time>2010-03-06T11:01:34Z</time>
      </trkpt>
      <trkpt lat="45.71314" lon="3.10092">
        <ele>694.869873</ele>
        <time>2010-03-06T11:01:38Z</time>
      </trkpt>
      <trkpt lat="45.71303" lon="3.10094">
        <ele>694.513062</ele>
        <time>2010-03-06T11:01:41Z</time>
      </trkpt>
      <trkpt lat="45.71292" lon="3.10096">
        <ele>694.340698</ele>
        <time>2010-03-06T11:01:44Z</time>
      </trkpt>
      <trkpt lat="45.71279" lon="3.10099">
        <ele>694.007996</ele>
        <time>2010-03-06T11:01:47Z</time>
      </trkpt>
      <trkpt lat="45.71271" lon="3.10106">
        <ele>693.38623</ele>
        <time>2010-03-06T11:01:49Z</time>
      </trkpt>
      <trkpt lat="45.71261" lon="3.10115">
        <ele>692.381226</ele>
        <time>2010-03-06T11:01:51Z</time>
      </trkpt>
      <trkpt lat="45.71251" lon="3.10126">
        <ele>691.210022</ele>
        <time>2010-03-06T11:01:53Z</time>
      </trkpt>
      <trkpt lat="45.71242" lon="3.10137">
        <ele>690.409973</ele>
        <time>2010-03-06T11:01:55Z</time>
      </trkpt>
      <trkpt lat="45.71235" lon="3.10148">
        <ele>689.567505</ele>
        <time>2010-03-06T11:01:57Z</time>
      </trkpt>
      <trkpt lat="45.71229" lon="3.1016">
        <ele>688.53125</ele>
        <time>2010-03-06T11:01:59Z</time>
      </trkpt>
      <trkpt lat="45.71221" lon="3.10169">
        <ele>687.769592</ele>
        <time>2010-03-06T11:02:01Z</time>
      </trkpt>
      <trkpt lat="45.71214" lon="3.1018">
        <ele>686.713562</ele>
        <time>2010-03-06T11:02:03Z</time>
      </trkpt>
      <trkpt lat="45.71208" lon="3.10193">
        <ele>685.47467</ele>
        <time>2010-03-06T11:02:05Z</time>
      </trkpt>
      <trkpt lat="45.712" lon="3.10209">
        <ele>684.377075</ele>
        <time>2010-03-06T11:02:08Z</time>
      </trkpt>
      <trkpt lat="45.71194" lon="3.10222">
        <ele>683.598328</ele>
        <time>2010-03-06T11:02:10Z</time>
      </trkpt>
      <trkpt lat="45.71186" lon="3.10237">
        <ele>682.892395</ele>
        <time>2010-03-06T11:02:12Z</time>
      </trkpt>
      <trkpt lat="45.71178" lon="3.10251">
        <ele>682.382629</ele>
        <time>2010-03-06T11:02:14Z</time>
      </trkpt>
      <trkpt lat="45.71169" lon="3.10265">
        <ele>682.199585</ele>
        <time>2010-03-06T11:02:16Z</time>
      </trkpt>
      <trkpt lat="45.71158" lon="3.10275">
        <ele>682.587524</ele>
        <time>2010-03-06T11:02:18Z</time>
      </trkpt>
      <trkpt lat="45.71149" lon="3.10284">
        <ele>682.73877</ele>
        <time>2010-03-06T11:02:20Z</time>
      </trkpt>
      <trkpt lat="45.71139" lon="3.10293">
        <ele>682.986572</ele>
        <time>2010-03-06T11:02:22Z</time>
      </trkpt>
      <trkpt lat="45.71129" lon="3.10301">
        <ele>683.066284</ele>
        <time>2010-03-06T11:02:24Z</time>
      </trkpt>
      <trkpt lat="45.71119" lon="3.1031">
        <ele>682.807617</ele>
        <time>2010-03-06T11:02:26Z</time>
      </trkpt>
      <trkpt lat="45.71108" lon="3.10319">
        <ele>682.002014</ele>
        <time>2010-03-06T11:02:28Z</time>
      </trkpt>
      <trkpt lat="45.71099" lon="3.10327">
        <ele>681.239685</ele>
        <time>2010-03-06T11:02:30Z</time>
      </trkpt>
      <trkpt lat="45.71088" lon="3.10336">
        <ele>680.060425</ele>
        <time>2010-03-06T11:02:32Z</time>
      </trkpt>
      <trkpt lat="45.71079" lon="3.10343">
        <ele>679.003906</ele>
        <time>2010-03-06T11:02:34Z</time>
      </trkpt>
      <trkpt lat="45.71065" lon="3.10353">
        <ele>678.592102</ele>
        <time>2010-03-06T11:02:37Z</time>
      </trkpt>
      <trkpt lat="45.71058" lon="3.10362">
        <ele>678.376282</ele>
        <time>2010-03-06T11:02:39Z</time>
      </trkpt>
      <trkpt lat="45.71049" lon="3.10373">
        <ele>677.89502</ele>
        <time>2010-03-06T11:02:41Z</time>
      </trkpt>
      <trkpt lat="45.7104" lon="3.10385">
        <ele>677.453735</ele>
        <time>2010-03-06T11:02:43Z</time>
      </trkpt>
      <trkpt lat="45.71031" lon="3.10398">
        <ele>676.907532</ele>
        <time>2010-03-06T11:02:45Z</time>
      </trkpt>
      <trkpt lat="45.71021" lon="3.10408">
        <ele>677.141968</ele>
        <time>2010-03-06T11:02:47Z</time>
      </trkpt>
      <trkpt lat="45.71011" lon="3.10419">
        <ele>678.13623</ele>
        <time>2010-03-06T11:02:49Z</time>
      </trkpt>
      <trkpt lat="45.71002" lon="3.10428">
        <ele>679.54126</ele>
        <time>2010-03-06T11:02:51Z</time>
      </trkpt>
      <trkpt lat="45.70992" lon="3.10442">
        <ele>680.788757</ele>
        <time>2010-03-06T11:02:53Z</time>
      </trkpt>
      <trkpt lat="45.70982" lon="3.10452">
        <ele>682.36322</ele>
        <time>2010-03-06T11:02:55Z</time>
      </trkpt>
      <trkpt lat="45.70973" lon="3.10463">
        <ele>683.637329</ele>
        <time>2010-03-06T11:02:57Z</time>
      </trkpt>
      <trkpt lat="45.70964" lon="3.10472">
        <ele>685.096863</ele>
        <time>2010-03-06T11:02:59Z</time>
      </trkpt>
      <trkpt lat="45.70955" lon="3.10483">
        <ele>686.801636</ele>
        <time>2010-03-06T11:03:01Z</time>
      </trkpt>
      <trkpt lat="45.70945" lon="3.10494">
        <ele>688.893127</ele>
        <time>2010-03-06T11:03:03Z</time>
      </trkpt>
      <trkpt lat="45.70935" lon="3.10505">
        <ele>690.197937</ele>
        <time>2010-03-06T11:03:05Z</time>
      </trkpt>
      <trkpt lat="45.70924" lon="3.10515">
        <ele>689.75415</ele>
        <time>2010-03-06T11:03:08Z</time>
      </trkpt>
      <trkpt lat="45.70913" lon="3.10527">
        <ele>689.383728</ele>
        <time>2010-03-06T11:03:11Z</time>
      </trkpt>
      <trkpt lat="45.70904" lon="3.10536">
        <ele>689.151245</ele>
        <time>2010-03-06T11:03:14Z</time>
      </trkpt>
      <trkpt lat="45.70896" lon="3.10544">
        <ele>688.95459</ele>
        <time>2010-03-06T11:03:18Z</time>
      </trkpt>
      <trkpt lat="45.70887" lon="3.10551">
        <ele>687.171997</ele>
        <time>2010-03-06T11:03:24Z</time>
      </trkpt>
      <trkpt lat="45.70879" lon="3.10558">
        <ele>684.935608</ele>
        <time>2010-03-06T11:03:33Z</time>
      </trkpt>
      <trkpt lat="45.70871" lon="3.10567">
        <ele>682.876221</ele>
        <time>2010-03-06T11:03:39Z</time>
      </trkpt>
      <trkpt lat="45.70862" lon="3.10575">
        <ele>680.841003</ele>
        <time>2010-03-06T11:03:46Z</time>
      </trkpt>
      <trkpt lat="45.70855" lon="3.10584">
        <ele>679.158447</ele>
        <time>2010-03-06T11:03:54Z</time>
      </trkpt>
      <trkpt lat="45.70846" lon="3.10592">
        <ele>677.562622</ele>
        <time>2010-03-06T11:04:02Z</time>
      </trkpt>
      <trkpt lat="45.70839" lon="3.10602">
        <ele>675.688721</ele>
        <time>2010-03-06T11:04:08Z</time>
      </trkpt>
      <trkpt lat="45.70829" lon="3.10608">
        <ele>673.739441</ele>
        <time>2010-03-06T11:04:15Z</time>
      </trkpt>
      <trkpt lat="45.70821" lon="3.10614">
        <ele>671.487793</ele>
        <time>2010-03-06T11:04:20Z</time>
      </trkpt>
      <trkpt lat="45.70811" lon="3.10617">
        <ele>669.665527</ele>
        <time>2010-03-06T11:04:25Z</time>
      </trkpt>
      <trkpt lat="45.70802" lon="3.10626">
        <ele>667.453491</ele>
        <time>2010-03-06T11:04:31Z</time>
      </trkpt>
      <trkpt lat="45.70796" lon="3.10638">
        <ele>665.860535</ele>
        <time>2010-03-06T11:04:37Z</time>
      </trkpt>
      <trkpt lat="45.7079" lon="3.10651">
        <ele>664.500488</ele>
        <time>2010-03-06T11:04:42Z</time>
      </trkpt>
      <trkpt lat="45.70782" lon="3.10661">
        <ele>663.452271</ele>
        <time>2010-03-06T11:04:47Z</time>
      </trkpt>
      <trkpt lat="45.70777" lon="3.10673">
        <ele>662.479126</ele>
        <time>2010-03-06T11:04:51Z</time>
      </trkpt>
      <trkpt lat="45.70771" lon="3.10684">
        <ele>660.836365</ele>
        <time>2010-03-06T11:04:55Z</time>
      </trkpt>
      <trkpt lat="45.70763" lon="3.10692">
        <ele>659.477722</ele>
        <time>2010-03-06T11:04:59Z</time>
      </trkpt>
      <trkpt lat="45.70754" lon="3.10701">
        <ele>657.878418</ele>
        <time>2010-03-06T11:05:04Z</time>
      </trkpt>
      <trkpt lat="45.70743" lon="3.10698">
        <ele>657.32019</ele>
        <time>2010-03-06T11:05:09Z</time>
      </trkpt>
      <trkpt lat="45.70739" lon="3.10709">
        <ele>655.600281</ele>
        <time>2010-03-06T11:05:18Z</time>
      </trkpt>
      <trkpt lat="45.70734" lon="3.10722">
        <ele>653.804077</ele>
        <time>2010-03-06T11:05:26Z</time>
      </trkpt>
      <trkpt lat="45.70734" lon="3.10736">
        <ele>652.213013</ele>
        <time>2010-03-06T11:05:33Z</time>
      </trkpt>
      <trkpt lat="45.7073" lon="3.10748">
        <ele>650.156311</ele>
        <time>2010-03-06T11:05:40Z</time>
      </trkpt>
      <trkpt lat="45.7072" lon="3.10749">
        <ele>649.280823</ele>
        <time>2010-03-06T11:05:46Z</time>
      </trkpt>
      <trkpt lat="45.70711" lon="3.10748">
        <ele>648.718323</ele>
        <time>2010-03-06T11:05:52Z</time>
      </trkpt>
      <trkpt lat="45.70701" lon="3.10745">
        <ele>648.306519</ele>
        <time>2010-03-06T11:05:58Z</time>
      </trkpt>
      <trkpt lat="45.70692" lon="3.10742">
        <ele>648.018799</ele>
        <time>2010-03-06T11:06:05Z</time>
      </trkpt>
      <trkpt lat="45.70682" lon="3.10737">
        <ele>647.848877</ele>
        <time>2010-03-06T11:06:12Z</time>
      </trkpt>
      <trkpt lat="45.70672" lon="3.10741">
        <ele>646.435852</ele>
        <time>2010-03-06T11:06:21Z</time>
      </trkpt>
      <trkpt lat="45.70666" lon="3.10753">
        <ele>644.17218</ele>
        <time>2010-03-06T11:06:27Z</time>
      </trkpt>
      <trkpt lat="45.70663" lon="3.10766">
        <ele>642.238281</ele>
        <time>2010-03-06T11:06:32Z</time>
      </trkpt>
      <trkpt lat="45.70658" lon="3.10779">
        <ele>640.857483</ele>
        <time>2010-03-06T11:06:36Z</time>
      </trkpt>
      <trkpt lat="45.70652" lon="3.10793">
        <ele>640.12262</ele>
        <time>2010-03-06T11:06:40Z</time>
      </trkpt>
      <trkpt lat="45.70648" lon="3.10806">
        <ele>639.946655</ele>
        <time>2010-03-06T11:06:44Z</time>
      </trkpt>
      <trkpt lat="45.70641" lon="3.10821">
        <ele>640.024292</ele>
        <time>2010-03-06T11:06:48Z</time>
      </trkpt>
      <trkpt lat="45.70633" lon="3.10832">
        <ele>640.333862</ele>
        <time>2010-03-06T11:06:51Z</time>
      </trkpt>
      <trkpt lat="45.70626" lon="3.1084">
        <ele>640.743408</ele>
        <time>2010-03-06T11:06:54Z</time>
      </trkpt>
      <trkpt lat="45.70616" lon="3.10851">
        <ele>640.764282</ele>
        <time>2010-03-06T11:06:58Z</time>
      </trkpt>
      <trkpt lat="45.70612" lon="3.10866">
        <ele>640.934998</ele>
        <time>2010-03-06T11:07:00Z</time>
      </trkpt>
      <trkpt lat="45.7061" lon="3.1088">
        <ele>641.482483</ele>
        <time>2010-03-06T11:07:02Z</time>
      </trkpt>
      <trkpt lat="45.70612" lon="3.10895">
        <ele>641.837524</ele>
        <time>2010-03-06T11:07:04Z</time>
      </trkpt>
      <trkpt lat="45.70614" lon="3.10911">
        <ele>642.07251</ele>
        <time>2010-03-06T11:07:07Z</time>
      </trkpt>
      <trkpt lat="45.70623" lon="3.1092">
        <ele>641.383728</ele>
        <time>2010-03-06T11:07:09Z</time>
      </trkpt>
      <trkpt lat="45.70633" lon="3.10932">
        <ele>639.829712</ele>
        <time>2010-03-06T11:07:12Z</time>
      </trkpt>
      <trkpt lat="45.70641" lon="3.10943">
        <ele>638.269348</ele>
        <time>2010-03-06T11:07:15Z</time>
      </trkpt>
      <trkpt lat="45.70649" lon="3.10956">
        <ele>636.599854</ele>
        <time>2010-03-06T11:07:18Z</time>
      </trkpt>
      <trkpt lat="45.70656" lon="3.1097">
        <ele>635.042664</ele>
        <time>2010-03-06T11:07:21Z</time>
      </trkpt>
      <trkpt lat="45.70659" lon="3.10986">
        <ele>634.107788</ele>
        <time>2010-03-06T11:07:23Z</time>
      </trkpt>
      <trkpt lat="45.70662" lon="3.11">
        <ele>632.784973</ele>
        <time>2010-03-06T11:07:25Z</time>
      </trkpt>
      <trkpt lat="45.70662" lon="3.11016">
        <ele>631.809998</ele>
        <time>2010-03-06T11:07:27Z</time>
      </trkpt>
      <trkpt lat="45.70662" lon="3.11034">
        <ele>630.669983</ele>
        <time>2010-03-06T11:07:29Z</time>
      </trkpt>
      <trkpt lat="45.70663" lon="3.11049">
        <ele>629.594971</ele>
        <time>2010-03-06T11:07:31Z</time>
      </trkpt>
      <trkpt lat="45.70663" lon="3.1107">
        <ele>627.438477</ele>
        <time>2010-03-06T11:07:34Z</time>
      </trkpt>
      <trkpt lat="45.70663" lon="3.11083">
        <ele>626.077393</ele>
        <time>2010-03-06T11:07:36Z</time>
      </trkpt>
      <trkpt lat="45.70658" lon="3.11098">
        <ele>625.334045</ele>
        <time>2010-03-06T11:07:38Z</time>
      </trkpt>
      <trkpt lat="45.70652" lon="3.11115">
        <ele>624.900208</ele>
        <time>2010-03-06T11:07:40Z</time>
      </trkpt>
      <trkpt lat="45.70647" lon="3.11132">
        <ele>624.432495</ele>
        <time>2010-03-06T11:07:42Z</time>
      </trkpt>
      <trkpt lat="45.70644" lon="3.11145">
        <ele>623.872498</ele>
        <time>2010-03-06T11:07:44Z</time>
      </trkpt>
      <trkpt lat="45.70641" lon="3.11159">
        <ele>623.179993</ele>
        <time>2010-03-06T11:07:46Z</time>
      </trkpt>
      <trkpt lat="45.70638" lon="3.11172">
        <ele>622.544983</ele>
        <time>2010-03-06T11:07:48Z</time>
      </trkpt>
      <trkpt lat="45.70636" lon="3.11185">
        <ele>621.868774</ele>
        <time>2010-03-06T11:07:50Z</time>
      </trkpt>
      <trkpt lat="45.70632" lon="3.11202">
        <ele>620.899658</ele>
        <time>2010-03-06T11:07:53Z</time>
      </trkpt>
      <trkpt lat="45.70626" lon="3.11218">
        <ele>620.397827</ele>
        <time>2010-03-06T11:07:55Z</time>
      </trkpt>
      <trkpt lat="45.70626" lon="3.11232">
        <ele>618.840332</ele>
        <time>2010-03-06T11:07:58Z</time>
      </trkpt>
      <trkpt lat="45.70627" lon="3.11247">
        <ele>616.990479</ele>
        <time>2010-03-06T11:08:01Z</time>
      </trkpt>
      <trkpt lat="45.70625" lon="3.11259">
        <ele>615.089478</ele>
        <time>2010-03-06T11:08:04Z</time>
      </trkpt>
      <trkpt lat="45.70621" lon="3.11273">
        <ele>612.926392</ele>
        <time>2010-03-06T11:08:08Z</time>
      </trkpt>
      <trkpt lat="45.70618" lon="3.11287">
        <ele>610.654358</ele>
        <time>2010-03-06T11:08:12Z</time>
      </trkpt>
      <trkpt lat="45.70614" lon="3.113">
        <ele>608.398376</ele>
        <time>2010-03-06T11:08:21Z</time>
      </trkpt>
      <trkpt lat="45.70612" lon="3.11312">
        <ele>605.612549</ele>
        <time>2010-03-06T11:08:26Z</time>
      </trkpt>
      <trkpt lat="45.70605" lon="3.11322">
        <ele>602.104675</ele>
        <time>2010-03-06T11:08:33Z</time>
      </trkpt>
      <trkpt lat="45.70597" lon="3.11328">
        <ele>599.884521</ele>
        <time>2010-03-06T11:08:41Z</time>
      </trkpt>
      <trkpt lat="45.70587" lon="3.11331">
        <ele>599.001343</ele>
        <time>2010-03-06T11:08:47Z</time>
      </trkpt>
      <trkpt lat="45.70575" lon="3.11337">
        <ele>596.474792</ele>
        <time>2010-03-06T11:08:51Z</time>
      </trkpt>
      <trkpt lat="45.70565" lon="3.1134">
        <ele>595.083252</ele>
        <time>2010-03-06T11:08:55Z</time>
      </trkpt>
      <trkpt lat="45.70554" lon="3.11342">
        <ele>593.952087</ele>
        <time>2010-03-06T11:09:00Z</time>
      </trkpt>
      <trkpt lat="45.70545" lon="3.1134">
        <ele>594.562683</ele>
        <time>2010-03-06T11:09:05Z</time>
      </trkpt>
      <trkpt lat="45.70535" lon="3.11341">
        <ele>593.834045</ele>
        <time>2010-03-06T11:09:10Z</time>
      </trkpt>
      <trkpt lat="45.70525" lon="3.11342">
        <ele>592.949219</ele>
        <time>2010-03-06T11:09:15Z</time>
      </trkpt>
      <trkpt lat="45.70515" lon="3.11344">
        <ele>590.979492</ele>
        <time>2010-03-06T11:09:20Z</time>
      </trkpt>
      <trkpt lat="45.70506" lon="3.11343">
        <ele>590.397949</ele>
        <time>2010-03-06T11:09:24Z</time>
      </trkpt>
      <trkpt lat="45.70497" lon="3.11339">
        <ele>591.196289</ele>
        <time>2010-03-06T11:09:28Z</time>
      </trkpt>
      <trkpt lat="45.70486" lon="3.11331">
        <ele>594.190002</ele>
        <time>2010-03-06T11:09:32Z</time>
      </trkpt>
      <trkpt lat="45.70477" lon="3.11322">
        <ele>596.715942</ele>
        <time>2010-03-06T11:09:36Z</time>
      </trkpt>
      <trkpt lat="45.70469" lon="3.11315">
        <ele>597.692017</ele>
        <time>2010-03-06T11:09:39Z</time>
      </trkpt>
      <trkpt lat="45.7046" lon="3.11309">
        <ele>597.404541</ele>
        <time>2010-03-06T11:09:42Z</time>
      </trkpt>
      <trkpt lat="45.70452" lon="3.11301">
        <ele>597.81488</ele>
        <time>2010-03-06T11:09:46Z</time>
      </trkpt>
      <trkpt lat="45.70444" lon="3.11292">
        <ele>598.140381</ele>
        <time>2010-03-06T11:09:51Z</time>
      </trkpt>
      <trkpt lat="45.70435" lon="3.11283">
        <ele>598.164246</ele>
        <time>2010-03-06T11:09:57Z</time>
      </trkpt>
      <trkpt lat="45.70427" lon="3.11274">
        <ele>598.008789</ele>
        <time>2010-03-06T11:10:03Z</time>
      </trkpt>
      <trkpt lat="45.70418" lon="3.11267">
        <ele>597.137329</ele>
        <time>2010-03-06T11:10:10Z</time>
      </trkpt>
      <trkpt lat="45.7041" lon="3.11259">
        <ele>596.796875</ele>
        <time>2010-03-06T11:10:16Z</time>
      </trkpt>
      <trkpt lat="45.704" lon="3.11256">
        <ele>593.811523</ele>
        <time>2010-03-06T11:10:24Z</time>
      </trkpt>
      <trkpt lat="45.7039" lon="3.11255">
        <ele>591.132324</ele>
        <time>2010-03-06T11:10:30Z</time>
      </trkpt>
      <trkpt lat="45.70379" lon="3.11257">
        <ele>586.921143</ele>
        <time>2010-03-06T11:10:37Z</time>
      </trkpt>
      <trkpt lat="45.70369" lon="3.11258">
        <ele>583.443909</ele>
        <time>2010-03-06T11:10:44Z</time>
      </trkpt>
      <trkpt lat="45.7036" lon="3.11257">
        <ele>580.903015</ele>
        <time>2010-03-06T11:10:50Z</time>
      </trkpt>
      <trkpt lat="45.70349" lon="3.11257">
        <ele>577.628479</ele>
        <time>2010-03-06T11:10:57Z</time>
      </trkpt>
      <trkpt lat="45.7034" lon="3.11254">
        <ele>577.589783</ele>
        <time>2010-03-06T11:11:03Z</time>
      </trkpt>
      <trkpt lat="45.7033" lon="3.11254">
        <ele>575.932983</ele>
        <time>2010-03-06T11:11:09Z</time>
      </trkpt>
      <trkpt lat="45.70321" lon="3.11255">
        <ele>573.89801</ele>
        <time>2010-03-06T11:11:15Z</time>
      </trkpt>
      <trkpt lat="45.70311" lon="3.11259">
        <ele>569.68689</ele>
        <time>2010-03-06T11:11:21Z</time>
      </trkpt>
      <trkpt lat="45.70303" lon="3.11265">
        <ele>564.29071</ele>
        <time>2010-03-06T11:11:27Z</time>
      </trkpt>
      <trkpt lat="45.70294" lon="3.11268">
        <ele>561.986877</ele>
        <time>2010-03-06T11:11:34Z</time>
      </trkpt>
      <trkpt lat="45.70284" lon="3.11264">
        <ele>563.518372</ele>
        <time>2010-03-06T11:11:42Z</time>
      </trkpt>
      <trkpt lat="45.70275" lon="3.11261">
        <ele>564.982605</ele>
        <time>2010-03-06T11:11:49Z</time>
      </trkpt>
      <trkpt lat="45.70266" lon="3.11256">
        <ele>566.922424</ele>
        <time>2010-03-06T11:11:57Z</time>
      </trkpt>
      <trkpt lat="45.70257" lon="3.11252">
        <ele>568.756042</ele>
        <time>2010-03-06T11:12:03Z</time>
      </trkpt>
      <trkpt lat="45.70247" lon="3.11248">
        <ele>569.219116</ele>
        <time>2010-03-06T11:12:10Z</time>
      </trkpt>
      <trkpt lat="45.70238" lon="3.11244">
        <ele>570.242004</ele>
        <time>2010-03-06T11:12:17Z</time>
      </trkpt>
      <trkpt lat="45.70231" lon="3.11235">
        <ele>571.437927</ele>
        <time>2010-03-06T11:12:24Z</time>
      </trkpt>
      <trkpt lat="45.70226" lon="3.11221">
        <ele>572.087524</ele>
        <time>2010-03-06T11:12:33Z</time>
      </trkpt>
      <trkpt lat="45.70224" lon="3.11207">
        <ele>573.003479</ele>
        <time>2010-03-06T11:12:41Z</time>
      </trkpt>
      <trkpt lat="45.70221" lon="3.11194">
        <ele>573.473572</ele>
        <time>2010-03-06T11:12:48Z</time>
      </trkpt>
      <trkpt lat="45.70219" lon="3.11181">
        <ele>574.169556</ele>
        <time>2010-03-06T11:12:55Z</time>
      </trkpt>
      <trkpt lat="45.70222" lon="3.11168">
        <ele>574.682312</ele>
        <time>2010-03-06T11:13:02Z</time>
      </trkpt>
      <trkpt lat="45.70227" lon="3.11155">
        <ele>574.906738</ele>
        <time>2010-03-06T11:13:14Z</time>
      </trkpt>
      <trkpt lat="45.70233" lon="3.11143">
        <ele>575.78772</ele>
        <time>2010-03-06T11:13:22Z</time>
      </trkpt>
      <trkpt lat="45.70239" lon="3.11132">
        <ele>576.666809</ele>
        <time>2010-03-06T11:13:34Z</time>
      </trkpt>
      <trkpt lat="45.70244" lon="3.11121">
        <ele>577.452942</ele>
        <time>2010-03-06T11:13:41Z</time>
      </trkpt>
      <trkpt lat="45.70252" lon="3.11111">
        <ele>579.312012</ele>
        <time>2010-03-06T11:13:48Z</time>
      </trkpt>
      <trkpt lat="45.70255" lon="3.11097">
        <ele>579.692505</ele>
        <time>2010-03-06T11:13:55Z</time>
      </trkpt>
      <trkpt lat="45.70256" lon="3.11082">
        <ele>578.806763</ele>
        <time>2010-03-06T11:14:02Z</time>
      </trkpt>
      <trkpt lat="45.70254" lon="3.11067">
        <ele>576.794922</ele>
        <time>2010-03-06T11:14:09Z</time>
      </trkpt>
      <trkpt lat="45.70255" lon="3.11053">
        <ele>576.40686</ele>
        <time>2010-03-06T11:14:16Z</time>
      </trkpt>
      <trkpt lat="45.70255" lon="3.11039">
        <ele>574.147522</ele>
        <time>2010-03-06T11:14:24Z</time>
      </trkpt>
      <trkpt lat="45.70252" lon="3.11025">
        <ele>570.336731</ele>
        <time>2010-03-06T11:14:31Z</time>
      </trkpt>
      <trkpt lat="45.7025" lon="3.11011">
        <ele>567.815796</ele>
        <time>2010-03-06T11:14:38Z</time>
      </trkpt>
      <trkpt lat="45.7025" lon="3.10998">
        <ele>565.56897</ele>
        <time>2010-03-06T11:14:45Z</time>
      </trkpt>
      <trkpt lat="45.70247" lon="3.10983">
        <ele>562.872498</ele>
        <time>2010-03-06T11:14:53Z</time>
      </trkpt>
      <trkpt lat="45.70238" lon="3.10976">
        <ele>560.088013</ele>
        <time>2010-03-06T11:15:02Z</time>
      </trkpt>
      <trkpt lat="45.70229" lon="3.10973">
        <ele>557.851379</ele>
        <time>2010-03-06T11:15:09Z</time>
      </trkpt>
      <trkpt lat="45.70219" lon="3.10973">
        <ele>555.728882</ele>
        <time>2010-03-06T11:15:16Z</time>
      </trkpt>
      <trkpt lat="45.7021" lon="3.10974">
        <ele>553.900818</ele>
        <time>2010-03-06T11:15:24Z</time>
      </trkpt>
      <trkpt lat="45.70202" lon="3.10982">
        <ele>552.444763</ele>
        <time>2010-03-06T11:15:35Z</time>
      </trkpt>
      <trkpt lat="45.70203" lon="3.10997">
        <ele>552.173096</ele>
        <time>2010-03-06T11:15:41Z</time>
      </trkpt>
      <trkpt lat="45.70207" lon="3.1101">
        <ele>552.973206</ele>
        <time>2010-03-06T11:15:48Z</time>
      </trkpt>
      <trkpt lat="45.70212" lon="3.11025">
        <ele>554.258118</ele>
        <time>2010-03-06T11:15:53Z</time>
      </trkpt>
      <trkpt lat="45.70216" lon="3.11037">
        <ele>555.631042</ele>
        <time>2010-03-06T11:15:57Z</time>
      </trkpt>
      <trkpt lat="45.7022" lon="3.11051">
        <ele>558.173218</ele>
        <time>2010-03-06T11:16:01Z</time>
      </trkpt>
      <trkpt lat="45.70222" lon="3.11063">
        <ele>561.371033</ele>
        <time>2010-03-06T11:16:04Z</time>
      </trkpt>
      <trkpt lat="45.70223" lon="3.11077">
        <ele>564.019226</ele>
        <time>2010-03-06T11:16:08Z</time>
      </trkpt>
      <trkpt lat="45.7022" lon="3.11089">
        <ele>564.384766</ele>
        <time>2010-03-06T11:16:13Z</time>
      </trkpt>
      <trkpt lat="45.70214" lon="3.11101">
        <ele>564.143738</ele>
        <time>2010-03-06T11:16:20Z</time>
      </trkpt>
      <trkpt lat="45.70206" lon="3.11111">
        <ele>562.423096</ele>
        <time>2010-03-06T11:16:27Z</time>
      </trkpt>
      <trkpt lat="45.70199" lon="3.11121">
        <ele>560.999146</ele>
        <time>2010-03-06T11:16:32Z</time>
      </trkpt>
      <trkpt lat="45.70193" lon="3.11132">
        <ele>559.761169</ele>
        <time>2010-03-06T11:16:38Z</time>
      </trkpt>
      <trkpt lat="45.70184" lon="3.1114">
        <ele>557.246338</ele>
        <time>2010-03-06T11:16:48Z</time>
      </trkpt>
      <trkpt lat="45.70176" lon="3.11146">
        <ele>554.581909</ele>
        <time>2010-03-06T11:16:57Z</time>
      </trkpt>
      <trkpt lat="45.70167" lon="3.11154">
        <ele>552.418823</ele>
        <time>2010-03-06T11:17:04Z</time>
      </trkpt>
      <trkpt lat="45.70159" lon="3.11162">
        <ele>549.563965</ele>
        <time>2010-03-06T11:17:12Z</time>
      </trkpt>
      <trkpt lat="45.70152" lon="3.11174">
        <ele>547.557556</ele>
        <time>2010-03-06T11:17:20Z</time>
      </trkpt>
      <trkpt lat="45.70148" lon="3.11186">
        <ele>545.447937</ele>
        <time>2010-03-06T11:17:27Z</time>
      </trkpt>
      <trkpt lat="45.70145" lon="3.112">
        <ele>543.963501</ele>
        <time>2010-03-06T11:17:34Z</time>
      </trkpt>
      <trkpt lat="45.70142" lon="3.11212">
        <ele>542.587097</ele>
        <time>2010-03-06T11:17:41Z</time>
      </trkpt>
      <trkpt lat="45.70137" lon="3.11226">
        <ele>540.780945</ele>
        <time>2010-03-06T11:17:48Z</time>
      </trkpt>
      <trkpt lat="45.70133" lon="3.11239">
        <ele>539.31543</ele>
        <time>2010-03-06T11:17:55Z</time>
      </trkpt>
      <trkpt lat="45.7013" lon="3.11252">
        <ele>533.566528</ele>
        <time>2010-03-06T11:18:03Z</time>
      </trkpt>
      <trkpt lat="45.70121" lon="3.1126">
        <ele>527.717773</ele>
        <time>2010-03-06T11:18:10Z</time>
      </trkpt>
      <trkpt lat="45.70114" lon="3.1127">
        <ele>522.921448</ele>
        <time>2010-03-06T11:18:16Z</time>
      </trkpt>
      <trkpt lat="45.70108" lon="3.11279">
        <ele>518.722229</ele>
        <time>2010-03-06T11:18:22Z</time>
      </trkpt>
      <trkpt lat="45.70099" lon="3.11287">
        <ele>515.044128</ele>
        <time>2010-03-06T11:18:29Z</time>
      </trkpt>
      <trkpt lat="45.70091" lon="3.11293">
        <ele>512.317261</ele>
        <time>2010-03-06T11:18:37Z</time>
      </trkpt>
      <trkpt lat="45.70081" lon="3.113">
        <ele>509.793701</ele>
        <time>2010-03-06T11:18:44Z</time>
      </trkpt>
      <trkpt lat="45.70072" lon="3.11307">
        <ele>507.773346</ele>
        <time>2010-03-06T11:18:50Z</time>
      </trkpt>
      <trkpt lat="45.70065" lon="3.11316">
        <ele>505.743073</ele>
        <time>2010-03-06T11:18:56Z</time>
      </trkpt>
      <trkpt lat="45.70058" lon="3.11326">
        <ele>503.683929</ele>
        <time>2010-03-06T11:19:02Z</time>
      </trkpt>
      <trkpt lat="45.7005" lon="3.11335">
        <ele>501.696167</ele>
        <time>2010-03-06T11:19:09Z</time>
      </trkpt>
      <trkpt lat="45.70042" lon="3.11344">
        <ele>500.029297</ele>
        <time>2010-03-06T11:19:15Z</time>
      </trkpt>
      <trkpt lat="45.70033" lon="3.11351">
        <ele>498.734406</ele>
        <time>2010-03-06T11:19:22Z</time>
      </trkpt>
      <trkpt lat="45.70026" lon="3.11359">
        <ele>497.270935</ele>
        <time>2010-03-06T11:19:29Z</time>
      </trkpt>
      <trkpt lat="45.70019" lon="3.1137">
        <ele>495.577484</ele>
        <time>2010-03-06T11:19:37Z</time>
      </trkpt>
      <trkpt lat="45.70012" lon="3.11379">
        <ele>493.537506</ele>
        <time>2010-03-06T11:19:45Z</time>
      </trkpt>
      <trkpt lat="45.70004" lon="3.11388">
        <ele>491.617493</ele>
        <time>2010-03-06T11:19:51Z</time>
      </trkpt>
      <trkpt lat="45.69996" lon="3.11397">
        <ele>489.657501</ele>
        <time>2010-03-06T11:19:58Z</time>
      </trkpt>
      <trkpt lat="45.69989" lon="3.11407">
        <ele>487.592499</ele>
        <time>2010-03-06T11:20:04Z</time>
      </trkpt>
      <trkpt lat="45.6998" lon="3.11413">
        <ele>486.260773</ele>
        <time>2010-03-06T11:20:09Z</time>
      </trkpt>
      <trkpt lat="45.6997" lon="3.11419">
        <ele>484.958893</ele>
        <time>2010-03-06T11:20:15Z</time>
      </trkpt>
      <trkpt lat="45.69962" lon="3.11425">
        <ele>483.915497</ele>
        <time>2010-03-06T11:20:21Z</time>
      </trkpt>
      <trkpt lat="45.69951" lon="3.11426">
        <ele>483.503571</ele>
        <time>2010-03-06T11:20:28Z</time>
      </trkpt>
      <trkpt lat="45.69942" lon="3.11428">
        <ele>483.09021</ele>
        <time>2010-03-06T11:20:34Z</time>
      </trkpt>
      <trkpt lat="45.69931" lon="3.11432">
        <ele>482.411987</ele>
        <time>2010-03-06T11:20:41Z</time>
      </trkpt>
      <trkpt lat="45.69922" lon="3.11436">
        <ele>481.687958</ele>
        <time>2010-03-06T11:20:47Z</time>
      </trkpt>
      <trkpt lat="45.69913" lon="3.11441">
        <ele>481.008514</ele>
        <time>2010-03-06T11:20:54Z</time>
      </trkpt>
      <trkpt lat="45.69905" lon="3.1145">
        <ele>480.156036</ele>
        <time>2010-03-06T11:20:59Z</time>
      </trkpt>
      <trkpt lat="45.69899" lon="3.11461">
        <ele>479.36087</ele>
        <time>2010-03-06T11:21:04Z</time>
      </trkpt>
      <trkpt lat="45.69892" lon="3.11473">
        <ele>478.093048</ele>
        <time>2010-03-06T11:21:10Z</time>
      </trkpt>
      <trkpt lat="45.69885" lon="3.11484">
        <ele>476.575989</ele>
        <time>2010-03-06T11:21:17Z</time>
      </trkpt>
      <trkpt lat="45.69875" lon="3.1149">
        <ele>475.221313</ele>
        <time>2010-03-06T11:21:23Z</time>
      </trkpt>
      <trkpt lat="45.69866" lon="3.11495">
        <ele>473.870148</ele>
        <time>2010-03-06T11:21:29Z</time>
      </trkpt>
      <trkpt lat="45.69857" lon="3.115">
        <ele>472.583954</ele>
        <time>2010-03-06T11:21:35Z</time>
      </trkpt>
      <trkpt lat="45.69849" lon="3.11506">
        <ele>471.145599</ele>
        <time>2010-03-06T11:21:41Z</time>
      </trkpt>
      <trkpt lat="45.6984" lon="3.11511">
        <ele>469.598755</ele>
        <time>2010-03-06T11:21:47Z</time>
      </trkpt>
      <trkpt lat="45.69831" lon="3.11515">
        <ele>468.099854</ele>
        <time>2010-03-06T11:21:53Z</time>
      </trkpt>
      <trkpt lat="45.69823" lon="3.11522">
        <ele>466.497192</ele>
        <time>2010-03-06T11:21:59Z</time>
      </trkpt>
      <trkpt lat="45.69814" lon="3.11527">
        <ele>465.051849</ele>
        <time>2010-03-06T11:22:05Z</time>
      </trkpt>
      <trkpt lat="45.69804" lon="3.11531">
        <ele>463.730804</ele>
        <time>2010-03-06T11:22:13Z</time>
      </trkpt>
      <trkpt lat="45.69804" lon="3.11546">
        <ele>462.605286</ele>
        <time>2010-03-06T11:22:22Z</time>
      </trkpt>
      <trkpt lat="45.69807" lon="3.11558">
        <ele>461.729401</ele>
        <time>2010-03-06T11:22:27Z</time>
      </trkpt>
      <trkpt lat="45.6981" lon="3.11571">
        <ele>460.42923</ele>
        <time>2010-03-06T11:22:33Z</time>
      </trkpt>
      <trkpt lat="45.69813" lon="3.11585">
        <ele>458.896606</ele>
        <time>2010-03-06T11:22:39Z</time>
      </trkpt>
      <trkpt lat="45.69815" lon="3.11599">
        <ele>457.374542</ele>
        <time>2010-03-06T11:22:45Z</time>
      </trkpt>
      <trkpt lat="45.6982" lon="3.1161">
        <ele>456.200134</ele>
        <time>2010-03-06T11:22:51Z</time>
      </trkpt>
      <trkpt lat="45.69824" lon="3.11623">
        <ele>454.992523</ele>
        <time>2010-03-06T11:22:57Z</time>
      </trkpt>
      <trkpt lat="45.69826" lon="3.11637">
        <ele>454.057739</ele>
        <time>2010-03-06T11:23:03Z</time>
      </trkpt>
      <trkpt lat="45.69829" lon="3.1165">
        <ele>453.222687</ele>
        <time>2010-03-06T11:23:08Z</time>
      </trkpt>
      <trkpt lat="45.69831" lon="3.11664">
        <ele>452.192505</ele>
        <time>2010-03-06T11:23:14Z</time>
      </trkpt>
      <trkpt lat="45.69834" lon="3.11677">
        <ele>451.272736</ele>
        <time>2010-03-06T11:23:20Z</time>
      </trkpt>
      <trkpt lat="45.69836" lon="3.11691">
        <ele>450.307037</ele>
        <time>2010-03-06T11:23:26Z</time>
      </trkpt>
      <trkpt lat="45.69837" lon="3.11705">
        <ele>449.549896</ele>
        <time>2010-03-06T11:23:31Z</time>
      </trkpt>
      <trkpt lat="45.69839" lon="3.11719">
        <ele>448.737762</ele>
        <time>2010-03-06T11:23:37Z</time>
      </trkpt>
      <trkpt lat="45.69841" lon="3.11733">
        <ele>447.954132</ele>
        <time>2010-03-06T11:23:43Z</time>
      </trkpt>
      <trkpt lat="45.69842" lon="3.11747">
        <ele>447.110107</ele>
        <time>2010-03-06T11:23:49Z</time>
      </trkpt>
      <trkpt lat="45.69844" lon="3.1176">
        <ele>446.959229</ele>
        <time>2010-03-06T11:23:55Z</time>
      </trkpt>
      <trkpt lat="45.69846" lon="3.11775">
        <ele>446.933167</ele>
        <time>2010-03-06T11:24:01Z</time>
      </trkpt>
      <trkpt lat="45.69847" lon="3.11789">
        <ele>446.933838</ele>
        <time>2010-03-06T11:24:08Z</time>
      </trkpt>
      <trkpt lat="45.69848" lon="3.11803">
        <ele>446.937195</ele>
        <time>2010-03-06T11:24:13Z</time>
      </trkpt>
      <trkpt lat="45.69849" lon="3.11816">
        <ele>447.022858</ele>
        <time>2010-03-06T11:24:19Z</time>
      </trkpt>
      <trkpt lat="45.6985" lon="3.1183">
        <ele>447.073303</ele>
        <time>2010-03-06T11:24:25Z</time>
      </trkpt>
      <trkpt lat="45.69849" lon="3.11844">
        <ele>447.043518</ele>
        <time>2010-03-06T11:24:32Z</time>
      </trkpt>
      <trkpt lat="45.69846" lon="3.11856">
        <ele>446.890015</ele>
        <time>2010-03-06T11:24:38Z</time>
      </trkpt>
      <trkpt lat="45.69843" lon="3.1187">
        <ele>446.75</ele>
        <time>2010-03-06T11:24:44Z</time>
      </trkpt>
      <trkpt lat="45.69844" lon="3.11884">
        <ele>446.906677</ele>
        <time>2010-03-06T11:24:51Z</time>
      </trkpt>
      <trkpt lat="45.69844" lon="3.11898">
        <ele>447.039154</ele>
        <time>2010-03-06T11:24:58Z</time>
      </trkpt>
      <trkpt lat="45.69834" lon="3.11901">
        <ele>446.505981</ele>
        <time>2010-03-06T11:25:06Z</time>
      </trkpt>
      <trkpt lat="45.69824" lon="3.11903">
        <ele>445.887085</ele>
        <time>2010-03-06T11:25:14Z</time>
      </trkpt>
      <trkpt lat="45.69815" lon="3.11899">
        <ele>445.328125</ele>
        <time>2010-03-06T11:25:21Z</time>
      </trkpt>
      <trkpt lat="45.69806" lon="3.11903">
        <ele>444.739532</ele>
        <time>2010-03-06T11:25:27Z</time>
      </trkpt>
      <trkpt lat="45.69796" lon="3.11906">
        <ele>444.206238</ele>
        <time>2010-03-06T11:25:34Z</time>
      </trkpt>
      <trkpt lat="45.69785" lon="3.11907">
        <ele>443.714996</ele>
        <time>2010-03-06T11:25:41Z</time>
      </trkpt>
      <trkpt lat="45.69776" lon="3.11907">
        <ele>443.292511</ele>
        <time>2010-03-06T11:25:46Z</time>
      </trkpt>
      <trkpt lat="45.69766" lon="3.11907">
        <ele>442.841248</ele>
        <time>2010-03-06T11:25:52Z</time>
      </trkpt>
      <trkpt lat="45.69756" lon="3.11902">
        <ele>442.466888</ele>
        <time>2010-03-06T11:26:02Z</time>
      </trkpt>
      <trkpt lat="45.69746" lon="3.11901">
        <ele>441.920135</ele>
        <time>2010-03-06T11:26:09Z</time>
      </trkpt>
      <trkpt lat="45.69736" lon="3.11901">
        <ele>441.400391</ele>
        <time>2010-03-06T11:26:15Z</time>
      </trkpt>
      <trkpt lat="45.69726" lon="3.11901">
        <ele>440.857391</ele>
        <time>2010-03-06T11:26:21Z</time>
      </trkpt>
      <trkpt lat="45.69717" lon="3.11901">
        <ele>440.374084</ele>
        <time>2010-03-06T11:26:26Z</time>
      </trkpt>
      <trkpt lat="45.69707" lon="3.11898">
        <ele>439.915405</ele>
        <time>2010-03-06T11:26:32Z</time>
      </trkpt>
      <trkpt lat="45.69696" lon="3.11898">
        <ele>439.276276</ele>
        <time>2010-03-06T11:26:37Z</time>
      </trkpt>
      <trkpt lat="45.69686" lon="3.11902">
        <ele>438.593323</ele>
        <time>2010-03-06T11:26:42Z</time>
      </trkpt>
      <trkpt lat="45.69677" lon="3.11904">
        <ele>438.014343</ele>
        <time>2010-03-06T11:26:48Z</time>
      </trkpt>
      <trkpt lat="45.69668" lon="3.11906">
        <ele>437.523468</ele>
        <time>2010-03-06T11:26:54Z</time>
      </trkpt>
      <trkpt lat="45.69657" lon="3.1191">
        <ele>437.579529</ele>
        <time>2010-03-06T11:27:01Z</time>
      </trkpt>
      <trkpt lat="45.69649" lon="3.11918">
        <ele>437.614288</ele>
        <time>2010-03-06T11:27:07Z</time>
      </trkpt>
      <trkpt lat="45.69639" lon="3.11915">
        <ele>437.778198</ele>
        <time>2010-03-06T11:27:31Z</time>
      </trkpt>
      <trkpt lat="45.6963" lon="3.11918">
        <ele>437.905151</ele>
        <time>2010-03-06T11:27:42Z</time>
      </trkpt>
      <trkpt lat="45.69625" lon="3.1193">
        <ele>437.962799</ele>
        <time>2010-03-06T11:27:46Z</time>
      </trkpt>
      <trkpt lat="45.69617" lon="3.11939">
        <ele>438.414734</ele>
        <time>2010-03-06T11:27:50Z</time>
      </trkpt>
      <trkpt lat="45.69606" lon="3.11945">
        <ele>439.16391</ele>
        <time>2010-03-06T11:27:55Z</time>
      </trkpt>
      <trkpt lat="45.69598" lon="3.11951">
        <ele>439.826141</ele>
        <time>2010-03-06T11:27:58Z</time>
      </trkpt>
      <trkpt lat="45.69593" lon="3.11964">
        <ele>440.269318</ele>
        <time>2010-03-06T11:28:01Z</time>
      </trkpt>
      <trkpt lat="45.69589" lon="3.11978">
        <ele>440.70874</ele>
        <time>2010-03-06T11:28:03Z</time>
      </trkpt>
      <trkpt lat="45.69584" lon="3.11992">
        <ele>441.301392</ele>
        <time>2010-03-06T11:28:05Z</time>
      </trkpt>
      <trkpt lat="45.6958" lon="3.12006">
        <ele>441.868347</ele>
        <time>2010-03-06T11:28:07Z</time>
      </trkpt>
      <trkpt lat="45.69574" lon="3.1202">
        <ele>442.80542</ele>
        <time>2010-03-06T11:28:09Z</time>
      </trkpt>
      <trkpt lat="45.69568" lon="3.12035">
        <ele>443.917114</ele>
        <time>2010-03-06T11:28:11Z</time>
      </trkpt>
      <trkpt lat="45.69563" lon="3.1205">
        <ele>444.765625</ele>
        <time>2010-03-06T11:28:13Z</time>
      </trkpt>
      <trkpt lat="45.69559" lon="3.12064">
        <ele>445.489716</ele>
        <time>2010-03-06T11:28:15Z</time>
      </trkpt>
      <trkpt lat="45.69554" lon="3.12077">
        <ele>446.364716</ele>
        <time>2010-03-06T11:28:17Z</time>
      </trkpt>
      <trkpt lat="45.69549" lon="3.12091">
        <ele>447.378906</ele>
        <time>2010-03-06T11:28:19Z</time>
      </trkpt>
      <trkpt lat="45.69542" lon="3.12104">
        <ele>448.40921</ele>
        <time>2010-03-06T11:28:21Z</time>
      </trkpt>
      <trkpt lat="45.69537" lon="3.12118">
        <ele>449.313568</ele>
        <time>2010-03-06T11:28:23Z</time>
      </trkpt>
      <trkpt lat="45.6953" lon="3.12134">
        <ele>450.404785</ele>
        <time>2010-03-06T11:28:25Z</time>
      </trkpt>
      <trkpt lat="45.69524" lon="3.12149">
        <ele>451.79303</ele>
        <time>2010-03-06T11:28:27Z</time>
      </trkpt>
      <trkpt lat="45.69518" lon="3.12165">
        <ele>453.037109</ele>
        <time>2010-03-06T11:28:29Z</time>
      </trkpt>
      <trkpt lat="45.69513" lon="3.12181">
        <ele>454.132477</ele>
        <time>2010-03-06T11:28:31Z</time>
      </trkpt>
      <trkpt lat="45.69508" lon="3.12193">
        <ele>455.122498</ele>
        <time>2010-03-06T11:28:33Z</time>
      </trkpt>
      <trkpt lat="45.69503" lon="3.12207">
        <ele>456.190002</ele>
        <time>2010-03-06T11:28:36Z</time>
      </trkpt>
      <trkpt lat="45.69499" lon="3.12219">
        <ele>457.140015</ele>
        <time>2010-03-06T11:28:39Z</time>
      </trkpt>
      <trkpt lat="45.69493" lon="3.12231">
        <ele>458.282501</ele>
        <time>2010-03-06T11:28:42Z</time>
      </trkpt>
      <trkpt lat="45.69489" lon="3.12243">
        <ele>459.220001</ele>
        <time>2010-03-06T11:28:45Z</time>
      </trkpt>
      <trkpt lat="45.69484" lon="3.12254">
        <ele>460.192352</ele>
        <time>2010-03-06T11:28:48Z</time>
      </trkpt>
      <trkpt lat="45.69478" lon="3.12269">
        <ele>461.255005</ele>
        <time>2010-03-06T11:28:52Z</time>
      </trkpt>
      <trkpt lat="45.69488" lon="3.12264">
        <ele>459.952515</ele>
        <time>2010-03-06T11:28:58Z</time>
      </trkpt>
      <trkpt lat="45.69496" lon="3.12254">
        <ele>458.649994</ele>
        <time>2010-03-06T11:29:03Z</time>
      </trkpt>
      <trkpt lat="45.69505" lon="3.12247">
        <ele>457.162506</ele>
        <time>2010-03-06T11:29:08Z</time>
      </trkpt>
      <trkpt lat="45.69514" lon="3.12252">
        <ele>456.112488</ele>
        <time>2010-03-06T11:29:12Z</time>
      </trkpt>
      <trkpt lat="45.69516" lon="3.12264">
        <ele>456.160004</ele>
        <time>2010-03-06T11:29:16Z</time>
      </trkpt>
      <trkpt lat="45.69514" lon="3.12279">
        <ele>456.9375</ele>
        <time>2010-03-06T11:29:20Z</time>
      </trkpt>
      <trkpt lat="45.69511" lon="3.12291">
        <ele>457.734985</ele>
        <time>2010-03-06T11:29:23Z</time>
      </trkpt>
      <trkpt lat="45.69506" lon="3.12307">
        <ele>458.785004</ele>
        <time>2010-03-06T11:29:27Z</time>
      </trkpt>
      <trkpt lat="45.69503" lon="3.12321">
        <ele>459.714996</ele>
        <time>2010-03-06T11:29:30Z</time>
      </trkpt>
      <trkpt lat="45.69499" lon="3.12334">
        <ele>460.230011</ele>
        <time>2010-03-06T11:29:33Z</time>
      </trkpt>
      <trkpt lat="45.69494" lon="3.12351">
        <ele>460.815002</ele>
        <time>2010-03-06T11:29:36Z</time>
      </trkpt>
      <trkpt lat="45.69492" lon="3.12363">
        <ele>461.130005</ele>
        <time>2010-03-06T11:29:39Z</time>
      </trkpt>
      <trkpt lat="45.6949" lon="3.12377">
        <ele>461.369995</ele>
        <time>2010-03-06T11:29:42Z</time>
      </trkpt>
      <trkpt lat="45.69489" lon="3.12391">
        <ele>461.541504</ele>
        <time>2010-03-06T11:29:45Z</time>
      </trkpt>
      <trkpt lat="45.69488" lon="3.12405">
        <ele>461.615753</ele>
        <time>2010-03-06T11:29:48Z</time>
      </trkpt>
      <trkpt lat="45.69486" lon="3.12423">
        <ele>461.918823</ele>
        <time>2010-03-06T11:29:52Z</time>
      </trkpt>
      <trkpt lat="45.69483" lon="3.12438">
        <ele>462.167511</ele>
        <time>2010-03-06T11:29:55Z</time>
      </trkpt>
      <trkpt lat="45.69481" lon="3.12456">
        <ele>462.287506</ele>
        <time>2010-03-06T11:29:59Z</time>
      </trkpt>
      <trkpt lat="45.69479" lon="3.12469">
        <ele>462.236237</ele>
        <time>2010-03-06T11:30:02Z</time>
      </trkpt>
      <trkpt lat="45.69476" lon="3.12486">
        <ele>462.178741</ele>
        <time>2010-03-06T11:30:06Z</time>
      </trkpt>
      <trkpt lat="45.69474" lon="3.125">
        <ele>462.179993</ele>
        <time>2010-03-06T11:30:09Z</time>
      </trkpt>
      <trkpt lat="45.69472" lon="3.12514">
        <ele>462.111389</ele>
        <time>2010-03-06T11:30:12Z</time>
      </trkpt>
      <trkpt lat="45.69469" lon="3.1253">
        <ele>461.964478</ele>
        <time>2010-03-06T11:30:15Z</time>
      </trkpt>
      <trkpt lat="45.69467" lon="3.12545">
        <ele>461.706757</ele>
        <time>2010-03-06T11:30:18Z</time>
      </trkpt>
      <trkpt lat="45.69465" lon="3.12559">
        <ele>461.530823</ele>
        <time>2010-03-06T11:30:21Z</time>
      </trkpt>
      <trkpt lat="45.69465" lon="3.12574">
        <ele>461.213593</ele>
        <time>2010-03-06T11:30:24Z</time>
      </trkpt>
      <trkpt lat="45.69462" lon="3.1259">
        <ele>461.022491</ele>
        <time>2010-03-06T11:30:27Z</time>
      </trkpt>
      <trkpt lat="45.6946" lon="3.12606">
        <ele>460.795013</ele>
        <time>2010-03-06T11:30:30Z</time>
      </trkpt>
      <trkpt lat="45.69458" lon="3.12621">
        <ele>460.505005</ele>
        <time>2010-03-06T11:30:33Z</time>
      </trkpt>
      <trkpt lat="45.69455" lon="3.12634">
        <ele>460.432495</ele>
        <time>2010-03-06T11:30:36Z</time>
      </trkpt>
      <trkpt lat="45.69452" lon="3.12648">
        <ele>460.338287</ele>
        <time>2010-03-06T11:30:39Z</time>
      </trkpt>
      <trkpt lat="45.69448" lon="3.12666">
        <ele>460.415619</ele>
        <time>2010-03-06T11:30:42Z</time>
      </trkpt>
      <trkpt lat="45.69445" lon="3.12679">
        <ele>460.617706</ele>
        <time>2010-03-06T11:30:44Z</time>
      </trkpt>
      <trkpt lat="45.69442" lon="3.12693">
        <ele>460.682068</ele>
        <time>2010-03-06T11:30:46Z</time>
      </trkpt>
      <trkpt lat="45.6944" lon="3.12705">
        <ele>460.79776</ele>
        <time>2010-03-06T11:30:48Z</time>
      </trkpt>
      <trkpt lat="45.69437" lon="3.1272">
        <ele>461.60849</ele>
        <time>2010-03-06T11:30:50Z</time>
      </trkpt>
      <trkpt lat="45.69432" lon="3.12737">
        <ele>462.670837</ele>
        <time>2010-03-06T11:30:52Z</time>
      </trkpt>
      <trkpt lat="45.69429" lon="3.1275">
        <ele>463.424469</ele>
        <time>2010-03-06T11:30:54Z</time>
      </trkpt>
      <trkpt lat="45.69426" lon="3.12764">
        <ele>464.14743</ele>
        <time>2010-03-06T11:30:56Z</time>
      </trkpt>
      <trkpt lat="45.69422" lon="3.12778">
        <ele>464.725006</ele>
        <time>2010-03-06T11:30:58Z</time>
      </trkpt>
      <trkpt lat="45.69419" lon="3.12791">
        <ele>465.0625</ele>
        <time>2010-03-06T11:31:00Z</time>
      </trkpt>
      <trkpt lat="45.69414" lon="3.12805">
        <ele>465.537506</ele>
        <time>2010-03-06T11:31:03Z</time>
      </trkpt>
      <trkpt lat="45.69409" lon="3.12819">
        <ele>466.087494</ele>
        <time>2010-03-06T11:31:07Z</time>
      </trkpt>
      <trkpt lat="45.69404" lon="3.12832">
        <ele>466.712494</ele>
        <time>2010-03-06T11:31:11Z</time>
      </trkpt>
      <trkpt lat="45.69399" lon="3.12844">
        <ele>467.105011</ele>
        <time>2010-03-06T11:31:17Z</time>
      </trkpt>
      <trkpt lat="45.69393" lon="3.12856">
        <ele>467.532501</ele>
        <time>2010-03-06T11:31:25Z</time>
      </trkpt>
      <trkpt lat="45.69388" lon="3.12869">
        <ele>467.75174</ele>
        <time>2010-03-06T11:31:33Z</time>
      </trkpt>
      <trkpt lat="45.69383" lon="3.12881">
        <ele>467.992645</ele>
        <time>2010-03-06T11:31:41Z</time>
      </trkpt>
      <trkpt lat="45.69386" lon="3.12895">
        <ele>467.527283</ele>
        <time>2010-03-06T11:31:50Z</time>
      </trkpt>
      <trkpt lat="45.69396" lon="3.12898">
        <ele>466.48999</ele>
        <time>2010-03-06T11:31:58Z</time>
      </trkpt>
      <trkpt lat="45.69406" lon="3.12896">
        <ele>465.420013</ele>
        <time>2010-03-06T11:32:06Z</time>
      </trkpt>
      <trkpt lat="45.69416" lon="3.12896">
        <ele>464.297516</ele>
        <time>2010-03-06T11:32:13Z</time>
      </trkpt>
      <trkpt lat="45.69426" lon="3.12898">
        <ele>463.147491</ele>
        <time>2010-03-06T11:32:20Z</time>
      </trkpt>
      <trkpt lat="45.69437" lon="3.12899">
        <ele>461.923767</ele>
        <time>2010-03-06T11:32:27Z</time>
      </trkpt>
      <trkpt lat="45.69447" lon="3.12903">
        <ele>460.609985</ele>
        <time>2010-03-06T11:32:33Z</time>
      </trkpt>
      <trkpt lat="45.69455" lon="3.12909">
        <ele>459.328735</ele>
        <time>2010-03-06T11:32:40Z</time>
      </trkpt>
      <trkpt lat="45.69464" lon="3.12915">
        <ele>458.061249</ele>
        <time>2010-03-06T11:32:46Z</time>
      </trkpt>
      <trkpt lat="45.69472" lon="3.12922">
        <ele>456.857513</ele>
        <time>2010-03-06T11:32:52Z</time>
      </trkpt>
      <trkpt lat="45.69481" lon="3.12929">
        <ele>455.577515</ele>
        <time>2010-03-06T11:32:59Z</time>
      </trkpt>
      <trkpt lat="45.69489" lon="3.12936">
        <ele>454.432495</ele>
        <time>2010-03-06T11:33:05Z</time>
      </trkpt>
      <trkpt lat="45.6949" lon="3.1295">
        <ele>454.083923</ele>
        <time>2010-03-06T11:33:12Z</time>
      </trkpt>
      <trkpt lat="45.69489" lon="3.12964">
        <ele>454.003326</ele>
        <time>2010-03-06T11:33:19Z</time>
      </trkpt>
      <trkpt lat="45.69487" lon="3.12978">
        <ele>454.313019</ele>
        <time>2010-03-06T11:33:26Z</time>
      </trkpt>
      <trkpt lat="45.69486" lon="3.12994">
        <ele>454.65741</ele>
        <time>2010-03-06T11:33:34Z</time>
      </trkpt>
      <trkpt lat="45.69485" lon="3.13009">
        <ele>455.04425</ele>
        <time>2010-03-06T11:33:41Z</time>
      </trkpt>
      <trkpt lat="45.69484" lon="3.13023">
        <ele>455.425629</ele>
        <time>2010-03-06T11:33:47Z</time>
      </trkpt>
      <trkpt lat="45.69483" lon="3.1304">
        <ele>455.589905</ele>
        <time>2010-03-06T11:33:51Z</time>
      </trkpt>
      <trkpt lat="45.69483" lon="3.13056">
        <ele>455.584259</ele>
        <time>2010-03-06T11:33:55Z</time>
      </trkpt>
      <trkpt lat="45.69482" lon="3.13071">
        <ele>455.670532</ele>
        <time>2010-03-06T11:33:59Z</time>
      </trkpt>
      <trkpt lat="45.69482" lon="3.13085">
        <ele>455.662872</ele>
        <time>2010-03-06T11:34:02Z</time>
      </trkpt>
      <trkpt lat="45.69482" lon="3.13101">
        <ele>455.89502</ele>
        <time>2010-03-06T11:34:06Z</time>
      </trkpt>
      <trkpt lat="45.69482" lon="3.13116">
        <ele>456.011261</ele>
        <time>2010-03-06T11:34:10Z</time>
      </trkpt>
      <trkpt lat="45.69482" lon="3.13132">
        <ele>456.350006</ele>
        <time>2010-03-06T11:34:13Z</time>
      </trkpt>
      <trkpt lat="45.69481" lon="3.13149">
        <ele>456.79126</ele>
        <time>2010-03-06T11:34:16Z</time>
      </trkpt>
      <trkpt lat="45.69481" lon="3.13165">
        <ele>456.731354</ele>
        <time>2010-03-06T11:34:19Z</time>
      </trkpt>
      <trkpt lat="45.69481" lon="3.13182">
        <ele>456.384308</ele>
        <time>2010-03-06T11:34:22Z</time>
      </trkpt>
      <trkpt lat="45.69482" lon="3.13196">
        <ele>456.057434</ele>
        <time>2010-03-06T11:34:25Z</time>
      </trkpt>
      <trkpt lat="45.69481" lon="3.13211">
        <ele>455.98407</ele>
        <time>2010-03-06T11:34:28Z</time>
      </trkpt>
      <trkpt lat="45.69481" lon="3.13227">
        <ele>455.650818</ele>
        <time>2010-03-06T11:34:31Z</time>
      </trkpt>
      <trkpt lat="45.69481" lon="3.13243">
        <ele>455.395508</ele>
        <time>2010-03-06T11:34:34Z</time>
      </trkpt>
      <trkpt lat="45.69482" lon="3.1326">
        <ele>455.05954</ele>
        <time>2010-03-06T11:34:37Z</time>
      </trkpt>
      <trkpt lat="45.69482" lon="3.13274">
        <ele>454.836334</ele>
        <time>2010-03-06T11:34:41Z</time>
      </trkpt>
      <trkpt lat="45.69483" lon="3.13288">
        <ele>454.537506</ele>
        <time>2010-03-06T11:34:48Z</time>
      </trkpt>
      <trkpt lat="45.69493" lon="3.13288">
        <ele>453.412506</ele>
        <time>2010-03-06T11:34:59Z</time>
      </trkpt>
      <trkpt lat="45.69501" lon="3.13279">
        <ele>452.62265</ele>
        <time>2010-03-06T11:35:08Z</time>
      </trkpt>
      <trkpt lat="45.6951" lon="3.1327">
        <ele>451.683868</ele>
        <time>2010-03-06T11:35:17Z</time>
      </trkpt>
      <trkpt lat="45.69518" lon="3.13264">
        <ele>450.678467</ele>
        <time>2010-03-06T11:35:24Z</time>
      </trkpt>
      <trkpt lat="45.69527" lon="3.13255">
        <ele>449.644562</ele>
        <time>2010-03-06T11:35:32Z</time>
      </trkpt>
      <trkpt lat="45.69536" lon="3.13251">
        <ele>448.284576</ele>
        <time>2010-03-06T11:35:39Z</time>
      </trkpt>
      <trkpt lat="45.69545" lon="3.13243">
        <ele>446.951324</ele>
        <time>2010-03-06T11:35:47Z</time>
      </trkpt>
      <trkpt lat="45.69554" lon="3.13237">
        <ele>445.596436</ele>
        <time>2010-03-06T11:35:54Z</time>
      </trkpt>
      <trkpt lat="45.69562" lon="3.13231">
        <ele>444.299469</ele>
        <time>2010-03-06T11:36:02Z</time>
      </trkpt>
      <trkpt lat="45.69571" lon="3.13226">
        <ele>442.899445</ele>
        <time>2010-03-06T11:36:10Z</time>
      </trkpt>
      <trkpt lat="45.69579" lon="3.13221">
        <ele>441.64859</ele>
        <time>2010-03-06T11:36:16Z</time>
      </trkpt>
      <trkpt lat="45.69587" lon="3.13213">
        <ele>440.607849</ele>
        <time>2010-03-06T11:36:26Z</time>
      </trkpt>
      <trkpt lat="45.69596" lon="3.13208">
        <ele>439.361298</ele>
        <time>2010-03-06T11:36:33Z</time>
      </trkpt>
      <trkpt lat="45.69606" lon="3.13206">
        <ele>437.859375</ele>
        <time>2010-03-06T11:36:40Z</time>
      </trkpt>
      <trkpt lat="45.69615" lon="3.13201">
        <ele>436.560638</ele>
        <time>2010-03-06T11:36:48Z</time>
      </trkpt>
      <trkpt lat="45.69625" lon="3.13197">
        <ele>435.019806</ele>
        <time>2010-03-06T11:36:57Z</time>
      </trkpt>
      <trkpt lat="45.69635" lon="3.13193">
        <ele>433.601135</ele>
        <time>2010-03-06T11:37:05Z</time>
      </trkpt>
      <trkpt lat="45.69644" lon="3.13188">
        <ele>432.196838</ele>
        <time>2010-03-06T11:37:12Z</time>
      </trkpt>
      <trkpt lat="45.69653" lon="3.13184">
        <ele>430.928375</ele>
        <time>2010-03-06T11:37:18Z</time>
      </trkpt>
      <trkpt lat="45.69663" lon="3.1318">
        <ele>429.600006</ele>
        <time>2010-03-06T11:37:23Z</time>
      </trkpt>
      <trkpt lat="45.69673" lon="3.13178">
        <ele>428.5625</ele>
        <time>2010-03-06T11:37:27Z</time>
      </trkpt>
      <trkpt lat="45.69683" lon="3.13175">
        <ele>427.375</ele>
        <time>2010-03-06T11:37:32Z</time>
      </trkpt>
      <trkpt lat="45.69695" lon="3.13172">
        <ele>426.112488</ele>
        <time>2010-03-06T11:37:37Z</time>
      </trkpt>
      <trkpt lat="45.69705" lon="3.1317">
        <ele>424.924988</ele>
        <time>2010-03-06T11:37:43Z</time>
      </trkpt>
      <trkpt lat="45.69715" lon="3.13166">
        <ele>423.8125</ele>
        <time>2010-03-06T11:37:50Z</time>
      </trkpt>
      <trkpt lat="45.69725" lon="3.13165">
        <ele>422.6875</ele>
        <time>2010-03-06T11:37:59Z</time>
      </trkpt>
      <trkpt lat="45.69736" lon="3.13164">
        <ele>421.575012</ele>
        <time>2010-03-06T11:38:05Z</time>
      </trkpt>
      <trkpt lat="45.69745" lon="3.13162">
        <ele>420.524994</ele>
        <time>2010-03-06T11:38:12Z</time>
      </trkpt>
      <trkpt lat="45.69755" lon="3.13162">
        <ele>419.399994</ele>
        <time>2010-03-06T11:38:19Z</time>
      </trkpt>
      <trkpt lat="45.69764" lon="3.13159">
        <ele>418.339508</ele>
        <time>2010-03-06T11:38:26Z</time>
      </trkpt>
      <trkpt lat="45.69775" lon="3.13155">
        <ele>417.072754</ele>
        <time>2010-03-06T11:38:33Z</time>
      </trkpt>
      <trkpt lat="45.69783" lon="3.13149">
        <ele>416.060089</ele>
        <time>2010-03-06T11:38:40Z</time>
      </trkpt>
      <trkpt lat="45.6979" lon="3.13138">
        <ele>415.194519</ele>
        <time>2010-03-06T11:38:45Z</time>
      </trkpt>
      <trkpt lat="45.69792" lon="3.13125">
        <ele>414.783752</ele>
        <time>2010-03-06T11:38:51Z</time>
      </trkpt>
      <trkpt lat="45.69793" lon="3.13111">
        <ele>414.436249</ele>
        <time>2010-03-06T11:38:58Z</time>
      </trkpt>
      <trkpt lat="45.69792" lon="3.13097">
        <ele>414.286011</ele>
        <time>2010-03-06T11:39:05Z</time>
      </trkpt>
      <trkpt lat="45.6979" lon="3.13084">
        <ele>414.418549</ele>
        <time>2010-03-06T11:39:12Z</time>
      </trkpt>
      <trkpt lat="45.69788" lon="3.13071">
        <ele>414.604889</ele>
        <time>2010-03-06T11:39:19Z</time>
      </trkpt>
      <trkpt lat="45.6979" lon="3.13058">
        <ele>414.392578</ele>
        <time>2010-03-06T11:39:26Z</time>
      </trkpt>
      <trkpt lat="45.698" lon="3.13061">
        <ele>413.867279</ele>
        <time>2010-03-06T11:39:36Z</time>
      </trkpt>
      <trkpt lat="45.69807" lon="3.13071">
        <ele>413.540771</ele>
        <time>2010-03-06T11:39:42Z</time>
      </trkpt>
      <trkpt lat="45.69814" lon="3.13081">
        <ele>413.073944</ele>
        <time>2010-03-06T11:39:48Z</time>
      </trkpt>
      <trkpt lat="45.6982" lon="3.13092">
        <ele>412.482727</ele>
        <time>2010-03-06T11:39:54Z</time>
      </trkpt>
      <trkpt lat="45.69826" lon="3.13102">
        <ele>411.958282</ele>
        <time>2010-03-06T11:40:00Z</time>
      </trkpt>
      <trkpt lat="45.69833" lon="3.13114">
        <ele>411.507233</ele>
        <time>2010-03-06T11:40:07Z</time>
      </trkpt>
      <trkpt lat="45.69839" lon="3.13126">
        <ele>411.043152</ele>
        <time>2010-03-06T11:40:14Z</time>
      </trkpt>
      <trkpt lat="45.69845" lon="3.13139">
        <ele>410.887299</ele>
        <time>2010-03-06T11:40:21Z</time>
      </trkpt>
      <trkpt lat="45.69851" lon="3.13152">
        <ele>410.616577</ele>
        <time>2010-03-06T11:40:28Z</time>
      </trkpt>
      <trkpt lat="45.69852" lon="3.13167">
        <ele>410.361237</ele>
        <time>2010-03-06T11:40:35Z</time>
      </trkpt>
      <trkpt lat="45.69853" lon="3.13181">
        <ele>410.111267</ele>
        <time>2010-03-06T11:40:41Z</time>
      </trkpt>
      <trkpt lat="45.69855" lon="3.13195">
        <ele>409.774994</ele>
        <time>2010-03-06T11:40:45Z</time>
      </trkpt>
      <trkpt lat="45.69858" lon="3.13209">
        <ele>409.436249</ele>
        <time>2010-03-06T11:40:49Z</time>
      </trkpt>
      <trkpt lat="45.69859" lon="3.13223">
        <ele>409.171265</ele>
        <time>2010-03-06T11:40:52Z</time>
      </trkpt>
      <trkpt lat="45.69861" lon="3.13239">
        <ele>408.799988</ele>
        <time>2010-03-06T11:40:56Z</time>
      </trkpt>
      <trkpt lat="45.69863" lon="3.13256">
        <ele>408.445007</ele>
        <time>2010-03-06T11:41:00Z</time>
      </trkpt>
      <trkpt lat="45.69863" lon="3.13273">
        <ele>408.168762</ele>
        <time>2010-03-06T11:41:04Z</time>
      </trkpt>
      <trkpt lat="45.69864" lon="3.1329">
        <ele>407.864105</ele>
        <time>2010-03-06T11:41:08Z</time>
      </trkpt>
      <trkpt lat="45.69863" lon="3.13305">
        <ele>407.385498</ele>
        <time>2010-03-06T11:41:11Z</time>
      </trkpt>
      <trkpt lat="45.69863" lon="3.1332">
        <ele>406.915619</ele>
        <time>2010-03-06T11:41:14Z</time>
      </trkpt>
      <trkpt lat="45.69863" lon="3.13335">
        <ele>406.45694</ele>
        <time>2010-03-06T11:41:17Z</time>
      </trkpt>
      <trkpt lat="45.69863" lon="3.1335">
        <ele>405.954407</ele>
        <time>2010-03-06T11:41:20Z</time>
      </trkpt>
      <trkpt lat="45.69862" lon="3.13364">
        <ele>405.642853</ele>
        <time>2010-03-06T11:41:23Z</time>
      </trkpt>
      <trkpt lat="45.69861" lon="3.13379">
        <ele>405.398407</ele>
        <time>2010-03-06T11:41:26Z</time>
      </trkpt>
      <trkpt lat="45.6986" lon="3.13393">
        <ele>405.197968</ele>
        <time>2010-03-06T11:41:29Z</time>
      </trkpt>
      <trkpt lat="45.69858" lon="3.13409">
        <ele>405.020935</ele>
        <time>2010-03-06T11:41:32Z</time>
      </trkpt>
      <trkpt lat="45.69855" lon="3.13423">
        <ele>404.994995</ele>
        <time>2010-03-06T11:41:35Z</time>
      </trkpt>
      <trkpt lat="45.69854" lon="3.13438">
        <ele>404.907501</ele>
        <time>2010-03-06T11:41:38Z</time>
      </trkpt>
      <trkpt lat="45.69854" lon="3.13454">
        <ele>404.570007</ele>
        <time>2010-03-06T11:41:41Z</time>
      </trkpt>
      <trkpt lat="45.69856" lon="3.13468">
        <ele>404.121246</ele>
        <time>2010-03-06T11:41:44Z</time>
      </trkpt>
      <trkpt lat="45.69858" lon="3.13482">
        <ele>403.687225</ele>
        <time>2010-03-06T11:41:48Z</time>
      </trkpt>
      <trkpt lat="45.6986" lon="3.13499">
        <ele>403.466309</ele>
        <time>2010-03-06T11:41:52Z</time>
      </trkpt>
      <trkpt lat="45.6986" lon="3.13516">
        <ele>403.509888</ele>
        <time>2010-03-06T11:41:56Z</time>
      </trkpt>
      <trkpt lat="45.69858" lon="3.13531">
        <ele>403.64801</ele>
        <time>2010-03-06T11:41:59Z</time>
      </trkpt>
      <trkpt lat="45.69856" lon="3.13547">
        <ele>403.679993</ele>
        <time>2010-03-06T11:42:02Z</time>
      </trkpt>
      <trkpt lat="45.69856" lon="3.13561">
        <ele>403.262512</ele>
        <time>2010-03-06T11:42:06Z</time>
      </trkpt>
      <trkpt lat="45.69855" lon="3.13579">
        <ele>402.767487</ele>
        <time>2010-03-06T11:42:10Z</time>
      </trkpt>
      <trkpt lat="45.69855" lon="3.13593">
        <ele>402.3125</ele>
        <time>2010-03-06T11:42:13Z</time>
      </trkpt>
      <trkpt lat="45.69854" lon="3.13607">
        <ele>401.899994</ele>
        <time>2010-03-06T11:42:16Z</time>
      </trkpt>
      <trkpt lat="45.69854" lon="3.13626">
        <ele>401.502716</ele>
        <time>2010-03-06T11:42:19Z</time>
      </trkpt>
      <trkpt lat="45.69854" lon="3.1364">
        <ele>401.277954</ele>
        <time>2010-03-06T11:42:21Z</time>
      </trkpt>
      <trkpt lat="45.69852" lon="3.13653">
        <ele>401.087128</ele>
        <time>2010-03-06T11:42:23Z</time>
      </trkpt>
      <trkpt lat="45.69849" lon="3.13668">
        <ele>400.841248</ele>
        <time>2010-03-06T11:42:25Z</time>
      </trkpt>
      <trkpt lat="45.69846" lon="3.13681">
        <ele>400.750397</ele>
        <time>2010-03-06T11:42:27Z</time>
      </trkpt>
      <trkpt lat="45.69841" lon="3.13693">
        <ele>400.700012</ele>
        <time>2010-03-06T11:42:29Z</time>
      </trkpt>
      <trkpt lat="45.69836" lon="3.13706">
        <ele>400.512268</ele>
        <time>2010-03-06T11:42:31Z</time>
      </trkpt>
      <trkpt lat="45.69832" lon="3.1372">
        <ele>400.64624</ele>
        <time>2010-03-06T11:42:33Z</time>
      </trkpt>
      <trkpt lat="45.69828" lon="3.13738">
        <ele>400.85376</ele>
        <time>2010-03-06T11:42:35Z</time>
      </trkpt>
      <trkpt lat="45.69824" lon="3.13753">
        <ele>400.914764</ele>
        <time>2010-03-06T11:42:37Z</time>
      </trkpt>
      <trkpt lat="45.69818" lon="3.13768">
        <ele>400.937347</ele>
        <time>2010-03-06T11:42:39Z</time>
      </trkpt>
      <trkpt lat="45.69812" lon="3.13782">
        <ele>400.85791</ele>
        <time>2010-03-06T11:42:41Z</time>
      </trkpt>
      <trkpt lat="45.69805" lon="3.13798">
        <ele>400.545319</ele>
        <time>2010-03-06T11:42:43Z</time>
      </trkpt>
      <trkpt lat="45.698" lon="3.13814">
        <ele>400.262817</ele>
        <time>2010-03-06T11:42:45Z</time>
      </trkpt>
      <trkpt lat="45.69797" lon="3.13828">
        <ele>400.016602</ele>
        <time>2010-03-06T11:42:47Z</time>
      </trkpt>
      <trkpt lat="45.69793" lon="3.13842">
        <ele>399.708405</ele>
        <time>2010-03-06T11:42:49Z</time>
      </trkpt>
      <trkpt lat="45.6979" lon="3.13857">
        <ele>399.303223</ele>
        <time>2010-03-06T11:42:51Z</time>
      </trkpt>
      <trkpt lat="45.69786" lon="3.13871">
        <ele>399.254547</ele>
        <time>2010-03-06T11:42:53Z</time>
      </trkpt>
      <trkpt lat="45.69782" lon="3.13885">
        <ele>399.323608</ele>
        <time>2010-03-06T11:42:55Z</time>
      </trkpt>
      <trkpt lat="45.6978" lon="3.139">
        <ele>399.23645</ele>
        <time>2010-03-06T11:42:57Z</time>
      </trkpt>
      <trkpt lat="45.69777" lon="3.13916">
        <ele>399.097443</ele>
        <time>2010-03-06T11:42:59Z</time>
      </trkpt>
      <trkpt lat="45.69775" lon="3.13932">
        <ele>398.896484</ele>
        <time>2010-03-06T11:43:01Z</time>
      </trkpt>
      <trkpt lat="45.69773" lon="3.1395">
        <ele>398.687195</ele>
        <time>2010-03-06T11:43:03Z</time>
      </trkpt>
      <trkpt lat="45.6977" lon="3.13966">
        <ele>398.4711</ele>
        <time>2010-03-06T11:43:05Z</time>
      </trkpt>
      <trkpt lat="45.69767" lon="3.1398">
        <ele>398.307831</ele>
        <time>2010-03-06T11:43:07Z</time>
      </trkpt>
      <trkpt lat="45.69763" lon="3.13996">
        <ele>398.119507</ele>
        <time>2010-03-06T11:43:09Z</time>
      </trkpt>
      <trkpt lat="45.69759" lon="3.14012">
        <ele>397.88028</ele>
        <time>2010-03-06T11:43:11Z</time>
      </trkpt>
      <trkpt lat="45.69754" lon="3.14026">
        <ele>397.649445</ele>
        <time>2010-03-06T11:43:13Z</time>
      </trkpt>
      <trkpt lat="45.69751" lon="3.14039">
        <ele>397.38739</ele>
        <time>2010-03-06T11:43:15Z</time>
      </trkpt>
      <trkpt lat="45.69747" lon="3.14053">
        <ele>397.074738</ele>
        <time>2010-03-06T11:43:17Z</time>
      </trkpt>
      <trkpt lat="45.69744" lon="3.14067">
        <ele>396.852631</ele>
        <time>2010-03-06T11:43:19Z</time>
      </trkpt>
      <trkpt lat="45.69742" lon="3.14082">
        <ele>396.745331</ele>
        <time>2010-03-06T11:43:21Z</time>
      </trkpt>
      <trkpt lat="45.6974" lon="3.14098">
        <ele>396.613495</ele>
        <time>2010-03-06T11:43:23Z</time>
      </trkpt>
      <trkpt lat="45.69738" lon="3.14114">
        <ele>396.469238</ele>
        <time>2010-03-06T11:43:25Z</time>
      </trkpt>
      <trkpt lat="45.69736" lon="3.14129">
        <ele>396.320587</ele>
        <time>2010-03-06T11:43:27Z</time>
      </trkpt>
      <trkpt lat="45.69734" lon="3.14144">
        <ele>396.1875</ele>
        <time>2010-03-06T11:43:29Z</time>
      </trkpt>
      <trkpt lat="45.69732" lon="3.1416">
        <ele>395.997711</ele>
        <time>2010-03-06T11:43:31Z</time>
      </trkpt>
      <trkpt lat="45.6973" lon="3.14175">
        <ele>395.788788</ele>
        <time>2010-03-06T11:43:33Z</time>
      </trkpt>
      <trkpt lat="45.69727" lon="3.14189">
        <ele>395.515991</ele>
        <time>2010-03-06T11:43:35Z</time>
      </trkpt>
      <trkpt lat="45.69724" lon="3.14206">
        <ele>394.810547</ele>
        <time>2010-03-06T11:43:37Z</time>
      </trkpt>
      <trkpt lat="45.69722" lon="3.14222">
        <ele>394.21051</ele>
        <time>2010-03-06T11:43:39Z</time>
      </trkpt>
      <trkpt lat="45.69719" lon="3.14238">
        <ele>393.669922</ele>
        <time>2010-03-06T11:43:41Z</time>
      </trkpt>
      <trkpt lat="45.69716" lon="3.14252">
        <ele>393.221252</ele>
        <time>2010-03-06T11:43:43Z</time>
      </trkpt>
      <trkpt lat="45.69713" lon="3.14269">
        <ele>392.688751</ele>
        <time>2010-03-06T11:43:45Z</time>
      </trkpt>
      <trkpt lat="45.69711" lon="3.14283">
        <ele>392.225006</ele>
        <time>2010-03-06T11:43:47Z</time>
      </trkpt>
      <trkpt lat="45.69708" lon="3.14298">
        <ele>391.768738</ele>
        <time>2010-03-06T11:43:49Z</time>
      </trkpt>
      <trkpt lat="45.69705" lon="3.14311">
        <ele>391.463745</ele>
        <time>2010-03-06T11:43:51Z</time>
      </trkpt>
      <trkpt lat="45.69701" lon="3.14324">
        <ele>391.339264</ele>
        <time>2010-03-06T11:43:53Z</time>
      </trkpt>
      <trkpt lat="45.69699" lon="3.14338">
        <ele>391.080841</ele>
        <time>2010-03-06T11:43:55Z</time>
      </trkpt>
      <trkpt lat="45.69697" lon="3.14351">
        <ele>390.800354</ele>
        <time>2010-03-06T11:43:57Z</time>
      </trkpt>
      <trkpt lat="45.69696" lon="3.14368">
        <ele>390.358307</ele>
        <time>2010-03-06T11:43:59Z</time>
      </trkpt>
      <trkpt lat="45.69695" lon="3.14383">
        <ele>390.028687</ele>
        <time>2010-03-06T11:44:01Z</time>
      </trkpt>
      <trkpt lat="45.69696" lon="3.144">
        <ele>389.672485</ele>
        <time>2010-03-06T11:44:03Z</time>
      </trkpt>
      <trkpt lat="45.69697" lon="3.14416">
        <ele>389.379822</ele>
        <time>2010-03-06T11:44:05Z</time>
      </trkpt>
      <trkpt lat="45.69698" lon="3.1443">
        <ele>389.140625</ele>
        <time>2010-03-06T11:44:07Z</time>
      </trkpt>
      <trkpt lat="45.69699" lon="3.14445">
        <ele>388.88559</ele>
        <time>2010-03-06T11:44:09Z</time>
      </trkpt>
      <trkpt lat="45.69699" lon="3.1446">
        <ele>388.677338</ele>
        <time>2010-03-06T11:44:11Z</time>
      </trkpt>
      <trkpt lat="45.69698" lon="3.14475">
        <ele>388.472565</ele>
        <time>2010-03-06T11:44:13Z</time>
      </trkpt>
      <trkpt lat="45.69696" lon="3.14494">
        <ele>388.200684</ele>
        <time>2010-03-06T11:44:16Z</time>
      </trkpt>
      <trkpt lat="45.69695" lon="3.14511">
        <ele>388.039368</ele>
        <time>2010-03-06T11:44:19Z</time>
      </trkpt>
      <trkpt lat="45.69697" lon="3.14528">
        <ele>388</ele>
        <time>2010-03-06T11:44:22Z</time>
      </trkpt>
      <trkpt lat="45.697" lon="3.14542">
        <ele>388</ele>
        <time>2010-03-06T11:44:24Z</time>
      </trkpt>
      <trkpt lat="45.69705" lon="3.1456">
        <ele>388</ele>
        <time>2010-03-06T11:44:27Z</time>
      </trkpt>
      <trkpt lat="45.69705" lon="3.14577">
        <ele>388</ele>
        <time>2010-03-06T11:44:30Z</time>
      </trkpt>
      <trkpt lat="45.69702" lon="3.14594">
        <ele>388</ele>
        <time>2010-03-06T11:44:33Z</time>
      </trkpt>
      <trkpt lat="45.69701" lon="3.14609">
        <ele>388</ele>
        <time>2010-03-06T11:44:36Z</time>
      </trkpt>
      <trkpt lat="45.697" lon="3.14626">
        <ele>388</ele>
        <time>2010-03-06T11:44:39Z</time>
      </trkpt>
      <trkpt lat="45.697" lon="3.14639">
        <ele>387.992493</ele>
        <time>2010-03-06T11:44:42Z</time>
      </trkpt>
      <trkpt lat="45.69699" lon="3.14653">
        <ele>387.970032</ele>
        <time>2010-03-06T11:44:46Z</time>
      </trkpt>
      <trkpt lat="45.69696" lon="3.14667">
        <ele>387.972626</ele>
        <time>2010-03-06T11:44:53Z</time>
      </trkpt>
      <trkpt lat="45.69695" lon="3.14683">
        <ele>387.987152</ele>
        <time>2010-03-06T11:45:01Z</time>
      </trkpt>
      <trkpt lat="45.69692" lon="3.14695">
        <ele>388.002563</ele>
        <time>2010-03-06T11:45:07Z</time>
      </trkpt>
      <trkpt lat="45.69689" lon="3.14708">
        <ele>387.898285</ele>
        <time>2010-03-06T11:45:14Z</time>
      </trkpt>
      <trkpt lat="45.69686" lon="3.1472">
        <ele>387.777374</ele>
        <time>2010-03-06T11:45:21Z</time>
      </trkpt>
      <trkpt lat="45.69683" lon="3.14733">
        <ele>387.728943</ele>
        <time>2010-03-06T11:45:33Z</time>
      </trkpt>
      <trkpt lat="45.6968" lon="3.14745">
        <ele>387.705811</ele>
        <time>2010-03-06T11:45:41Z</time>
      </trkpt>
      <trkpt lat="45.69678" lon="3.14759">
        <ele>387.693512</ele>
        <time>2010-03-06T11:45:48Z</time>
      </trkpt>
      <trkpt lat="45.69674" lon="3.14772">
        <ele>387.806244</ele>
        <time>2010-03-06T11:45:56Z</time>
      </trkpt>
      <trkpt lat="45.69672" lon="3.14785">
        <ele>387.782562</ele>
        <time>2010-03-06T11:46:03Z</time>
      </trkpt>
      <trkpt lat="45.69678" lon="3.14798">
        <ele>387.503479</ele>
        <time>2010-03-06T11:46:19Z</time>
      </trkpt>
      <trkpt lat="45.69681" lon="3.1481">
        <ele>387.328308</ele>
        <time>2010-03-06T11:46:25Z</time>
      </trkpt>
      <trkpt lat="45.69683" lon="3.14824">
        <ele>387.226318</ele>
        <time>2010-03-06T11:46:32Z</time>
      </trkpt>
      <trkpt lat="45.69677" lon="3.14837">
        <ele>387.103516</ele>
        <time>2010-03-06T11:46:37Z</time>
      </trkpt>
      <trkpt lat="45.69669" lon="3.14848">
        <ele>386.882019</ele>
        <time>2010-03-06T11:46:41Z</time>
      </trkpt>
      <trkpt lat="45.69658" lon="3.14855">
        <ele>386.67746</ele>
        <time>2010-03-06T11:46:46Z</time>
      </trkpt>
      <trkpt lat="45.69649" lon="3.1486">
        <ele>386.492676</ele>
        <time>2010-03-06T11:46:51Z</time>
      </trkpt>
      <trkpt lat="45.6964" lon="3.14863">
        <ele>386.055389</ele>
        <time>2010-03-06T11:46:56Z</time>
      </trkpt>
      <trkpt lat="45.69632" lon="3.14869">
        <ele>385.346802</ele>
        <time>2010-03-06T11:47:01Z</time>
      </trkpt>
      <trkpt lat="45.69622" lon="3.14872">
        <ele>384.700592</ele>
        <time>2010-03-06T11:47:05Z</time>
      </trkpt>
      <trkpt lat="45.69612" lon="3.14878">
        <ele>383.659058</ele>
        <time>2010-03-06T11:47:09Z</time>
      </trkpt>
      <trkpt lat="45.69602" lon="3.14884">
        <ele>382.660004</ele>
        <time>2010-03-06T11:47:12Z</time>
      </trkpt>
      <trkpt lat="45.6959" lon="3.14886">
        <ele>382.737488</ele>
        <time>2010-03-06T11:47:16Z</time>
      </trkpt>
      <trkpt lat="45.69581" lon="3.14887">
        <ele>382.767487</ele>
        <time>2010-03-06T11:47:19Z</time>
      </trkpt>
      <trkpt lat="45.69569" lon="3.14891">
        <ele>382.700287</ele>
        <time>2010-03-06T11:47:23Z</time>
      </trkpt>
      <trkpt lat="45.6956" lon="3.149">
        <ele>382.354889</ele>
        <time>2010-03-06T11:47:26Z</time>
      </trkpt>
      <trkpt lat="45.6955" lon="3.149">
        <ele>382.537506</ele>
        <time>2010-03-06T11:47:29Z</time>
      </trkpt>
      <trkpt lat="45.6954" lon="3.14903">
        <ele>382.582489</ele>
        <time>2010-03-06T11:47:32Z</time>
      </trkpt>
      <trkpt lat="45.69532" lon="3.14907">
        <ele>382.492493</ele>
        <time>2010-03-06T11:47:35Z</time>
      </trkpt>
      <trkpt lat="45.69522" lon="3.14913">
        <ele>382.355011</ele>
        <time>2010-03-06T11:47:39Z</time>
      </trkpt>
      <trkpt lat="45.69518" lon="3.14925">
        <ele>381.660004</ele>
        <time>2010-03-06T11:47:43Z</time>
      </trkpt>
      <trkpt lat="45.69522" lon="3.14937">
        <ele>380.834991</ele>
        <time>2010-03-06T11:47:47Z</time>
      </trkpt>
      <trkpt lat="45.69532" lon="3.14944">
        <ele>380.17749</ele>
        <time>2010-03-06T11:47:51Z</time>
      </trkpt>
      <trkpt lat="45.69544" lon="3.14948">
        <ele>379.707489</ele>
        <time>2010-03-06T11:47:55Z</time>
      </trkpt>
      <trkpt lat="45.69554" lon="3.14955">
        <ele>379.053375</ele>
        <time>2010-03-06T11:47:58Z</time>
      </trkpt>
      <trkpt lat="45.69565" lon="3.14963">
        <ele>379.049988</ele>
        <time>2010-03-06T11:48:02Z</time>
      </trkpt>
      <trkpt lat="45.69574" lon="3.14972">
        <ele>379.121246</ele>
        <time>2010-03-06T11:48:05Z</time>
      </trkpt>
      <trkpt lat="45.69583" lon="3.14981">
        <ele>379.168762</ele>
        <time>2010-03-06T11:48:08Z</time>
      </trkpt>
      <trkpt lat="45.6959" lon="3.14989">
        <ele>379.213745</ele>
        <time>2010-03-06T11:48:13Z</time>
      </trkpt>
      <trkpt lat="45.69596" lon="3.14999">
        <ele>379.202515</ele>
        <time>2010-03-06T11:48:20Z</time>
      </trkpt>
      <trkpt lat="45.69604" lon="3.15008">
        <ele>379.298584</ele>
        <time>2010-03-06T11:48:26Z</time>
      </trkpt>
      <trkpt lat="45.69612" lon="3.15017">
        <ele>379.526062</ele>
        <time>2010-03-06T11:48:33Z</time>
      </trkpt>
      <trkpt lat="45.69621" lon="3.15021">
        <ele>379.842499</ele>
        <time>2010-03-06T11:48:47Z</time>
      </trkpt>
      <trkpt lat="45.6962" lon="3.15035">
        <ele>379.607513</ele>
        <time>2010-03-06T11:48:58Z</time>
      </trkpt>
      <trkpt lat="45.69616" lon="3.15047">
        <ele>379.220001</ele>
        <time>2010-03-06T11:49:07Z</time>
      </trkpt>
      <trkpt lat="45.69613" lon="3.1506">
        <ele>378.88501</ele>
        <time>2010-03-06T11:49:12Z</time>
      </trkpt>
      <trkpt lat="45.69608" lon="3.15072">
        <ele>378.511261</ele>
        <time>2010-03-06T11:49:19Z</time>
      </trkpt>
      <trkpt lat="45.69606" lon="3.15086">
        <ele>378.181244</ele>
        <time>2010-03-06T11:49:27Z</time>
      </trkpt>
      <trkpt lat="45.69601" lon="3.15101">
        <ele>377.747498</ele>
        <time>2010-03-06T11:49:33Z</time>
      </trkpt>
      <trkpt lat="45.69598" lon="3.15114">
        <ele>377.526245</ele>
        <time>2010-03-06T11:49:39Z</time>
      </trkpt>
      <trkpt lat="45.69595" lon="3.15128">
        <ele>377.301239</ele>
        <time>2010-03-06T11:49:44Z</time>
      </trkpt>
      <trkpt lat="45.69592" lon="3.15141">
        <ele>377.105011</ele>
        <time>2010-03-06T11:49:50Z</time>
      </trkpt>
      <trkpt lat="45.69588" lon="3.15156">
        <ele>376.961182</ele>
        <time>2010-03-06T11:49:55Z</time>
      </trkpt>
      <trkpt lat="45.69584" lon="3.15169">
        <ele>376.878815</ele>
        <time>2010-03-06T11:50:01Z</time>
      </trkpt>
      <trkpt lat="45.69581" lon="3.15184">
        <ele>376.752045</ele>
        <time>2010-03-06T11:50:08Z</time>
      </trkpt>
      <trkpt lat="45.69578" lon="3.15198">
        <ele>376.600494</ele>
        <time>2010-03-06T11:50:16Z</time>
      </trkpt>
      <trkpt lat="45.69576" lon="3.15212">
        <ele>376.452026</ele>
        <time>2010-03-06T11:50:21Z</time>
      </trkpt>
      <trkpt lat="45.69574" lon="3.15227">
        <ele>376.073761</ele>
        <time>2010-03-06T11:50:27Z</time>
      </trkpt>
      <trkpt lat="45.69571" lon="3.15241">
        <ele>375.726868</ele>
        <time>2010-03-06T11:50:35Z</time>
      </trkpt>
      <trkpt lat="45.69568" lon="3.15254">
        <ele>375.435455</ele>
        <time>2010-03-06T11:50:40Z</time>
      </trkpt>
      <trkpt lat="45.69566" lon="3.15267">
        <ele>375.158447</ele>
        <time>2010-03-06T11:50:49Z</time>
      </trkpt>
      <trkpt lat="45.69564" lon="3.15281">
        <ele>375.036011</ele>
        <time>2010-03-06T11:50:56Z</time>
      </trkpt>
      <trkpt lat="45.69562" lon="3.15293">
        <ele>375.0914</ele>
        <time>2010-03-06T11:51:02Z</time>
      </trkpt>
      <trkpt lat="45.69559" lon="3.15306">
        <ele>375.102661</ele>
        <time>2010-03-06T11:51:06Z</time>
      </trkpt>
      <trkpt lat="45.69556" lon="3.15324">
        <ele>375.064392</ele>
        <time>2010-03-06T11:51:14Z</time>
      </trkpt>
      <trkpt lat="45.69552" lon="3.15338">
        <ele>375.000916</ele>
        <time>2010-03-06T11:51:19Z</time>
      </trkpt>
      <trkpt lat="45.69549" lon="3.15354">
        <ele>374.976227</ele>
        <time>2010-03-06T11:51:23Z</time>
      </trkpt>
      <trkpt lat="45.69549" lon="3.15367">
        <ele>374.94809</ele>
        <time>2010-03-06T11:51:26Z</time>
      </trkpt>
      <trkpt lat="45.69544" lon="3.15381">
        <ele>374.853821</ele>
        <time>2010-03-06T11:51:29Z</time>
      </trkpt>
      <trkpt lat="45.69538" lon="3.15393">
        <ele>374.703888</ele>
        <time>2010-03-06T11:51:33Z</time>
      </trkpt>
      <trkpt lat="45.69536" lon="3.15408">
        <ele>374.542511</ele>
        <time>2010-03-06T11:51:39Z</time>
      </trkpt>
      <trkpt lat="45.69535" lon="3.15423">
        <ele>374.292511</ele>
        <time>2010-03-06T11:51:45Z</time>
      </trkpt>
      <trkpt lat="45.69533" lon="3.15436">
        <ele>374.042511</ele>
        <time>2010-03-06T11:51:49Z</time>
      </trkpt>
      <trkpt lat="45.69534" lon="3.1545">
        <ele>373.850006</ele>
        <time>2010-03-06T11:51:55Z</time>
      </trkpt>
      <trkpt lat="45.69534" lon="3.15466">
        <ele>373.600006</ele>
        <time>2010-03-06T11:52:01Z</time>
      </trkpt>
      <trkpt lat="45.69533" lon="3.1548">
        <ele>373.549988</ele>
        <time>2010-03-06T11:52:06Z</time>
      </trkpt>
      <trkpt lat="45.69533" lon="3.15494">
        <ele>373.565002</ele>
        <time>2010-03-06T11:52:11Z</time>
      </trkpt>
      <trkpt lat="45.69533" lon="3.15509">
        <ele>373.567505</ele>
        <time>2010-03-06T11:52:17Z</time>
      </trkpt>
      <trkpt lat="45.69534" lon="3.15524">
        <ele>373.582489</ele>
        <time>2010-03-06T11:52:23Z</time>
      </trkpt>
      <trkpt lat="45.69535" lon="3.15538">
        <ele>373.602509</ele>
        <time>2010-03-06T11:52:29Z</time>
      </trkpt>
      <trkpt lat="45.69535" lon="3.15551">
        <ele>373.617493</ele>
        <time>2010-03-06T11:52:34Z</time>
      </trkpt>
      <trkpt lat="45.69536" lon="3.15566">
        <ele>373.632507</ele>
        <time>2010-03-06T11:52:41Z</time>
      </trkpt>
      <trkpt lat="45.69536" lon="3.15581">
        <ele>373.63501</ele>
        <time>2010-03-06T11:52:48Z</time>
      </trkpt>
      <trkpt lat="45.69537" lon="3.15595">
        <ele>373.649994</ele>
        <time>2010-03-06T11:52:54Z</time>
      </trkpt>
      <trkpt lat="45.69538" lon="3.1561">
        <ele>373.827545</ele>
        <time>2010-03-06T11:53:00Z</time>
      </trkpt>
      <trkpt lat="45.69538" lon="3.15623">
        <ele>373.992188</ele>
        <time>2010-03-06T11:53:07Z</time>
      </trkpt>
      <trkpt lat="45.6954" lon="3.15637">
        <ele>374.196747</ele>
        <time>2010-03-06T11:53:14Z</time>
      </trkpt>
      <trkpt lat="45.69541" lon="3.15652">
        <ele>374.420258</ele>
        <time>2010-03-06T11:53:21Z</time>
      </trkpt>
      <trkpt lat="45.69542" lon="3.15666">
        <ele>374.643738</ele>
        <time>2010-03-06T11:53:27Z</time>
      </trkpt>
      <trkpt lat="45.69543" lon="3.15682">
        <ele>374.941254</ele>
        <time>2010-03-06T11:53:34Z</time>
      </trkpt>
      <trkpt lat="45.69544" lon="3.15696">
        <ele>375.198761</ele>
        <time>2010-03-06T11:53:41Z</time>
      </trkpt>
      <trkpt lat="45.69545" lon="3.15709">
        <ele>375.46875</ele>
        <time>2010-03-06T11:53:47Z</time>
      </trkpt>
      <trkpt lat="45.69545" lon="3.15723">
        <ele>375.713745</ele>
        <time>2010-03-06T11:53:53Z</time>
      </trkpt>
      <trkpt lat="45.69544" lon="3.15738">
        <ele>374.7229</ele>
        <time>2010-03-06T11:54:00Z</time>
      </trkpt>
      <trkpt lat="45.69544" lon="3.15752">
        <ele>373.708588</ele>
        <time>2010-03-06T11:54:07Z</time>
      </trkpt>
      <trkpt lat="45.69544" lon="3.15766">
        <ele>372.758636</ele>
        <time>2010-03-06T11:54:16Z</time>
      </trkpt>
      <trkpt lat="45.69542" lon="3.15779">
        <ele>371.828247</ele>
        <time>2010-03-06T11:54:22Z</time>
      </trkpt>
      <trkpt lat="45.69542" lon="3.15794">
        <ele>371.121246</ele>
        <time>2010-03-06T11:54:27Z</time>
      </trkpt>
      <trkpt lat="45.69545" lon="3.15807">
        <ele>370.84375</ele>
        <time>2010-03-06T11:54:33Z</time>
      </trkpt>
      <trkpt lat="45.6955" lon="3.15821">
        <ele>370.519989</ele>
        <time>2010-03-06T11:54:40Z</time>
      </trkpt>
      <trkpt lat="45.69553" lon="3.15833">
        <ele>370.433105</ele>
        <time>2010-03-06T11:54:47Z</time>
      </trkpt>
      <trkpt lat="45.69544" lon="3.15839">
        <ele>370.359985</ele>
        <time>2010-03-06T11:54:54Z</time>
      </trkpt>
      <trkpt lat="45.69535" lon="3.15841">
        <ele>370.526245</ele>
        <time>2010-03-06T11:55:01Z</time>
      </trkpt>
      <trkpt lat="45.69525" lon="3.15843">
        <ele>370.706238</ele>
        <time>2010-03-06T11:55:08Z</time>
      </trkpt>
      <trkpt lat="45.69515" lon="3.15845">
        <ele>370.899994</ele>
        <time>2010-03-06T11:55:15Z</time>
      </trkpt>
      <trkpt lat="45.69506" lon="3.15847">
        <ele>371.077484</ele>
        <time>2010-03-06T11:55:22Z</time>
      </trkpt>
      <trkpt lat="45.69496" lon="3.15847">
        <ele>371.082489</ele>
        <time>2010-03-06T11:55:29Z</time>
      </trkpt>
      <trkpt lat="45.69486" lon="3.15846">
        <ele>371.095001</ele>
        <time>2010-03-06T11:55:36Z</time>
      </trkpt>
      <trkpt lat="45.69477" lon="3.15845">
        <ele>371.106262</ele>
        <time>2010-03-06T11:55:43Z</time>
      </trkpt>
      <trkpt lat="45.69467" lon="3.15847">
        <ele>371.076263</ele>
        <time>2010-03-06T11:55:50Z</time>
      </trkpt>
      <trkpt lat="45.69457" lon="3.15849">
        <ele>371.116241</ele>
        <time>2010-03-06T11:55:57Z</time>
      </trkpt>
      <trkpt lat="45.69448" lon="3.1585">
        <ele>371.297485</ele>
        <time>2010-03-06T11:56:05Z</time>
      </trkpt>
      <trkpt lat="45.69438" lon="3.15853">
        <ele>371.434998</ele>
        <time>2010-03-06T11:56:15Z</time>
      </trkpt>
      <trkpt lat="45.69428" lon="3.1585">
        <ele>371.725006</ele>
        <time>2010-03-06T11:56:23Z</time>
      </trkpt>
      <trkpt lat="45.69418" lon="3.15849">
        <ele>371.973755</ele>
        <time>2010-03-06T11:56:30Z</time>
      </trkpt>
      <trkpt lat="45.69409" lon="3.15848">
        <ele>372.196259</ele>
        <time>2010-03-06T11:56:36Z</time>
      </trkpt>
      <trkpt lat="45.69399" lon="3.15849">
        <ele>372.390015</ele>
        <time>2010-03-06T11:56:42Z</time>
      </trkpt>
      <trkpt lat="45.69389" lon="3.15852">
        <ele>372.559875</ele>
        <time>2010-03-06T11:56:49Z</time>
      </trkpt>
      <trkpt lat="45.69379" lon="3.15858">
        <ele>372.688721</ele>
        <time>2010-03-06T11:56:56Z</time>
      </trkpt>
      <trkpt lat="45.69369" lon="3.15862">
        <ele>372.863586</ele>
        <time>2010-03-06T11:57:03Z</time>
      </trkpt>
      <trkpt lat="45.69359" lon="3.15867">
        <ele>373.047485</ele>
        <time>2010-03-06T11:57:10Z</time>
      </trkpt>
      <trkpt lat="45.6935" lon="3.15873">
        <ele>373.267639</ele>
        <time>2010-03-06T11:57:17Z</time>
      </trkpt>
      <trkpt lat="45.69341" lon="3.15879">
        <ele>373.475739</ele>
        <time>2010-03-06T11:57:23Z</time>
      </trkpt>
      <trkpt lat="45.69333" lon="3.15885">
        <ele>373.745483</ele>
        <time>2010-03-06T11:57:29Z</time>
      </trkpt>
      <trkpt lat="45.69324" lon="3.15891">
        <ele>374.029999</ele>
        <time>2010-03-06T11:57:35Z</time>
      </trkpt>
      <trkpt lat="45.69316" lon="3.15897">
        <ele>374.420013</ele>
        <time>2010-03-06T11:57:47Z</time>
      </trkpt>
      <trkpt lat="45.69307" lon="3.15903">
        <ele>374.785004</ele>
        <time>2010-03-06T11:57:53Z</time>
      </trkpt>
      <trkpt lat="45.69299" lon="3.15909">
        <ele>375.174988</ele>
        <time>2010-03-06T11:57:59Z</time>
      </trkpt>
      <trkpt lat="45.6929" lon="3.15918">
        <ele>375.559998</ele>
        <time>2010-03-06T11:58:06Z</time>
      </trkpt>
      <trkpt lat="45.69281" lon="3.15924">
        <ele>375.950012</ele>
        <time>2010-03-06T11:58:13Z</time>
      </trkpt>
      <trkpt lat="45.69273" lon="3.15931">
        <ele>376.35968</ele>
        <time>2010-03-06T11:58:19Z</time>
      </trkpt>
      <trkpt lat="45.69265" lon="3.15938">
        <ele>376.804504</ele>
        <time>2010-03-06T11:58:25Z</time>
      </trkpt>
      <trkpt lat="45.69256" lon="3.15945">
        <ele>377.329926</ele>
        <time>2010-03-06T11:58:32Z</time>
      </trkpt>
      <trkpt lat="45.69248" lon="3.15954">
        <ele>377.881012</ele>
        <time>2010-03-06T11:58:39Z</time>
      </trkpt>
      <trkpt lat="45.69239" lon="3.15964">
        <ele>378.501526</ele>
        <time>2010-03-06T11:58:46Z</time>
      </trkpt>
      <trkpt lat="45.69235" lon="3.15977">
        <ele>378.976257</ele>
        <time>2010-03-06T11:58:53Z</time>
      </trkpt>
      <trkpt lat="45.69231" lon="3.15991">
        <ele>379.434998</ele>
        <time>2010-03-06T11:59:00Z</time>
      </trkpt>
      <trkpt lat="45.69228" lon="3.16003">
        <ele>379.826263</ele>
        <time>2010-03-06T11:59:07Z</time>
      </trkpt>
      <trkpt lat="45.69225" lon="3.16017">
        <ele>380.246246</ele>
        <time>2010-03-06T11:59:14Z</time>
      </trkpt>
      <trkpt lat="45.69222" lon="3.16029">
        <ele>380.600006</ele>
        <time>2010-03-06T11:59:20Z</time>
      </trkpt>
      <trkpt lat="45.6922" lon="3.16043">
        <ele>380.976257</ele>
        <time>2010-03-06T11:59:26Z</time>
      </trkpt>
      <trkpt lat="45.69216" lon="3.16054">
        <ele>381.445007</ele>
        <time>2010-03-06T11:59:32Z</time>
      </trkpt>
      <trkpt lat="45.69207" lon="3.1606">
        <ele>382.116241</ele>
        <time>2010-03-06T11:59:39Z</time>
      </trkpt>
      <trkpt lat="45.69197" lon="3.16058">
        <ele>382.764984</ele>
        <time>2010-03-06T11:59:46Z</time>
      </trkpt>
      <trkpt lat="45.69188" lon="3.16054">
        <ele>383.346252</ele>
        <time>2010-03-06T11:59:52Z</time>
      </trkpt>
      <trkpt lat="45.69178" lon="3.1605">
        <ele>384.341248</ele>
        <time>2010-03-06T11:59:59Z</time>
      </trkpt>
      <trkpt lat="45.69169" lon="3.16045">
        <ele>385.32251</ele>
        <time>2010-03-06T12:00:06Z</time>
      </trkpt>
      <trkpt lat="45.6916" lon="3.16041">
        <ele>386.242493</ele>
        <time>2010-03-06T12:00:12Z</time>
      </trkpt>
      <trkpt lat="45.69151" lon="3.16036">
        <ele>387.225006</ele>
        <time>2010-03-06T12:00:19Z</time>
      </trkpt>
      <trkpt lat="45.69141" lon="3.16034">
        <ele>388.445526</ele>
        <time>2010-03-06T12:00:26Z</time>
      </trkpt>
      <trkpt lat="45.69131" lon="3.16034">
        <ele>390.00354</ele>
        <time>2010-03-06T12:00:33Z</time>
      </trkpt>
      <trkpt lat="45.6912" lon="3.16034">
        <ele>391.562653</ele>
        <time>2010-03-06T12:00:40Z</time>
      </trkpt>
      <trkpt lat="45.6911" lon="3.16034">
        <ele>393.103424</ele>
        <time>2010-03-06T12:00:47Z</time>
      </trkpt>
      <trkpt lat="45.69101" lon="3.16034">
        <ele>394.56076</ele>
        <time>2010-03-06T12:00:54Z</time>
      </trkpt>
      <trkpt lat="45.69091" lon="3.16035">
        <ele>396.337982</ele>
        <time>2010-03-06T12:01:01Z</time>
      </trkpt>
      <trkpt lat="45.69081" lon="3.16035">
        <ele>398.142639</ele>
        <time>2010-03-06T12:01:09Z</time>
      </trkpt>
      <trkpt lat="45.69071" lon="3.16036">
        <ele>399.854919</ele>
        <time>2010-03-06T12:01:16Z</time>
      </trkpt>
      <trkpt lat="45.69061" lon="3.16037">
        <ele>401.693817</ele>
        <time>2010-03-06T12:01:24Z</time>
      </trkpt>
      <trkpt lat="45.69052" lon="3.16037">
        <ele>403.221985</ele>
        <time>2010-03-06T12:01:31Z</time>
      </trkpt>
      <trkpt lat="45.69042" lon="3.16038">
        <ele>404.298706</ele>
        <time>2010-03-06T12:01:38Z</time>
      </trkpt>
      <trkpt lat="45.69032" lon="3.16038">
        <ele>405.420135</ele>
        <time>2010-03-06T12:01:46Z</time>
      </trkpt>
      <trkpt lat="45.69023" lon="3.16038">
        <ele>406.47702</ele>
        <time>2010-03-06T12:01:53Z</time>
      </trkpt>
      <trkpt lat="45.69013" lon="3.16039">
        <ele>407.543915</ele>
        <time>2010-03-06T12:02:01Z</time>
      </trkpt>
      <trkpt lat="45.69002" lon="3.16041">
        <ele>408.357513</ele>
        <time>2010-03-06T12:02:09Z</time>
      </trkpt>
      <trkpt lat="45.68993" lon="3.16043">
        <ele>408.932495</ele>
        <time>2010-03-06T12:02:16Z</time>
      </trkpt>
      <trkpt lat="45.68984" lon="3.16046">
        <ele>409.402496</ele>
        <time>2010-03-06T12:02:23Z</time>
      </trkpt>
      <trkpt lat="45.68974" lon="3.16049">
        <ele>409.980011</ele>
        <time>2010-03-06T12:02:30Z</time>
      </trkpt>
      <trkpt lat="45.68964" lon="3.16052">
        <ele>410.522491</ele>
        <time>2010-03-06T12:02:37Z</time>
      </trkpt>
      <trkpt lat="45.68954" lon="3.16053">
        <ele>410.999451</ele>
        <time>2010-03-06T12:02:45Z</time>
      </trkpt>
      <trkpt lat="45.68945" lon="3.16054">
        <ele>411.41864</ele>
        <time>2010-03-06T12:02:52Z</time>
      </trkpt>
      <trkpt lat="45.68935" lon="3.16056">
        <ele>411.856018</ele>
        <time>2010-03-06T12:02:59Z</time>
      </trkpt>
      <trkpt lat="45.68926" lon="3.16059">
        <ele>412.288727</ele>
        <time>2010-03-06T12:03:06Z</time>
      </trkpt>
      <trkpt lat="45.68916" lon="3.16061">
        <ele>412.790009</ele>
        <time>2010-03-06T12:03:13Z</time>
      </trkpt>
      <trkpt lat="45.68907" lon="3.16064">
        <ele>413.363739</ele>
        <time>2010-03-06T12:03:20Z</time>
      </trkpt>
      <trkpt lat="45.68897" lon="3.16068">
        <ele>413.972504</ele>
        <time>2010-03-06T12:03:28Z</time>
      </trkpt>
      <trkpt lat="45.68887" lon="3.16071">
        <ele>414.581238</ele>
        <time>2010-03-06T12:03:36Z</time>
      </trkpt>
      <trkpt lat="45.68877" lon="3.16073">
        <ele>415.181244</ele>
        <time>2010-03-06T12:03:43Z</time>
      </trkpt>
      <trkpt lat="45.68868" lon="3.16075">
        <ele>415.995392</ele>
        <time>2010-03-06T12:03:50Z</time>
      </trkpt>
      <trkpt lat="45.68858" lon="3.16076">
        <ele>417.012024</ele>
        <time>2010-03-06T12:03:58Z</time>
      </trkpt>
      <trkpt lat="45.68848" lon="3.16076">
        <ele>417.995361</ele>
        <time>2010-03-06T12:04:05Z</time>
      </trkpt>
      <trkpt lat="45.68838" lon="3.16077">
        <ele>419.023224</ele>
        <time>2010-03-06T12:04:13Z</time>
      </trkpt>
      <trkpt lat="45.68828" lon="3.16079">
        <ele>420.049988</ele>
        <time>2010-03-06T12:04:21Z</time>
      </trkpt>
      <trkpt lat="45.68818" lon="3.1608">
        <ele>420.950012</ele>
        <time>2010-03-06T12:04:29Z</time>
      </trkpt>
      <trkpt lat="45.68808" lon="3.16082">
        <ele>421.839996</ele>
        <time>2010-03-06T12:04:37Z</time>
      </trkpt>
      <trkpt lat="45.68799" lon="3.16084">
        <ele>422.679993</ele>
        <time>2010-03-06T12:04:44Z</time>
      </trkpt>
      <trkpt lat="45.68789" lon="3.16085">
        <ele>423.579987</ele>
        <time>2010-03-06T12:04:52Z</time>
      </trkpt>
      <trkpt lat="45.68779" lon="3.16086">
        <ele>424.587494</ele>
        <time>2010-03-06T12:05:00Z</time>
      </trkpt>
      <trkpt lat="45.68769" lon="3.16088">
        <ele>425.637512</ele>
        <time>2010-03-06T12:05:07Z</time>
      </trkpt>
      <trkpt lat="45.6876" lon="3.16088">
        <ele>426.6875</ele>
        <time>2010-03-06T12:05:15Z</time>
      </trkpt>
      <trkpt lat="45.68751" lon="3.16094">
        <ele>427.662506</ele>
        <time>2010-03-06T12:05:23Z</time>
      </trkpt>
      <trkpt lat="45.68747" lon="3.16106">
        <ele>427.915009</ele>
        <time>2010-03-06T12:05:33Z</time>
      </trkpt>
      <trkpt lat="45.68747" lon="3.16121">
        <ele>427.636475</ele>
        <time>2010-03-06T12:05:42Z</time>
      </trkpt>
      <trkpt lat="45.68747" lon="3.16135">
        <ele>427.356842</ele>
        <time>2010-03-06T12:05:50Z</time>
      </trkpt>
      <trkpt lat="45.68747" lon="3.1615">
        <ele>427.058167</ele>
        <time>2010-03-06T12:05:58Z</time>
      </trkpt>
      <trkpt lat="45.68747" lon="3.16165">
        <ele>426.716797</ele>
        <time>2010-03-06T12:06:05Z</time>
      </trkpt>
      <trkpt lat="45.68746" lon="3.16179">
        <ele>425.859314</ele>
        <time>2010-03-06T12:06:14Z</time>
      </trkpt>
      <trkpt lat="45.68745" lon="3.16194">
        <ele>425.026428</ele>
        <time>2010-03-06T12:06:23Z</time>
      </trkpt>
      <trkpt lat="45.68743" lon="3.16208">
        <ele>424.340698</ele>
        <time>2010-03-06T12:06:29Z</time>
      </trkpt>
      <trkpt lat="45.68742" lon="3.16223">
        <ele>423.536652</ele>
        <time>2010-03-06T12:06:36Z</time>
      </trkpt>
      <trkpt lat="45.6874" lon="3.16236">
        <ele>422.841339</ele>
        <time>2010-03-06T12:06:42Z</time>
      </trkpt>
      <trkpt lat="45.68734" lon="3.16247">
        <ele>422.5</ele>
        <time>2010-03-06T12:06:50Z</time>
      </trkpt>
      <trkpt lat="45.68728" lon="3.16257">
        <ele>422.387512</ele>
        <time>2010-03-06T12:06:58Z</time>
      </trkpt>
      <trkpt lat="45.68719" lon="3.16265">
        <ele>422.702515</ele>
        <time>2010-03-06T12:07:07Z</time>
      </trkpt>
      <trkpt lat="45.68711" lon="3.16274">
        <ele>423.017487</ele>
        <time>2010-03-06T12:07:16Z</time>
      </trkpt>
      <trkpt lat="45.68702" lon="3.16281">
        <ele>423.595001</ele>
        <time>2010-03-06T12:07:24Z</time>
      </trkpt>
      <trkpt lat="45.68693" lon="3.16287">
        <ele>424.179993</ele>
        <time>2010-03-06T12:07:32Z</time>
      </trkpt>
      <trkpt lat="45.68684" lon="3.16293">
        <ele>424.803741</ele>
        <time>2010-03-06T12:07:41Z</time>
      </trkpt>
      <trkpt lat="45.68674" lon="3.16297">
        <ele>425.681244</ele>
        <time>2010-03-06T12:07:49Z</time>
      </trkpt>
      <trkpt lat="45.68675" lon="3.16282">
        <ele>426.509369</ele>
        <time>2010-03-06T12:08:04Z</time>
      </trkpt>
      <trkpt lat="45.68676" lon="3.16268">
        <ele>427.700867</ele>
        <time>2010-03-06T12:08:13Z</time>
      </trkpt>
      <trkpt lat="45.68673" lon="3.16255">
        <ele>429.139679</ele>
        <time>2010-03-06T12:08:22Z</time>
      </trkpt>
      <trkpt lat="45.68663" lon="3.16252">
        <ele>430.350677</ele>
        <time>2010-03-06T12:08:38Z</time>
      </trkpt>
      <trkpt lat="45.68655" lon="3.16246">
        <ele>431.654907</ele>
        <time>2010-03-06T12:08:48Z</time>
      </trkpt>
      <trkpt lat="45.68653" lon="3.16233">
        <ele>432.916351</ele>
        <time>2010-03-06T12:09:02Z</time>
      </trkpt>
      <trkpt lat="45.68655" lon="3.1622">
        <ele>433.65625</ele>
        <time>2010-03-06T12:09:12Z</time>
      </trkpt>
    </trkseg>
  </trk>
</gpx>